     2.10           OBSERVATION DATA    G (GPS)             RINEX VERSION / TYPE
teqc 2005May6 SOPAC 20050707 00:18:44UTC                    PGM / RUN BY / DATE
Linux 2.4.20-8|Pentium IV|gcc|Linux|486/DX+                 COMMENT
BIT 2 OF LLI FLAGS DATA COLLECTED UNDER A/S CONDITION       COMMENT
HPGN D CA 02 JU                                             MARKER NAME
02JU                                                        MARKER NUMBER
Tim Dowell                                                  OBSERVER / AGENCY
0220202930 TRIMBLE 4700 1.30                                REC # / TYPE / VERS
0220063966 TRM22020.00+GP NONE                              ANT # / TYPE
 -2470613.0000 -4165466.0000  4138815.0000                  APPROX POSITION XYZ
        2.0000        0.0000        0.0000                  ANTENNA: DELTA H/E/N
     1     1                                                WAVELENGTH FACT L1/2
     6    L1    L2    C1    P2    P1    D1                  # / TYPES OF OBSERV
    15.0000                                                 INTERVAL
Northern California Height Modernization 2004               COMMENT
                                                            COMMENT
SOPAC - Scripps Orbit and Permanent Array Center            COMMENT
IGPP - Institute of Geophysics and Planetary Physics        COMMENT
SIO - Scripps Institution of Oceanography                   COMMENT
UCSD - University of California, San Diego                  COMMENT
                                                            COMMENT
email: archive@gpsmail.ucsd.edu                             COMMENT
ftp://garner.ucsd.edu                                       COMMENT
http://sopac.ucsd.edu                                       COMMENT
                                                            COMMENT
                                                            COMMENT
Approximate Lat, Lon : 40.707, -120.673                     COMMENT
                                                            COMMENT
SNR is mapped to RINEX snr flag value [0-9]                 COMMENT
L1 & L2: 2-19 dBHz = 1, 20-27 dBHz = 2, 28-31 dBHz = 3      COMMENT
32-35 dBHz = 4, 36-38 dBHz = 5, 39-41 dBHz = 6              COMMENT
42-44 dBHz = 7, 45-48 dBHz = 8, >= 49 dBHz = 9              COMMENT
  2004     9     2    21     0   15.0000000     GPS         TIME OF FIRST OBS
                                                            END OF HEADER
 04  9  2 21  0 15.0000000  0  6G 1G13G16G20G23G27
     79248.52258     28713.53554  23246911.5634   23246910.8714
     -3596.6724
     -2983.69559     -5532.30658  20383836.2274   20383832.8634
       135.4224
     78373.75658     31214.33655  22932357.8284   22932355.9774
     -3623.5474
     98299.81957     37142.81754  23692711.0944   23692711.4144
     -4586.8594
     52657.62959     17585.28458  20760327.0084   20760321.5704
     -2414.2344
    -19377.68759    -12263.58757  22049982.0864   22049979.8674
       879.4534
 04  9  2 21  0 30.0000000  0  8G 1G 3G 8G13G16G20G23G27
    133217.09448     70766.94644  23257181.5554   23257181.7304
     -3599.7034
    -40623.03057    -27288.75053  23497344.9774   23497344.9654
      1103.2344
    -74210.06857    -46336.39753  23914023.4144   23914022.8284
      2024.5784
     -4978.87149     -7086.97448  20383456.7344   20383453.2384
       129.9844
    132760.42848     73593.55245  22942707.4454   22942704.0474
     -3628.5944
    167107.63147     90759.22043  23705804.5164   23705805.3404
     -4588.1254
     88911.10149     45834.74748  20767225.7584   20767220.2234
     -2420.0944
    -32555.11549    -22531.68347  22047474.4924   22047472.5394
       877.0314
 04  9  2 21  0 45.0000000  0  8G 1G 3G 8G13G16G20G23G27
    187252.10848    112872.08544  23267464.3984   23267463.0474
     -3605.0164
    -57114.33146    -40139.08443  23494205.9924   23494206.6844
      1095.4844
   -104551.80247    -69979.28143  23908249.4224   23908248.9844
      2020.7974
     -6870.78449     -8561.19348  20383096.4924   20383093.3364
       122.1414
    187243.49148    116047.86245  22953074.4844   22953072.7934
     -3635.9374
    235954.32847    144405.89743  23718906.4064   23718906.9964
     -4591.6094
    125273.47349     74169.04948  20774145.5164   20774140.1254
     -2428.2974
    -45676.40149    -32756.04447  22044977.4144   22044975.3874
       872.3594
 04  9  2 21  1  0.0000000  0  8G 1G 3G 8G13G16G20G23G27
    241377.24348    155047.48144  23277763.6564   23277762.7974
     -3612.1724
    -73479.30147    -52890.98043  23491092.8594   23491092.6684
      1086.0784
   -134825.94547    -93569.50043  23902488.3754   23902488.1604
      2015.2664
     -8635.50249     -9936.30248  20382760.5394   20382757.0164
       112.6094
    241846.32148    158595.48745  22963465.5944   22963463.2664
     -3644.9374
    304863.48047    198101.26143  23732019.2114   23732019.2384
     -4596.8284
    161768.60449    102606.79748  20781090.6094   20781084.7704
     -2438.2504
    -58717.73849    -42918.11547  22042496.0084   22042493.7154
       865.9844
 04  9  2 21  1 15.0000000  0  8G 1G 3G 8G13G16G20G23G27
    295616.72148    197311.96144  23288084.7114   23288084.1914
     -3620.1724
    -89693.14747    -65525.11343  23488007.1884   23488007.3364
      1075.4064
   -165007.99547   -117087.95043  23896745.1024   23896744.3014
      2008.6094
    -10248.51649    -11193.19648  20382453.8444   20382449.9064
       102.0474
    296592.99848    201255.21044  22973883.1644   22973881.0704
     -3654.9694
    373858.93347    251863.86743  23745148.2034   23745149.2894
     -4603.0624
    198420.81849    131166.95348  20788064.8754   20788059.3984
     -2449.1564
    -71654.87849    -52998.98647  22040034.0784   22040031.9454
       858.5634
 04  9  2 21  1 30.0000000  0  8G 1G 3G 8G13G16G20G23G27
    349986.39248    239677.87944  23298431.2194   23298430.2464
     -3629.1094
   -105739.82647    -78028.98944  23484953.6954   23484953.6334
      1064.0944
   -195082.30747   -140522.46943  23891022.0634   23891021.0594
      2001.2344
    -11693.63849    -12319.25748  20382178.7664   20382175.0004
        90.6414
    351499.04448    244039.13245  22984331.7504   22984329.3094
     -3665.8124
    442956.23247    305705.83743  23758297.1564   23758298.1764
     -4609.9844
    235245.87249    159861.79148  20795072.8834   20795066.9144
     -2460.8594
    -84471.91049    -62986.27547  22037595.0704   22037593.0594
       850.3134
 04  9  2 21  1 45.0000000  0  8G 1G 3G 8G13G16G20G23G27
    404498.21548    282154.58544  23308804.0474   23308804.3324
     -3639.2504
   -121606.83547    -90392.86943  23481933.3444   23481934.2504
      1051.5164
   -225036.58347   -163863.43743  23885321.7274   23885320.9694
      1992.6414
    -12958.80649    -13305.09148  20381938.1724   20381934.6054
        78.0004
    406576.08549    286956.27845  22994813.1564   22994810.3164
     -3677.8594
    512167.15447    359636.31943  23771468.3674   23771468.7114
     -4618.1564
    272255.91449    188700.77948  20802115.5164   20802109.6994
     -2473.8594
    -97156.75649    -72870.55247  22035180.7114   22035179.0394
       840.9534
 04  9  2 21  2  0.0000000  0  8G 1G 3G 8G13G16G20G23G27
    459158.60548    324747.02444  23319205.7034   23319206.5004
     -3649.2504
   -137287.35347   -102611.41443  23478950.1024   23478950.0354
      1038.9694
   -254864.39147   -187105.87543  23879645.3984   23879644.4884
      1984.0944
    -14037.33549    -14145.50848  20381732.7504   20381729.3524
        65.4534
    461830.47248    330011.63544  23005327.1174   23005324.6844
     -3689.7034
    581497.71447    413660.06243  23784661.4924   23784661.5594
     -4626.2194
    309457.40149    217688.93948  20809194.7114   20809188.4144
     -2486.6094
   -109703.01649    -82646.83947  22032793.7584   22032791.4184
       831.6414
 04  9  2 21  2 15.0000000  0  8G 1G 3G 8G13G16G20G23G27
    513978.67448    367463.91244  23329637.6174   23329638.2624
     -3660.0624
   -152769.67348   -114675.53943  23476003.5864   23476003.1294
      1025.4694
   -284554.19547   -210240.73043  23873995.7664   23873995.0434
      1974.7664
    -14917.70449    -14831.51048  20381565.2114   20381561.6804
        52.0314
    517273.11648    373213.68045  23015877.7424   23015874.8484
     -3702.5004
    650958.88447    467785.58343  23797880.0784   23797879.7504
     -4635.1564
    346861.55149    246835.01548  20816312.1724   20816306.7384
     -2500.4224
   -122099.40049    -92306.35247  22030434.6334   22030432.8164
       821.4064
 04  9  2 21  2 30.0000000  0  8G 1G 3G 8G13G16G20G23G27
    568958.78348    410305.51544  23340101.0164   23340100.4344
     -3670.5784
   -168053.16547   -126584.72344  23473096.2194   23473095.2854
      1012.4064
   -314105.59547   -233267.77743  23868372.3204   23868371.0704
      1965.6094
    -15599.38349    -15362.69048  20381435.1804   20381431.6954
        38.9694
    572903.99948    416562.39744  23026463.1804   23026461.4924
     -3714.9534
    720550.74347    522012.88443  23811122.7424   23811122.2544
     -4643.7034
    384468.69149    276139.27548  20823468.6254   20823462.9924
     -2513.8124
   -134345.51649   -101848.75947  22028104.5234   22028102.5394
       811.4694
 04  9  2 21  2 45.0000000  0  8G 1G 3G 8G13G16G20G23G27
    624099.18848    453272.02644  23350593.2424   23350593.3794
     -3682.0314
   -183137.08847   -138338.39144  23470225.8524   23470224.9964
       998.2194
   -343518.31346   -256186.76143  23862774.7424   23862774.3984
      1955.5634
    -16081.90349    -15738.67248  20381343.7664   20381340.0434
        24.8134
    628723.09348    460057.76944  23037086.2424   23037083.0984
     -3728.2034
    790273.19747    576341.98843  23824390.4614   23824390.1844
     -4653.2194
    422279.18549    305601.97448  20830663.4614   20830658.1884
     -2528.1724
   -146441.11549   -111273.88947  22025802.5004   22025800.2234
       800.6884
 04  9  2 21  3  0.0000000  0  8G 1G 3G 8G13G16G20G23G27
    679402.74648    496365.67344  23361117.4844   23361117.0434
     -3692.0784
   -198018.35047   -149934.15144  23467393.6804   23467393.5204
       985.5634
   -372789.50947   -278995.44043  23857204.8594   23857204.1954
      1946.9844
    -16361.97749    -15956.90348  20381290.5864   20381286.9414
        12.1564
    684733.15347    503701.96244  23047743.6954   23047741.4804
     -3740.2034
    860128.88848    630774.91343  23837684.2894   23837682.9264
     -4661.2194
    460295.85549    335225.35448  20837897.9534   20837892.4384
     -2541.0784
   -158383.27649   -120579.45647  22023530.1564   22023527.8674
       791.2664
 04  9  2 21  3 15.0000000  0  8G 1G 3G 8G13G16G20G23G27
    734857.47247    539577.13044  23371669.5394   23371669.4694
     -3702.0944
   -212708.49047   -161380.98643  23464597.8364   23464597.3794
       972.9844
   -401930.99047   -301703.05343  23851659.3834   23851658.8914
      1938.4534
    -16451.51749    -16026.67948  20381273.2664   20381269.8754
        -0.3594
    740921.87347    547485.34044  23058437.3204   23058434.2384
     -3751.7974
    930105.64948    685302.18143  23851000.1094   23850999.7464
     -4669.0784
    498506.79049    365000.08948  20845169.4534   20845163.9654
     -2553.8284
   -170183.90749   -129774.73547  22021284.5084   22021282.0784
       781.9844
 04  9  2 21  3 30.0000000  0  8G 1G 3G 8G13G16G20G23G27
    790465.97948    582908.36444  23382252.2814   23382251.4494
     -3712.3754
   -227204.44347   -172676.48143  23461839.5084   23461839.2154
       959.8594
   -430939.86546   -324307.35443  23846139.7584   23846138.2234
      1929.4384
    -16347.54749    -15945.66848  20381293.0864   20381289.6134
       -13.4534
    797291.66948    591409.83244  23069163.6564   23069160.5824
     -3764.0164
   1000205.83048    739925.60143  23864339.9924   23864339.3134
     -4677.5004
    536914.77149    394928.37748  20852478.2664   20852472.9614
     -2567.1724
   -181840.28249   -138857.61747  22019066.2504   22019063.9264
       772.2194
 04  9  2 21  3 45.0000000  0  8G 1G 3G 8G13G16G20G23G27
    846223.49648    626355.75043  23392862.2974   23392861.6564
     -3721.8594
   -241510.42148   -183823.93643  23459117.5554   23459116.5394
       947.7034
   -459820.59647   -346811.76243  23840643.1644   23840643.1254
      1921.2974
    -16054.50449    -15717.31748  20381348.9454   20381345.0554
       -25.5784
    853837.47948    635471.50344  23079924.2114   23079921.1764
     -3775.3594
   1070424.25447    794641.16343  23877701.7344   23877701.9344
     -4684.8914
    575514.99649    425006.46348  20859823.8674   20859818.0434
     -2579.4224
   -193357.13049   -147831.76347  22016874.8914   22016872.3594
       763.3754
 04  9  2 21  4  0.0000000  0  8G 1G 3G 8G13G16G20G23G27
    902122.37248    669913.26944  23403499.5634   23403499.4534
     -3731.0624
   -255633.79747   -194829.13943  23456428.9454   23456428.7894
       935.5944
   -488580.93147   -369222.38443  23835170.3444   23835170.6884
      1913.5474
    -15579.81749    -15347.43348  20381439.2274   20381435.5784
       -37.5004
    910551.44448    679664.17444  23090715.4774   23090713.7774
     -3786.2974
   1140753.10648    849442.79343  23891085.3674   23891085.8204
     -4692.0164
    614299.93749    455228.48648  20867204.1804   20867198.7854
     -2591.6094
   -204742.14949   -156703.19747  22014708.4384   22014705.9654
       754.8134
 04  9  2 21  4 15.0000000  0  8G 1G 3G 8G13G16G20G23G27
    958161.61048    713580.15943  23414163.2504   23414163.6334
     -3740.7344
   -269575.01347   -205692.39643  23453776.2504   23453776.0354
       923.2814
   -517221.60447   -391539.78443  23829720.6804   23829720.3094
      1905.3594
    -14924.26249    -14836.60648  20381564.0164   20381560.4144
       -49.8284
    967432.35948    723986.96044  23101540.1254   23101536.9654
     -3797.7034
   1211191.16747    904329.51843  23904488.8134   23904488.7544
     -4699.6254
    653268.63849    485593.68848  20874619.6334   20874614.4964
     -2604.1094
   -215996.00149   -165472.42247  22012566.6414   22012564.2974
       745.7974
 04  9  2 21  4 30.0000000  0  8G 1G 3G 8G13G16G20G23G27
   1014340.18448    757355.65943  23424853.9924   23424854.0744
     -3749.5314
   -283334.70547   -216414.20243  23451157.6024   23451157.9264
       911.6094
   -545743.66246   -413764.71443  23824292.8134   23824292.3134
      1897.7974
    -14088.61649    -14185.45948  20381723.1174   20381719.5124
       -61.4534
   1024478.88048    768438.75944  23112396.1254   23112393.4574
     -3808.3284
   1281737.13647    959300.29543  23917913.4384   23917914.1994
     -4706.2814
    692420.15549    516101.34948  20882070.2194   20882065.0434
     -2615.8594
   -227119.80649   -174140.30147  22010449.7504   22010448.1484
       737.5944
 04  9  2 21  4 45.0000000  0  8G 1G 3G 8G13G16G20G23G27
   1070653.92648    801236.47143  23435570.0234   23435570.1024
     -3758.3914
   -296916.73847   -226997.54043  23448573.2114   23448573.7854
       899.9844
   -574151.00246   -435900.28243  23818886.8054   23818887.0864
      1890.3594
    -13076.85149    -13397.05348  20381915.4694   20381911.7974
       -72.9064
   1081686.58148    813016.17844  23123281.4694   23123279.4774
     -3818.8124
   1352386.45747   1014351.63343  23931357.6954   23931358.2504
     -4712.9694
    731750.25349    546748.16548  20889554.0234   20889548.9614
     -2627.5784
   -238117.73749   -182710.10947  22008357.0944   22008354.4184
       729.3914
 04  9  2 21  5  0.0000000  0  8G 1G 3G 8G13G16G20G23G27
   1127096.58848    845217.72143  23446310.4694   23446310.4694
     -3767.0004
   -310326.79547   -237446.92343  23446021.7814   23446021.9654
       888.4694
   -602449.76746   -457951.22443  23813502.0084   23813501.6994
      1883.0784
    -11894.70849    -12475.90548  20382140.0554   20382136.8324
       -84.3124
   1139049.08048    857714.22144  23134197.7114   23134195.4694
     -3829.2034
   1423132.83247   1069478.55943  23944819.4064   23944820.7664
     -4719.4844
    771252.83949    577529.39648  20897071.5784   20897065.4774
     -2639.1254
   -248995.87649   -191186.57247  22006286.9614   22006284.7464
       721.4534
 04  9  2 21  5 15.0000000  0  8G 1G 3G 8G13G16G20G23G27
   1183664.23648    889296.33343  23457075.1564   23457075.5474
     -3775.4064
   -323568.49647   -247765.07443  23443501.5164   23443501.5664
       877.0634
   -630643.91446   -479920.67443  23808136.7194   23808136.2734
      1875.9384
    -10545.94949    -11424.91548  20382397.6024   20382393.7734
       -95.5624
   1196562.14348    902529.56944  23145141.6174   23145140.1294
     -3839.3124
   1493971.90547   1124677.75343  23958300.7424   23958301.0084
     -4725.8444
    810924.03049    608442.00948  20904620.6414   20904614.6454
     -2650.4694
   -259758.09149   -199572.70847  22004239.1564   22004236.9064
       713.5314
 04  9  2 21  5 30.0000000  0  8G 1G 3G 8G13G16G20G23G27
   1240352.10248    933468.64343  23467862.7664   23467862.2424
     -3783.0004
   -336646.20947   -257955.46943  23441013.0864   23441012.9614
       866.5474
   -658738.12946   -501812.22644  23802790.3834   23802790.4304
      1869.8914
     -9035.18049    -10247.69148  20382684.4384   20382681.0124
      -105.9534
   1254220.76148    947458.35144  23156114.6414   23156111.6644
     -3848.5474
   1564898.59147   1179945.22843  23971797.7504   23971797.5704
     -4731.1564
    850758.92749    639482.17348  20912201.0864   20912195.3204
     -2660.9534
   -270409.18049   -207872.24347  22002212.5394   22002209.6604
       706.6254
 04  9  2 21  5 45.0000000  0  8G 1G 3G 8G13G16G20G23G27
   1297156.39248    977731.69344  23478672.8524   23478672.6094
     -3791.2504
   -349563.27547   -268020.69443  23438554.9224   23438554.5004
       855.4064
   -686735.74946   -523628.52644  23797462.5474   23797462.3874
      1862.8444
     -7365.93849     -8946.98148  20383002.2974   20382998.6804
      -116.9374
   1312020.98348    992497.46644  23167113.0784   23167111.1804
     -3858.4694
   1635908.97947   1235277.89143  23985310.4774   23985310.6094
     -4737.1874
    890753.94749    670647.10848  20919811.5234   20919805.9964
     -2672.0624
   -280952.75049   -216088.00747  22000205.3984   22000203.5124
       698.8754
 04  9  2 21  6  0.0000000  0  8G 1G 3G 8G13G16G20G23G27
   1354078.31548   1022086.36844  23489504.1884   23489504.5004
     -3798.7194
   -362318.00847   -277959.40743  23436127.7974   23436128.4144
       844.8754
   -714635.56946   -545368.62143  23792153.6954   23792153.5664
      1856.7664
     -5536.63949     -7521.55348  20383350.6174   20383346.6484
      -127.2974
   1369963.63748   1037647.55344  23178139.1564   23178137.2704
     -3867.5314
   1707003.89147   1290676.43843  23998838.7584   23998839.8244
     -4742.4534
    930910.35249    701937.79948  20927453.4384   20927448.0274
     -2682.4694
   -291387.62149   -224219.05147  21998220.3834   21998218.0234
       692.0944
 04  9  2 21  6 15.0000000  0  8G 1G 3G 8G13G16G20G23G27
   1411111.14148   1066527.48243  23500356.6024   23500357.2034
     -3805.7034
   -374916.73047   -287776.54343  23433730.2664   23433729.8204
       834.8754
   -742444.26647   -567037.71743  23786862.2734   23786861.2074
      1851.0164
     -3553.85549     -5976.52448  20383727.7274   20383723.9344
      -137.1724
   1428041.81248   1082903.27544  23189190.9694   23189188.6214
     -3876.1564
   1778176.48747   1346135.51642  24012383.1414   24012383.6484
     -4747.1724
    971221.48449    733349.05348  20935123.9614   20935118.6724
     -2692.3594
   -301720.39349   -232270.55847  21996253.8204   21996251.7664
       685.6884
 04  9  2 21  6 30.0000000  0  8G 1G 3G 8G13G16G20G23G27
   1468250.78047   1111051.83643  23511229.8134   23511230.5664
     -3812.7814
   -387363.08047   -297474.96543  23431361.5474   23431361.1334
       824.7194
   -770165.81147   -588638.87544  23781586.8444   23781585.8634
      1845.2814
     -1421.27849     -4314.75948  20384133.7114   20384129.9844
      -147.0944
   1486251.32348   1128261.31344  23200267.8594   23200266.0634
     -3884.9374
   1849422.44247   1401651.75243  24025940.7584   24025940.9774
     -4752.0164
   1011683.37549    764877.79048  20942823.8674   20942818.5314
     -2702.4224
   -311955.02149   -240245.57447  21994306.2584   21994304.0004
       679.0944
 04  9  2 21  6 45.0000000  0  8G 1G 3G 8G13G16G20G23G27
   1525499.71347   1155661.31044  23522124.4144   23522124.8204
     -3820.4844
   -399654.25646   -307052.46443  23429022.9774   23429022.0354
       813.9694
   -797797.56846   -610170.07944  23776328.5864   23776327.7194
      1838.7974
       863.77249     -2534.20248  20384568.0944   20384565.1994
      -157.5944
   1544594.26048   1173723.30744  23211370.5164   23211368.3404
     -3894.1724
   1920743.90147   1457226.82443  24039513.5634   24039513.4064
     -4757.5004
   1052298.45749    796525.90348  20950552.9454   20950547.6564
     -2713.0164
   -322089.11449   -248142.25547  21992377.3524   21992375.1844
       672.0314
 04  9  2 21  7  0.0000000  0  8G 1G 3G 8G13G16G20G23G27
   1582850.25448   1200349.99644  23533038.1024   23533038.1804
     -3826.1874
   -411797.46047   -316514.66143  23426712.2664   23426711.7424
       805.1094
   -825347.07047   -631637.19644  23771085.7664   23771084.9734
      1834.4534
      3293.87549      -640.61848  20385030.6484   20385027.3324
      -166.3284
   1603062.77848   1219283.18744  23222496.3984   23222493.6094
     -3901.5164
   1992133.00846   1512854.59942  24053097.3754   24053098.1134
     -4760.9844
   1093059.10249    828287.42248  20958308.8524   20958304.0394
     -2721.7344
   -332130.08549   -255966.37647  21990466.8914   21990464.2274
       666.7974
 04  9  2 21  7 15.0000000  0  8G 1G 3G 8G13G16G20G23G27
   1640299.18748   1245115.33343  23543970.2584   23543970.0434
     -3833.2814
   -423795.53747   -325863.77143  23424429.6254   23424427.9534
       794.9844
   -852817.28247   -653042.52144  23765858.9304   23765857.7154
      1828.6564
      5866.18549      1363.78048  20385520.3364   20385516.8364
      -176.2974
   1661653.31448   1264938.13545  23233646.5394   23233644.2234
     -3910.1874
   2063586.07546   1568532.22943  24066694.9694   24066695.2704
     -4765.7344
   1133962.20249    860159.94548  20966092.5394   20966087.3714
     -2731.6874
   -342081.28249   -263720.54247  21988573.8204   21988570.9454
       660.3444
 04  9  2 21  7 30.0000000  0  8G 1G 3G 8G13G16G20G23G27
   1697848.66548   1289959.04644  23554921.3984   23554921.9304
     -3839.7194
   -435645.85147   -335097.76543  23422174.0704   23422172.9304
       785.3594
   -880205.98047   -674384.33644  23760646.8134   23760646.1414
      1823.4384
      8583.08349      3480.83748  20386037.4224   20386033.6994
      -185.7034
   1720367.93948   1310689.75144  23244818.7584   23244816.7344
     -3918.1724
   2135105.22846   1624261.33742  24080304.7424   24080304.5164
     -4769.8124
   1175009.93749    892145.19048  20973903.7424   20973898.8324
     -2741.0944
   -351940.20749   -271402.81747  21986697.3134   21986695.3054
       654.4534
 04  9  2 21  7 45.0000000  0  8G 1G 3G 8G13G16G20G23G27
   1755497.83348   1334880.43444  23565891.2584   23565892.4614
     -3846.8914
   -447348.86147   -344216.95043  23419946.5634   23419946.7274
       774.9064
   -907513.81447   -695663.13144  23755450.8204   23755449.4924
      1817.5474
     11443.81649      5709.98848  20386581.9304   20386577.9654
      -195.7814
   1779205.50048   1356537.22544  23256015.7894   23256012.6374
     -3926.8914
   2206689.31247   1680041.04043  24093927.2274   24093927.0434
     -4774.6094
   1216201.57749    924242.56248  20981742.1174   20981737.3134
     -2751.2034
   -361707.88649   -279013.97747  21984838.8284   21984836.4344
       647.8914
 04  9  2 21  8  0.0000000  0  8G 1G 3G 8G13G16G20G23G27
   1813246.39948   1379879.24343  23576880.5554   23576881.6454
     -3852.7664
   -458904.50947   -353221.29243  23417747.8284   23417746.9304
       765.9694
   -934741.02647   -716879.11144  23750269.9224   23750268.0944
      1813.0004
     14448.46549      8051.27248  20387153.3674   20387150.4694
      -204.6094
   1838165.48648   1402480.04144  23267235.1644   23267232.7464
     -3934.2194
   2278337.73946   1735870.88943  24107561.1254   24107561.6844
     -4778.2504
   1257536.84249    956451.85448  20989608.0394   20989603.0434
     -2759.9064
   -371384.42649   -286554.12047  21982996.8674   21982994.7704
       642.6094
 04  9  2 21  8 15.0000000  0  8G 1G 3G 8G13G16G20G23G27
   1871085.34748   1424948.49344  23587887.5864   23587887.6954
     -3859.0944
   -470321.24547   -362117.44443  23415575.0704   23415574.0744
       756.4384
   -961896.22946   -738038.98644  23745101.5944   23745100.3794
      1807.7034
     17588.41349     10497.98348  20387751.0314   20387747.8324
      -213.9534
   1897238.59748   1448511.02144  23278476.9064   23278473.8914
     -3942.1094
   2350041.24447   1791743.65743  24121206.2584   24121206.2774
     -4782.1724
   1299006.76549    988766.06448  20997499.6954   20997494.4924
     -2769.2974
   -380978.77049   -294030.22147  21981171.7274   21981168.9804
       636.7344
 04  9  2 21  8 30.0000000  0  8G 1G 3G 8G13G16G20G23G27
   1929012.36848   1470086.41944  23598911.3284   23598910.9654
     -3864.5164
   -481601.21747   -370906.96143  23413428.7974   23413428.3914
       747.5474
   -988981.97947   -759144.73644  23739947.6174   23739946.6644
      1803.5784
     20861.56349     13048.50048  20388373.6254   20388369.9534
      -222.4844
   1956422.32248   1494628.19544  23289738.1954   23289736.8554
     -3949.0944
   2421797.20547   1847657.31343  24134861.2974   24134860.7034
     -4785.2194
   1340609.03049   1021183.40248  21005416.3754   21005411.0594
     -2777.7194
   -390493.24449   -301444.07947  21979360.8284   21979358.4264
       631.8284
 04  9  2 21  8 45.0000000  0  8G 1G 3G 8G13G16G20G23G27
   1987032.11148   1515296.55444  23609951.8364   23609951.6914
     -3870.8124
   -492739.20247   -379585.86243  23411309.3134   23411308.7154
       738.0474
  -1015993.34347   -780192.51544  23734806.7274   23734806.2344
      1798.5474
     24272.72749     15706.55148  20389022.8834   20389019.6644
      -231.7814
   2015721.07348   1540834.99544  23301023.3524   23301020.8134
     -3956.7664
   2493610.18846   1903615.38143  24148526.7114   24148526.7664
     -4789.1094
   1382348.37049   1053707.55848  21013359.4384   21013353.8554
     -2787.0164
   -399923.00249   -308791.92447  21977566.6334   21977564.1604
       626.0474
 04  9  2 21  9  0.0000000  0  8G 1G 3G 8G13G16G20G23G27
   2045140.05248   1560575.43244  23621009.1254   23621010.0394
     -3876.3754
   -503739.29548   -388157.30344  23409216.5554   23409216.2274
       729.1254
  -1042934.81947   -801185.84343  23729679.8984   23729679.3674
      1794.2034
     27817.53049     18468.73748  20389697.1564   20389694.0514
      -240.4374
   2075130.02048   1587127.67444  23312327.9224   23312325.7234
     -3963.7974
   2565475.34246   1959614.09443  24162201.3204   24162202.4694
     -4792.3914
   1424220.19649   1086334.94048  21021327.0394   21021321.0354
     -2795.4374
   -409272.65749   -316077.36747  21975787.3674   21975785.2194
       621.0164
 04  9  2 21  9 15.0000000  0  8G 1G 3G 8G13G16G20G23G27
   2103330.39848   1605918.50044  23632083.4774   23632083.4774
     -3882.1564
   -514606.85147   -396625.49144  23407148.2584   23407147.9224
       720.0474
  -1069811.86647   -822128.97744  23724565.7344   23724565.2894
      1789.5004
     31490.70649     21330.95348  20390396.3754   20390392.8524
      -249.2664
   2134643.30548   1633501.63544  23323652.8444   23323651.0314
     -3971.2034
   2637386.62046   2015648.76743  24175886.2734   24175886.6604
     -4795.6414
   1466218.96949   1119061.24848  21029319.2734   21029313.6174
     -2804.2344
   -418547.76849   -323304.70847  21974022.3524   21974019.7704
       615.7504
 04  9  2 21  9 30.0000000  0  8G 1G 3G 8G13G16G20G23G27
   2161607.01648   1651328.81944  23643171.7504   23643173.4734
     -3888.0164
   -525337.59147   -404987.07844  23405105.7974   23405105.4774
       710.7344
  -1096620.56647   -843018.84544  23719463.8524   23719463.1764
      1784.7814
     35296.32649     24296.38048  20391120.5784   20391117.1724
      -258.2974
   2194264.44148   1679959.64544  23334999.5234   23334996.7424
     -3978.4064
   2709347.56346   2071722.11743  24189579.4454   24189580.8554
     -4799.1414
   1508348.57249   1151889.49248  21037336.1254   21037330.5554
     -2813.1094
   -427744.41549   -330470.91847  21972272.1564   21972270.1414
       610.3134
 04  9  2 21  9 45.0000000  0  8G 1G 3G 8G13G16G20G23G27
   2219967.18947   1696804.23143  23654277.6174   23654278.1644
     -3893.0944
   -535933.79847   -413243.80943  23403089.5474   23403089.2154
       702.3594
  -1123363.52747   -863857.48044  23714374.7584   23714374.2734
      1781.0314
     39231.84549     27363.01748  20391869.5394   20391865.9694
      -266.3444
   2253990.52448   1726499.41844  23346363.9534   23346362.7734
     -3984.8754
   2781355.29146   2127831.96243  24203282.8284   24203283.0164
     -4801.7344
   1550606.21249   1184817.50448  21045377.5864   21045372.1334
     -2821.0944
   -436865.28849   -337578.06547  21970536.4844   21970534.5434
       605.8594
 04  9  2 21 10  0.0000000  0  8G 1G 3G 8G13G16G20G23G27
   2278407.28748   1742341.94343  23665397.8984   23665399.7074
     -3898.5164
   -546398.84547   -421398.31943  23401098.0864   23401097.4774
       693.3754
  -1150044.20347   -884647.60144  23709298.1174   23709297.4614
      1776.7034
     43294.00949     30528.34348  20392642.3444   20392639.0164
      -274.8754
   2313817.61448   1773117.92744  23357749.4384   23357746.7504
     -3991.7344
   2853405.90046   2183975.18943  24216992.5314   24216994.4844
     -4804.7034
   1592988.41449   1217842.59548  21053442.7504   21053437.4924
     -2829.5004
   -445913.91149   -344628.92747  21968814.9924   21968812.7544
       600.9064
 04  9  2 21 10 15.0000000  0  8G 1G 3G 8G13G16G20G23G27
   2336927.89247   1787942.34643  23676534.1094   23676535.5634
     -3904.0314
   -556731.63947   -429449.81043  23399131.1334   23399130.8204
       684.4064
  -1176661.85947   -905388.61344  23704232.5704   23704232.3094
      1772.4384
     47483.67149     33793.02048  20393439.4454   20393436.5744
      -283.5164
   2373746.09848   1819815.44544  23369152.9144   23369151.3324
     -3998.6094
   2925499.75146   2240152.09943  24230713.0554   24230713.6884
     -4807.6874
   1635495.82749   1250965.23748  21061531.7114   21061526.0784
     -2838.0004
   -454889.61349   -351622.97147  21967106.4454   21967103.8834
       595.9694
 04  9  2 21 10 30.0000000  0  8G 1G 3G 8G13G16G20G23G27
   2395527.30447   1833604.20343  23687685.6724   23687686.1724
     -3909.2194
   -566933.47347   -437399.28943  23397190.1254   23397189.3554
       675.6094
  -1203218.07047   -926081.75344  23699179.0474   23699178.3444
      1768.3444
     51799.28849     37155.84348  20394261.0864   20394257.8404
      -291.9064
   2433774.04848   1866590.43144  23380575.6484   23380573.8524
     -4005.1874
   2997634.74747   2296361.09743  24244439.6414   24244440.2814
     -4810.3444
   1678126.65749   1284184.06548  21069643.7504   21069638.1644
     -2846.2194
   -463794.17849   -358561.58247  21965412.1414   21965409.8954
       591.2344
 04  9  2 21 10 45.0000000  0  8G 1G 3G 8G13G16G20G23G27
   2454204.36747   1879326.53043  23698851.8364   23698851.8754
     -3914.4534
   -577005.25847   -445247.39944  23395273.6024   23395272.9494
       667.0634
  -1229713.91947   -946727.84744  23694136.7974   23694136.2854
      1764.3754
     56239.95649     40616.09648  20395106.2034   20395102.7544
      -300.2344
   2493899.96648   1913441.79344  23392017.6484   23392015.1524
     -4011.7504
   3069809.53646   2352601.05843  24258174.3594   24258175.0274
     -4813.0314
   1720879.79949   1317498.17948  21077779.7274   21077774.2274
     -2854.3444
   -472628.71449   -365445.62647  21963730.5784   21963728.4454
       586.5314
 04  9  2 21 11  0.0000000  0  8G 1G 3G 8G13G16G20G23G27
   2512954.71247   1925105.97343  23710032.0394   23710032.7194
     -3919.2034
   -586950.84147   -452997.13443  23393381.7194   23393380.7344
       658.6724
  -1256153.68847   -967330.22044  23689105.5704   23689105.5124
      1760.6724
     60801.60349     44170.62548  20395974.1954   20395970.5904
      -308.1874
   2554119.40848   1960366.03544  23403477.0554   23403474.7504
     -4017.7814
   3142019.59647   2408868.53543  24271915.3674   24271916.0474
     -4815.2194
   1763750.95449   1350904.26148  21085937.8284   21085932.1764
     -2862.0624
   -481397.26649   -372278.23547  21962062.0784   21962060.0634
       582.3444
 04  9  2 21 11 15.0000000  0  8G 1G 3G 8G13G16G20G23G27
   2571779.66346   1970943.56743  23721224.9844   23721226.4064
     -3924.0314
   -596768.38447   -460647.16343  23391512.5864   23391512.1884
       650.4224
  -1282535.69248   -987887.62444  23684085.3524   23684085.1094
      1757.0314
     65485.87649     47820.72248  20396865.7114   20396861.7344
      -316.2344
   2614433.43248   2007363.93144  23414954.5944   23414952.5084
     -4023.9374
   3214265.96547   2465164.29942  24285663.1954   24285664.4304
     -4817.5314
   1806741.57749   1384403.43948  21094118.8984   21094113.2074
     -2869.8594
   -490098.60449   -379058.49247  21960406.5394   21960404.0784
       578.0004
 04  9  2 21 11 30.0000000  0  8G 1G 3G 8G13G16G20G23G27
   2630677.78347   2016838.14743  23732433.8364   23732434.1214
     -3929.1094
   -606458.97647   -468198.25143  23389668.9614   23389667.9804
       641.6564
  -1308861.31148  -1008401.04144  23679076.1414   23679074.8954
      1753.1094
     70291.69449     51565.52748  20397780.0394   20397776.5824
      -324.6094
   2674840.30348   2054434.21044  23426449.7114   23426447.4414
     -4030.4224
   3286546.97147   2521487.08742  24299418.7814   24299418.6884
     -4820.0474
   1849850.26549   1417994.60948  21102321.9614   21102316.6214
     -2877.9694
   -498733.99849   -385787.36647  21958763.2504   21958761.1024
       573.3284
 04  9  2 21 11 45.0000000  0  8G 1G 3G 8G13G16G20G23G27
   2689648.47147   2062789.25843  23743655.6884   23743656.0704
     -3933.8754
   -616022.92748   -475650.63843  23387849.0234   23387847.7504
       633.3134
  -1335131.16148  -1028871.05344  23674076.7194   23674076.2584
      1749.4384
     75218.50149     55404.58348  20398717.3754   20398713.8014
      -332.4694
   2735339.18648   2101576.20444  23437961.8364   23437959.6994
     -4036.3914
   3358861.64747   2577836.09643  24313179.6564   24313180.1254
     -4822.0784
   1893076.48749   1451677.37248  21110548.0234   21110542.8244
     -2885.7194
   -507304.06049   -392465.31047  21957132.1254   21957129.8914
       569.1254
 04  9  2 21 12  0.0000000  0  8G 1G 3G 8G13G16G20G23G27
   2748688.93547   2108794.74943  23754890.4614   23754891.7854
     -3938.3444
   -625462.40647   -483006.05243  23386052.9924   23386051.3204
       625.2344
  -1361347.85248  -1049299.59943  23669088.4384   23669087.0554
      1746.1254
     80263.86949     59336.04748  20399677.4144   20399673.8594
      -340.2664
   2795927.32048   2148787.71944  23449492.4774   23449488.9414
     -4042.0474
   3431207.07047   2634209.01542  24326946.7344   24326947.3874
     -4823.9534
   1936417.46349   1485449.54148  21118795.5554   21118789.6804
     -2893.1254
   -515811.38249   -399094.39247  21955513.4224   21955510.8484
       565.2034
 04  9  2 21 12 15.0000000  0  8G 1G 3G 8G13G16G20G23G27
   2807800.98746   2154856.04043  23766140.1174   23766139.8794
     -3943.5474
   -634775.23747   -490262.77043  23384280.3364   23384279.3284
       616.2504
  -1387509.14748  -1069685.01044  23664109.4304   23664108.8404
      1741.8134
     85429.94749     63361.56448  20400660.7114   20400656.7934
      -348.8594
   2856606.01648   2196069.79444  23461038.3914   23461036.0004
     -4048.5784
   3503584.86447   2690607.17942  24340719.2974   24340720.1804
     -4826.6724
   1979875.08649   1519312.61048  21127065.2034   21127059.7854
     -2901.4064
   -524254.08148   -405673.10447  21953906.6254   21953904.2774
       560.2814
 04  9  2 21 12 30.0000000  0  8G 1G 3G 8G13G16G20G23G27
   2866984.45847   2200973.00343  23777401.5164   23777402.2974
     -3948.3284
   -643961.31647   -497420.71943  23382532.5394   23382531.2274
       607.8754
  -1413615.22248  -1090027.38444  23659140.8834   23659140.9344
      1738.2814
     90716.80149     67481.20348  20401667.0474   20401662.6764
      -356.8284
   2917374.92448   2243422.14344  23472602.1724   23472600.2464
     -4054.5624
   3575994.53047   2747030.21342  24354497.8984   24354498.7934
     -4828.6564
   2023449.18949   1553266.45048  21135356.7194   21135351.3204
     -2909.0784
   -532632.35749   -412201.62447  21952312.7424   21952310.1644
       556.1254
 04  9  2 21 12 45.0000000  0  7G 1G 3G 8G13G16G23G27
   2926237.76147   2247144.33944  23788677.5084   23788678.0594
     -3952.5474
   -653021.71547   -504480.73643  23380808.3054   23380806.0554
       599.7814
  -1439667.56048  -1110327.87744  23654184.7584   23654182.9574
      1735.0004
     96123.17749     71693.96248  20402695.5314   20402692.0514
      -364.4534
   2978232.33648   2290843.51244  23484183.4384   23484180.5944
     -4060.1724
   2067138.24949   1587309.85748  21143670.4694   21143665.3754
     -2916.4534
   -540947.55149   -418680.97947  21950729.9064   21950727.9654
       552.2034
 04  9  2 21 13  0.0000000  0  7G 1G 3G 8G13G16G23G27
   2985558.12948   2293367.95444  23799965.7424   23799965.8284
     -3956.6414
   -661958.88548   -511444.73043  23379107.3754   23379106.3364
       592.0634
  -1465668.73947  -1130588.53044  23649236.6724   23649235.9574
      1732.0004
    101646.45749     75997.82348  20403746.4924   20403743.1414
      -371.7814
   3039175.18248   2338331.44544  23495780.4614   23495778.1414
     -4065.3914
   2110939.53749   1621440.73248  21152005.7344   21152000.0124
     -2923.5474
   -549202.38549   -425113.30647  21949159.2424   21949156.7624
       548.6254
 04  9  2 21 13 15.0000000  0  7G 1G 3G 8G13G16G23G27
   3044942.98046   2339641.79343  23811266.3204   23811266.4694
     -3961.3124
   -670774.93948   -518314.38244  23377429.3754   23377429.1564
       583.4534
  -1491621.19048  -1150811.18644  23644297.8594   23644296.4304
      1728.3594
    107284.42049     80391.04048  20404819.3984   20404815.9734
      -379.8594
   3100200.65448   2385883.71244  23507393.3524   23507391.4384
     -4071.2974
   2154850.52049   1655657.06348  21160361.4774   21160356.0274
     -2931.2194
   -557399.48749   -431500.64147  21947599.1954   21947596.7504
       544.3134
 04  9  2 21 13 30.0000000  0  7G 1G 3G 8G13G16G23G27
   3104391.68447   2385965.37544  23822578.4694   23822579.3794
     -3965.2814
   -679470.09748   -525089.79344  23375775.2034   23375774.3014
       575.7664
  -1517525.31248  -1170996.18944  23639368.5234   23639367.1294
      1725.4534
    113036.74249     84873.38048  20405914.0084   20405910.4344
      -387.2194
   3161307.99748   2433499.81544  23519021.7974   23519018.9964
     -4076.4374
   2198870.71349   1689958.50448  21168738.1724   21168732.8444
     -2938.2034
   -565539.25449   -437843.31547  21946050.0234   21946048.2774
       540.8134
 04  9  2 21 13 45.0000000  0  7G 1G 3G 8G13G16G23G27
   3163904.48947   2432338.94843  23833903.9614   23833903.9144
     -3969.7974
   -688043.66647   -531770.48544  23374143.9304   23374143.3794
       567.3914
  -1543380.83348  -1191143.31444  23634448.5784   23634447.2774
      1721.9384
    118903.89049     89445.17948  20407030.6564   20407026.9024
      -395.1254
   3222497.10748   2481179.63644  23530665.5634   23530662.9304
     -4082.1094
   2243000.26249   1724345.14848  21177136.1094   21177130.2234
     -2945.7664
   -573621.40849   -444141.08847  21944512.3204   21944510.3284
       536.7344
 04  9  2 21 14  0.0000000  0  7G 1G 3G 8G13G16G23G27
   3223485.47547   2478765.63644  23845241.8984   23845241.9494
     -3974.3124
   -696491.28548   -538352.99443  23372535.4304   23372535.1484
       558.9224
  -1569183.69548  -1211249.42244  23629538.1484   23629537.1174
      1718.3594
    124890.20249     94109.84348  20408169.8134   20408166.0354
      -403.1414
   3283771.88748   2528926.21044  23542325.3134   23542323.3554
     -4087.8754
   2287243.38649   1758820.28948  21185555.6094   21185549.6914
     -2953.3914
   -581641.84648   -450390.75947  21942985.8674   21942984.1524
       532.5944
 04  9  2 21 14 15.0000000  0  7G 1G 3G 8G13G16G23G27
   3283132.74947   2525243.95144  23856592.7814   23856592.2544
     -3978.5314
   -704814.38047   -544838.50043  23370951.4694   23370951.2974
       550.8914
  -1594935.49448  -1231315.73244  23624638.1024   23624636.7624
      1715.2194
    130994.00149     98866.04648  20409331.3284   20409327.5864
      -410.7194
   3345130.31548   2576737.93743  23554001.2894   23553999.1254
     -4093.2344
   2331598.29149   1793382.54148  21193995.5704   21193990.1094
     -2960.5784
   -589602.25849   -456593.67447  21941470.9454   21941468.7074
       528.7664
 04  9  2 21 14 30.0000000  0  7G 1G 3G 8G13G16G23G27
   3342842.28746   2571770.81343  23867955.2424   23867955.3834
     -3982.7034
   -713016.55547   -551229.77443  23369391.2344   23369390.0124
       542.8594
  -1620640.07648  -1251345.25644  23619746.4454   23619745.5784
      1712.0944
    137211.48849    103710.85048  20410514.1804   20410511.0744
      -418.2504
   3406567.90248   2624611.35943  23565692.5554   23565690.0124
     -4098.3444
   2376060.87849   1828028.70248  21202456.9144   21202451.4184
     -2967.7034
   -597506.75748   -462753.01947  21939967.1884   21939965.3134
       525.1414
 04  9  2 21 14 45.0000000  0  7G 1G 3G 8G13G16G23G27
   3402614.98146   2618346.89343  23879328.8834   23879329.3364
     -3986.8284
   -721096.31947   -557525.69544  23367853.7034   23367852.9774
       534.6884
  -1646296.55648  -1271337.29644  23614864.3524   23614863.2734
      1708.9694
    143544.08949    108645.34548  20411719.4064   20411715.8554
      -425.8914
   3468085.50348   2672547.14643  23577399.6174   23577396.9964
     -4103.6724
   2420632.15649   1862759.55048  21210938.2504   21210932.9694
     -2974.9064
   -605354.27149   -468867.95747  21938473.9144   21938471.8054
       521.4694
 04  9  2 21 15  0.0000000  0  7G 1G 3G 8G13G16G23G27
   3462447.60547   2664969.66343  23890714.5704   23890715.7624
     -3990.8914
   -729056.63547   -563728.51043  23366338.8444   23366338.2894
       526.7504
  -1671907.83148  -1291294.10144  23609990.2734   23609989.2664
      1705.9534
    149988.62949    113667.06648  20412945.9774   20412942.1054
      -433.3124
   3529679.75848   2720542.64143  23589119.8674   23589118.1684
     -4108.7974
   2465308.94949   1897572.62348  21219440.2194   21219434.5354
     -2981.9534
   -613147.89248   -474940.89747  21936990.5474   21936989.0274
       517.7974
 04  9  2 21 15 15.0000000  0  7G 1G 3G 8G13G16G23G27
   3522342.03847   2711640.60643  23902112.0944   23902112.8634
     -3994.9534
   -736895.12447   -569836.43744  23364847.5634   23364847.1334
       518.4384
  -1697471.77848  -1311214.03844  23605125.7584   23605124.6604
      1702.6254
    156547.33249    118777.74448  20414194.1884   20414190.4454
      -441.1414
   3591352.22148   2768599.08643  23600855.9844   23600854.4924
     -4114.1724
   2510093.23849   1932469.45448  21227962.0474   21227957.0824
     -2989.2344
   -620885.59448   -480970.26847  21935518.3984   21935516.0944
       513.8754
 04  9  2 21 15 30.0000000  0  7G 1G 3G 8G13G16G23G27
   3582300.13846   2758361.15443  23913520.7664   23913522.6334
     -3999.4534
   -744609.67147   -575847.70044  23363379.3914   23363378.4264
       510.0944
  -1722986.43647  -1331095.55844  23600270.0554   23600269.1254
      1699.2034
    163222.33949    123979.04948  20415464.3754   20415460.2504
      -448.9374
   3653104.50048   2816717.72343  23612606.7194   23612604.7974
     -4119.4534
   2554986.83949   1967451.47448  21236505.4844   21236500.3914
     -2996.5474
   -628565.48649   -486954.57847  21934056.9614   21934054.7624
       510.0164
 04  9  2 21 15 45.0000000  0  7G 1G 3G 8G13G16G23G27
   3642320.76347   2805130.42543  23924943.4844   23924944.8404
     -4003.4374
   -752200.97547   -581763.02243  23361935.0554   23361933.5314
       502.0634
  -1748452.86348  -1350939.49844  23595424.0004   23595423.7894
      1696.2664
    170012.76149    129270.29748  20416756.5234   20416752.5274
      -456.4534
   3714935.35348   2864897.57943  23624372.6484   23624370.7974
     -4124.5944
   2599988.72049   2002517.85348  21245068.4384   21245062.9494
     -3003.6724
   -636188.69548   -492894.74747  21932605.8134   21932604.3164
       506.3134
 04  9  2 21 16  0.0010000  0  7G 1G 3G 8G13G16G23G27
   3702407.08747   2851950.87742  23936376.8494   23936378.7004
     -4008.1254
   -759669.92848   -587582.96944  23360512.6614   23360512.5284
       493.1564
  -1773873.49748  -1370747.76544  23590587.6144   23590585.9384
      1692.4064
    176918.58149    134651.46048  20418070.2944   20418066.7634
      -464.8594
   3776847.71948   2913140.98543  23636154.6854   23636152.0994
     -4130.4374
   2645101.00849   2037670.27248  21253653.2944   21253648.1654
     -3011.5624
   -643756.38148   -498791.63547  21931165.8414   21931164.3294
       501.9844
 04  9  2 21 16 15.0010000  0  7G 1G 3G 8G13G16G23G27
   3762552.07546   2898817.05943  23947823.1534   23947822.9314
     -4012.0624
   -767014.23747   -593305.78044  23359115.5914   23359115.2044
       485.3134
  -1799243.58848  -1390516.65244  23585758.8174   23585757.9464
      1689.5634
    183940.02649    140122.71548  20419406.8724   20419402.6034
      -472.1564
   3838834.16848   2961442.05443  23647950.1224   23647948.4934
     -4135.2504
   2690318.67349   2072904.79748  21262258.0914   21262253.0324
     -3018.2664
   -651266.52449   -504643.68547  21929736.8804   21929735.0914
       498.5634
 04  9  2 21 16 30.0010000  0  7G 1G 3G 8G13G16G23G27
   3822763.47547   2945734.99743  23959280.1304   23959281.1304
     -4016.3914
   -774230.20748   -598928.60043  23357742.4274   23357741.5564
       476.7344
  -1824561.26948  -1410244.68244  23580941.5994   23580940.7084
      1686.0784
    191081.50449    145687.49848  20420765.5604   20420761.9704
      -480.1254
   3900902.43648   3009806.93943  23659761.8564   23659759.9274
     -4140.6414
   2735648.66249   2108226.85348  21270883.9814   21270878.3454
     -3025.7034
   -658715.74948   -510448.26547  21928319.2554   21928317.1264
       494.5784
 04  9  2 21 16 45.0010000  0  7G 1G 3G 8G13G16G23G27
   3883035.57946   2992700.18542  23970749.7944   23970750.5674
     -4020.1254
   -781323.22447   -604455.60244  23356392.8494   23356391.8604
       468.7974
  -1849832.01348  -1429936.13944  23576132.0364   23576131.9464
      1683.1884
    198337.51349    151341.53548  20422146.2714   20422142.7204
      -487.5474
   3963046.38448   3058230.78343  23671586.6384   23671584.7514
     -4145.3754
   2781085.19649   2143631.92148  21279530.3024   21279525.4354
     -3032.5474
   -666109.78349   -516209.84747  21926912.6064   21926910.2674
       491.1254
 04  9  2 21 17  0.0010000  0  7G 1G 3G 8G13G16G23G27
   3943366.60747   3039711.33142  23982231.1064   23982230.8804
     -4024.0944
   -788294.59948   -609887.82844  23355066.3104   23355065.9234
       460.7814
  -1875057.63148  -1449592.43944  23571332.1464   23571331.4544
      1680.2664
    205706.76549    157083.81548  20423548.4974   20423544.9704
      -495.0474
   4025264.14647   3106712.12643  23683426.9504   23683424.6924
     -4150.2504
   2826626.53949   2179118.67448  21288196.1854   21288190.8604
     -3039.5314
   -673450.31549   -521929.72347  21925515.5834   21925513.1734
       487.6094
 04  9  2 21 17 15.0010000  0  7G 1G 3G 8G13G16G23G27
   4003755.29346   3086767.41943  23993722.1774   23993723.1184
     -4028.1564
   -795145.15947   -615225.89044  23353762.6534   23353762.3644
       452.3284
  -1900239.04248  -1469214.28944  23566539.9894   23566539.5134
      1676.8914
    213188.23649    162913.53348  20424972.3174   20424968.4584
      -502.8754
   4087554.17348   3155249.78743  23695280.0914   23695278.4974
     -4155.5314
   2872271.66649   2214686.28448  21296882.5444   21296877.2434
     -3046.9064
   -680738.44749   -527608.78147  21924128.5834   21924126.0054
       483.7664
 04  9  2 21 17 30.0010000  0  7G 1G 3G 8G13G16G23G27
   4064204.03546   3133870.26743  24005226.0674   24005226.5284
     -4032.1564
   -801872.15547   -620467.69743  23352481.9744   23352482.2864
       444.1254
  -1925373.56848  -1488799.60444  23561757.5214   23561756.1734
      1673.8914
    220784.66049    168832.82848  20426417.7394   20426414.1654
      -510.4844
   4149918.63948   3203845.43943  23707147.7004   23707145.6534
     -4160.2664
   2918022.89749   2250336.59647  21305588.9114   21305583.3064
     -3053.8594
   -687971.60149   -533244.99547  21922751.9664   21922749.7204
       480.1254
 04  9  2 21 17 45.0010000  0  7G 1G 3G 8G13G16G23G27
   4124715.43947   3181021.95043  24016740.8724   24016741.7314
     -4036.1414
   -808472.72847   -625610.96043  23351226.1384   23351225.3964
       435.9224
  -1950458.59248  -1508346.35244  23556983.7634   23556982.9814
      1670.7664
    228498.69349    174843.76348  20427885.9894   20427882.1064
      -518.1254
   4212359.93648   3252500.97843  23719029.7634   23719027.8534
     -4165.2034
   2963882.79449   2286071.56448  21314315.6924   21314309.8254
     -3060.8124
   -695147.30949   -538836.43947  21921386.4814   21921384.1814
       476.6254
 04  9  2 21 18  0.0010000  0  7G 1G 3G 8G13G16G23G27
   4185288.56847   3228221.73443  24028267.0914   24028268.2434
     -4040.1564
   -814947.21748   -630655.96743  23349994.2004   23349993.3994
       427.5314
  -1975494.88648  -1527855.11644  23552219.6614   23552218.5564
      1667.5314
    236329.80349    180945.92348  20429376.0364   20429371.6734
      -525.9224
   4274876.98648   3301215.54143  23730926.7554   23730924.7124
     -4170.2974
   3009850.58249   2321890.60847  21323062.8494   21323057.0524
     -3068.0314
   -702266.11649   -544383.54447  21920032.0364   21920029.2824
       472.7814
 04  9  2 21 18 15.0010000  0  7G 1G 3G 8G13G16G23G27
   4245919.83247   3275466.80843  24039805.1144   24039805.8644
     -4044.0784
   -821298.73847   -635605.18644  23348785.8024   23348784.2944
       419.3134
  -2000485.84848  -1547328.56244  23547463.0674   23547462.7714
      1664.5944
    244274.54649    187136.63448  20430887.6854   20430884.5054
      -533.4694
   4337465.96948   3349986.15543  23742837.2244   23742834.6694
     -4174.9374
   3055922.73249   2357790.96548  21331830.1144   21331824.5324
     -3075.0164
   -709331.72649   -549889.21347  21918687.7004   21918685.5324
       469.2664
 04  9  2 21 18 30.0010000  0  7G 1G 3G 8G13G16G23G27
   4306612.52747   3322759.76843  24051355.4114   24051355.7744
     -4048.3914
   -827523.71448   -640455.79944  23347601.4894   23347600.3334
       410.6094
  -2025427.98748  -1566763.96144  23542716.9194   23542716.4074
      1661.0004
    252336.64749    193418.78648  20432422.0674   20432418.1184
      -541.5314
   4400129.95548   3398815.23343  23754761.1464   23754759.5244
     -4180.2034
   3102102.46049   2393775.15548  21340617.9194   21340612.4504
     -3082.3594
   -716340.67949   -555350.70747  21917353.9274   21917352.0714
       465.2814
 04  9  2 21 18 45.0010000  0  7G 1G 3G 8G13G16G23G27
   4367369.38146   3370102.69143  24062915.6694   24062916.8844
     -4052.4374
   -833619.03047   -645205.36944  23346441.1304   23346440.2864
       402.1254
  -2050318.34948  -1586159.00844  23537980.7784   23537979.7394
      1657.7344
    260518.95849    199794.62048  20433979.0994   20433975.5444
      -549.4224
   4462871.53748   3447704.73043  23766700.9744   23766698.5444
     -4185.2664
   3148392.52249   2429845.32847  21349426.6064   21349420.8884
     -3089.5944
   -723290.21948   -560765.92947  21916030.8254   21916029.2944
       461.3914
 04  9  2 21 19  0.0010000  0  7G 1G 3G 8G13G16G23G27
   4428185.82447   3417492.06343  24074490.0214   24074490.6034
     -4056.5164
   -839588.91947   -649857.18944  23345305.2714   23345303.8374
       393.7344
  -2075161.51148  -1605517.29844  23533253.7474   23533252.6694
      1654.6254
    268817.23449    206260.80948  20435558.2554   20435553.8884
      -557.1564
   4525685.79648   3496650.89943  23778653.9664   23778651.9784
     -4190.0944
   3194788.44749   2465997.98647  21358255.4744   21358249.8064
     -3096.6564
   -730184.83549   -566138.34047  21914719.3334   21914717.3844
       457.7194
 04  9  2 21 19 15.0010000  0  7G 1G 3G 8G13G16G23G27
   4489066.87046   3464931.80143  24086074.5524   24086075.4814
     -4060.7344
   -845427.95047   -654407.07144  23344193.4894   23344193.6774
       385.1254
  -2099952.46348  -1624834.88144  23528535.5364   23528534.8764
      1651.1254
    277236.81649    212821.51448  20437160.6064   20437156.7204
      -565.2194
   4588577.55748   3545657.45243  23790621.7474   23790620.0634
     -4195.2664
   3241295.25649   2502237.03048  21367105.4274   21367100.2354
     -3103.9844
   -737019.35949   -571463.92947  21913418.7714   21913416.3414
       453.7664
 04  9  2 21 19 30.0010000  0  7G 1G 3G 8G13G16G23G27
   4550004.37347   3512415.49043  24097670.9664   24097671.4664
     -4064.7034
   -851143.88547   -658861.01243  23343106.1304   23343105.5174
       376.6254
  -2124699.03648  -1644117.89444  23523825.6774   23523825.6104
      1647.8914
    285769.80249    219470.59448  20438784.3024   20438780.0444
      -573.0784
   4651538.46248   3594717.89443  23802602.6774   23802600.9704
     -4200.1874
   3287904.80249   2538556.14648  21375974.5444   21375970.1464
     -3111.1414
   -743801.89348   -576749.00548  21912127.9584   21912125.8564
       450.0474
 04  9  2 21 19 45.0010000  0  7G 1G 3G 8G13G16G23G27
   4611002.34947   3559946.36143  24109277.9354   24109278.8604
     -4068.6724
   -856732.28847   -663215.58343  23342042.3334   23342041.8414
       368.1254
  -2149397.03148  -1663363.03844  23519126.8724   23519126.1034
      1644.7814
    294420.42849    226211.35448  20440430.5524   20440426.5054
      -580.8284
   4714572.44448   3643835.24143  23814598.1854   23814595.4894
     -4204.9064
   3334621.35449   2574958.63647  21384864.5674   21384859.4154
     -3118.1724
   -750528.22149   -581990.29947  21910848.1224   21910845.9114
       446.4534
 04  9  2 21 20  0.0010000  0  7G 1G 3G 8G13G16G23G27
   4672063.16947   3607526.13143  24120897.4744   24120898.7554
     -4072.5004
   -862190.35247   -667468.59043  23341003.8414   23341002.8644
       359.7814
  -2174043.78248  -1682568.27444  23514436.5284   23514435.9034
      1641.6884
    303191.40149    233045.87448  20442099.3174   20442095.5874
      -588.4224
   4777681.64948   3693011.24243  23826607.4354   23826604.8804
     -4209.5624
   3381447.19549   2611446.29548  21393775.0134   21393770.7594
     -3125.0474
   -757195.95049   -587185.91547  21909579.3414   21909577.1534
       442.9064
 04  9  2 21 20 15.0010000  0  7G 1G 3G 8G13G16G23G27
   4733185.14548   3655153.58043  24132529.4744   24132530.2244
     -4076.8444
   -867519.39246   -671621.07243  23339989.2314   23339989.5634
       350.8754
  -2198641.00348  -1701734.90844  23509755.7714   23509754.6924
      1638.1564
    312081.22049    239973.01048  20443791.0914   20443786.8534
      -596.6414
   4840864.16048   3742244.32543  23838630.9194   23838628.5404
     -4214.6414
   3428380.63449   2648017.79347  21402706.2004   21402701.8494
     -3132.4374
   -763806.69748   -592337.14747  21908320.9894   21908318.6614
       438.8444
 04  9  2 21 20 30.0010000  0  7G 1G 3G 8G13G16G23G27
   4794363.87447   3702825.27843  24144170.4744   24144171.6494
     -4080.2034
   -872723.30147   -675676.02644  23338999.6144   23338998.4464
       342.8754
  -2223192.89348  -1720866.20044  23505083.7474   23505082.6574
      1635.4694
    321085.93449    246989.67648  20445504.5214   20445500.7434
      -603.9534
   4904115.27947   3791530.91643  23850666.5054   23850664.7824
     -4218.8444
   3475417.47449   2684669.85647  21411657.2474   21411652.2554
     -3139.0314
   -770364.64848   -597447.22347  21907073.6534   21907071.2354
       435.7034
 04  9  2 21 20 45.0010000  0  7G 1G 3G 8G13G16G23G27
   4855598.63248   3750540.61743  24155823.8564   24155824.5674
     -4084.2974
   -877802.61748   -679633.90044  23338033.4814   23338032.8214
       334.4534
  -2247699.98948  -1739962.60744  23500420.0284   23500418.8844
      1632.1724
    330204.90749    254095.35748  20447240.0284   20447236.1694
      -611.8914
   4967434.07648   3840870.21943  23862716.2394   23862713.5714
     -4223.7194
   3522556.81149   2721401.78248  21420627.8804   21420622.5284
     -3146.1564
   -776870.56248   -602516.74847  21905835.2244   21905833.0054
       431.8594
 04  9  2 21 21  0.0010000  0  7G 1G 3G 8G13G16G23G27
   4916892.95647   3798302.36243  24167488.0214   24167488.2284
     -4088.1724
   -882753.33148   -683491.55944  23337090.9194   23337090.0954
       325.8594
  -2272158.66048  -1759021.29644  23495765.2714   23495764.5914
      1628.9694
    339441.90149    261293.01348  20448998.0994   20448994.0244
      -619.7034
   5030823.80848   3890264.78643  23874778.3414   23874776.9314
     -4228.2814
   3569802.36349   2758216.49547  21429618.3254   21429613.2904
     -3153.1414
   -783320.76849   -607542.87247  21904607.9504   21904605.5244
       428.2344
 04  9  2 21 21 15.0010000  0  7G 1G 3G 8G13G16G23G27
   4978243.06247   3846107.61342  24179162.9274   24179162.6384
     -4091.8914
   -887578.73648   -687251.59644  23336172.5604   23336172.1964
       317.4224
  -2296572.68848  -1778045.17644  23491119.9814   23491118.6884
      1626.0784
    348793.49949    268579.96948  20450777.2864   20450773.1734
      -627.2344
   5094280.49247   3939711.54643  23886854.5054   23886852.2204
     -4232.7504
   3617150.34949   2795111.01847  21438628.3254   21438623.1184
     -3159.9534
   -789718.90548   -612528.42647  21903389.8724   21903387.3334
       424.7664
 04  9  2 21 21 30.0010000  0  7G 1G 3G 8G13G16G23G27
   5039654.12447   3893960.31542  24190847.9034   24190848.5094
     -4095.9844
   -892273.40848   -690909.74844  23335279.4194   23335278.8174
       308.6884
  -2320936.59648  -1797030.00244  23486483.4744   23486482.3104
      1622.6564
    358265.27549    275960.57348  20452579.6304   20452575.6924
      -635.3914
   5157809.24847   3989214.44343  23898943.6464   23898941.3254
     -4237.5004
   3664605.97249   2832089.41547  21447658.9034   21447653.1924
     -3167.2034
   -796059.81349   -617469.37747  21902183.5914   21902181.3214
       420.9064
 04  9  2 21 21 45.0010000  0  7G 1G 3G 8G13G16G23G27
   5101120.29047   3941855.93742  24202544.9814   24202545.6774
     -4099.7504
   -896842.67247   -694470.21044  23334409.8804   23334408.2634
       300.1414
  -2345255.98148  -1815980.14444  23481856.0054   23481854.7204
      1619.5784
    367851.38049    283430.26248  20454403.8104   20454400.0284
      -643.1094
   5221403.96348   4038768.72943  23911045.2554   23911043.4314
     -4242.0624
   3712163.34949   2869147.09548  21456709.1854   21456703.1574
     -3174.1094
   -802349.27948   -622370.24848  21900986.6694   21900984.1614
       417.3754
 04  9  2 21 22  0.0010000  0  7G 1G 3G 8G13G16G23G27
   5162645.50447   3989797.59142  24214252.3884   24214253.6614
     -4103.4694
   -901282.36348   -697929.68444  23333564.2784   23333563.8764
       291.9064
  -2369526.80248  -1834892.42944  23477237.2944   23477236.4624
      1616.7664
    377556.15049    290992.42048  20456250.9584   20456246.3994
      -650.7344
   5285068.41347   4088377.38243  23923160.1384   23923157.9114
     -4246.3284
   3759826.49449   2906287.21247  21465778.8024   21465773.2514
     -3180.7974
   -808583.11748   -627227.77247  21899800.3024   21899798.0134
       414.0164
 04  9  2 21 22 15.0010000  0  7G 1G 3G 8G13G16G23G27
   5224224.90447   4037781.51742  24225970.3804   24225972.0404
     -4107.0624
   -905596.84748   -701291.58844  23332743.5134   23332742.9704
       283.6414
  -2393753.86548  -1853770.64844  23472626.9974   23472625.9034
      1613.7974
    387374.93649    298643.43348  20458119.3334   20458115.3534
      -658.2194
   5348797.50347   4138036.40543  23935287.3254   23935284.8764
     -4250.6094
   3807590.64149   2943506.01547  21474868.0674   21474862.5524
     -3187.4844
   -814766.14249   -632045.70847  21898623.8334   21898621.4854
       410.6724
 04  9  2 21 22 30.0010000  0  7G 1G 3G 8G13G16G23G27
   5285857.36647   4085806.73742  24237699.8414   24237700.9384
     -4110.8754
   -909787.00448   -704556.61043  23331946.5214   23331946.3924
       274.9694
  -2417938.27748  -1872615.59744  23468024.8334   23468023.2984
      1610.5634
    397306.94449    306382.64948  20460009.2244   20460004.5714
      -666.2034
   5412589.83547   4187744.69642  23947427.3024   23947424.3684
     -4255.2814
   3855454.59549   2980802.59047  21483976.3564   21483970.6464
     -3194.5314
   -820899.36749   -636824.82947  21897456.9274   21897454.7164
       406.9064
 04  9  2 21 22 45.0010000  0  7G 1G 3G 8G13G16G23G27
   5347542.40147   4133872.89642  24249439.0834   24249439.4354
     -4114.1724
   -913852.78447   -707724.71443  23331172.8174   23331171.1654
       266.7814
  -2442080.19848  -1891427.46144  23463431.0914   23463428.3494
      1607.9064
    407351.91749    314209.90648  20461920.7864   20461916.5954
      -673.5624
   5476444.78147   4237501.77643  23959577.5524   23959575.7864
     -4259.2194
   3903418.05349   3018176.70247  21493103.4424   21493098.0444
     -3201.0004
   -826983.16149   -641565.43547  21896298.8254   21896296.8764
       403.7974
 04  9  2 21 23  0.0010000  0  7G 1G 3G 8G13G16G23G27
   5409280.74947   4181980.67042  24261185.5834   24261187.1774
     -4117.5944
   -917793.20648   -710795.12943  23330422.7634   23330421.3254
       258.6884
  -2466178.53148  -1910205.33444  23458844.6224   23458843.2514
      1605.2344
    417510.85049    322125.95848  20463853.7084   20463849.9784
      -680.8914
   5540362.78647   4287307.99343  23971740.3644   23971738.7594
     -4263.0624
   3951481.75049   3055628.92047  21502249.3564   21502244.0214
     -3207.3914
   -833016.74249   -646266.92247  21895151.0444   21895148.6104
       400.7504
 04  9  2 21 23 15.0010000  0  7G 1G 3G 8G13G16G23G27
   5471069.31247   4230127.49742  24272944.0834   24272944.9894
     -4120.7664
   -921610.86248   -713769.89844  23329696.5914   23329695.2714
       250.5474
  -2490236.34848  -1928951.64844  23454266.7474   23454265.2244
      1602.5634
    427780.96549    330128.64848  20465808.1384   20465804.0364
      -688.3124
   5604340.62947   4337160.85342  23983915.7634   23983914.0054
     -4267.1414
   3999642.60949   3093156.84348  21511414.1064   21511409.0754
     -3213.8914
   -839003.03549   -650931.55547  21894011.6774   21894009.6574
       397.5944
 04  9  2 21 23 30.0010000  0  7G 1G 3G 8G13G16G23G27
   5532911.31647   4278316.03743  24284712.6144   24284713.5094
     -4124.3594
   -925302.16348   -716646.18944  23328993.7004   23328993.2124
       242.0474
  -2514250.23848  -1947663.75044  23449697.0914   23449696.1224
      1599.6724
    438165.83949    338220.74748  20467784.4814   20467779.9034
      -695.9224
   5668381.35947   4387062.69842  23996102.0524   23996099.7284
     -4271.2664
   4047903.90149   3130763.02348  21520598.2084   21520593.6144
     -3220.5784
   -844938.75249   -655556.78047  21892882.1064   21892880.2284
       394.2504
 04  9  2 21 23 45.0010000  0  6G 3G 8G13G16G23G27
   -928864.94148   -719422.35943  23328316.0754   23328314.9814
       233.2504
  -2538218.67848  -1966340.44344  23445136.1224   23445135.3254
      1596.3914
    448667.36949    346403.75948  20469782.3804   20469778.7514
      -703.9844
   5732486.41147   4437014.65442  24008301.3804   24008299.1104
     -4275.6724
   4096267.36949   3168448.83148  21529801.4744   21529796.2204
     -3227.6254
   -850822.04249   -660141.16047  21891762.4814   21891760.4354
       390.5314
 04  9  2 21 24  0.0010000  0  6G 3G 8G13G16G23G27
   -932302.85048   -722101.21743  23327660.7944   23327660.5714
       224.7974
  -2562145.15648  -1984984.41344  23440583.2714   23440581.7784
      1593.5004
    459281.79349    354674.74048  20471802.3964   20471798.4504
      -711.6094
   5796651.72146   4487013.58642  24020511.5214   24020508.9544
     -4280.0474
   4144729.03149   3206211.14948  21539023.4814   21539018.4274
     -3234.3444
   -856656.79049   -664687.70747  21890652.1694   21890650.1064
       387.1564
 04  9  2 21 24 15.0010000  0  6G 3G 8G13G16G23G27
   -935614.39948   -724681.61144  23327031.7084   23327030.4034
       216.5164
  -2586028.28948  -2003594.61844  23436037.8174   23436036.8684
      1590.5784
    470010.54049    363034.80448  20473844.1774   20473840.0634
      -719.1874
   5860878.19747   4537060.14043  24032733.0754   24032730.6774
     -4283.8284
   4193290.16849   3244050.98148  21548264.4974   21548259.1924
     -3240.8754
   -862441.80449   -669195.50147  21889551.4814   21889548.9814
       383.8284
 04  9  2 21 24 30.0010000  0  6G 3G 8G13G16G23G27
   -938800.68848   -727164.40743  23326425.5524   23326423.8724
       208.0164
  -2609869.37848  -2022172.06144  23431501.0524   23431500.5634
      1587.7814
    480852.35849    371482.96648  20475907.0524   20475903.2314
      -726.8284
   5925163.98246   4587152.94842  24044966.3334   24044964.2554
     -4288.0164
   4241949.20149   3281967.09448  21557523.7314   21557518.9704
     -3247.4844
   -868178.50849   -673665.64548  21888459.7244   21888456.9504
       380.5474
 04  9  2 21 24 45.0010000  0  6G 3G 8G13G16G23G27
   -941855.12948   -729544.49743  23325843.3724   23325842.2204
       199.6414
  -2633662.36848  -2040712.02044  23426973.1614   23426972.4624
      1584.9694
    491813.77349    380024.34248  20477993.0604   20477989.1104
      -734.3444
   5989515.16247   4637296.68043  24057212.2394   24057210.1694
     -4291.8284
   4290712.46149   3319964.43147  21566803.4504   21566798.0364
     -3254.0004
   -873860.49549   -678093.16948  21887378.9584   21887376.0484
       377.3754
 04  9  2 21 25  0.0010000  0  6G 3G 8G13G16G23G27
   -944786.39548   -731828.56343  23325285.8174   23325283.5324
       191.3754
  -2657415.93648  -2059221.27244  23422453.5604   23422452.4114
      1582.3594
    502886.01949    388652.07048  20480100.2084   20480096.0754
      -741.7344
   6053922.60746   4687484.27842  24069468.3024   24069466.0244
     -4295.5624
   4339570.96249   3358035.98647  21576100.5444   21576095.3494
     -3260.2814
   -879496.66649   -682484.97947  21886306.1144   21886303.7204
       374.3444
 04  9  2 21 25 15.0010000  0  6G 3G 8G13G16G23G27
   -947592.20048   -734014.88443  23324751.9894   23324750.7434
       182.7504
  -2681128.13748  -2077698.28644  23417941.1854   23417939.9384
      1579.2194
    514071.37549    397367.92648  20482228.5604   20482224.4974
      -749.5944
   6118387.98645   4737717.05242  24081736.1224   24081734.1494
     -4299.8444
   4388526.62849   3396183.23047  21585416.6534   21585411.6884
     -3267.1094
   -885085.03749   -686839.55547  21885242.5134   21885239.9664
       370.7974
 04  9  2 21 25 30.0010000  0  7G19G 3G 8G13G16G23G27
    -74936.16556    -50720.18453  24432630.3964   24432628.4744
      1665.1254
   -950274.01848   -736104.59044  23324241.6224   23324240.4154
       174.7194
  -2704800.49848  -2096144.26444  23413436.5444   23413435.3454
      1576.8754
    525368.07949    406170.54948  20484378.1304   20484374.0134
      -756.7974
   6182909.26246   4787993.32242  24094013.4194   24094012.1494
     -4303.2504
   4437577.61549   3434404.77447  21594750.6694   21594745.0634
     -3273.1724
   -890627.30449   -691158.19448  21884188.0284   21884185.9814
       367.9844
 04  9  2 21 25 45.0010000  0  7G19G 3G 8G13G16G23G27
    -99897.45346    -70170.47343  24427880.0834   24427878.1574
      1662.6094
   -952835.53248   -738100.55444  23323755.0834   23323753.2904
       166.4844
  -2728437.04548  -2114562.32644  23408938.3804   23408937.6184
      1574.2504
    536772.40649    415057.03648  20486548.5914   20486544.5754
      -764.2034
   6247482.17346   4838309.85342  24106301.7084   24106299.5444
     -4306.9694
   4486719.98449   3472697.52047  21604102.3564   21604096.9584
     -3279.4844
   -896127.54649   -695444.08547  21883141.0284   21883138.7714
       364.9534
 04  9  2 21 26  0.0010000  0  7G19G 3G 8G13G16G23G27
   -124820.68347    -89591.08043  24423137.3104   24423136.4314
      1660.6414
   -955272.90748   -739999.79044  23323290.6614   23323290.2314
       158.6414
  -2752034.23648  -2132949.72744  23404447.7084   23404447.1064
      1572.0634
    548288.14249    424030.34248  20488739.8414   20488735.9854
      -771.2344
   6312110.02346   4888669.23242  24118599.6064   24118597.7124
     -4310.0314
   4535957.12049   3511064.11347  21613471.6224   21613466.2554
     -3285.3594
   -901582.11149   -699694.38747  21882103.5284   21882101.3604
       362.3444
 04  9  2 21 26 15.0010000  0  7G19G 3G 8G13G16G23G27
   -149704.82647   -108981.27143  24418401.9664   24418400.3214
      1657.3284
   -957585.27048   -741801.61144  23322850.3884   23322849.5914
       149.7344
  -2775591.04548  -2151305.66144  23399965.3414   23399964.1774
      1568.8134
    559915.97649    433090.98548  20490952.7864   20490948.5284
      -779.2504
   6376793.12245   4939071.61442  24130908.5364   24130906.5954
     -4314.3914
   4585289.61749   3549505.00747  21622859.4194   21622854.3374
     -3292.2814
   -906990.35749   -703908.59747  21881074.1224   21881072.0214
       358.7504
 04  9  2 21 26 30.0010000  0  7G19G 3G 8G13G16G23G27
   -174550.95046   -128341.81843  24413674.1464   24413672.2984
      1654.5944
   -959773.70448   -743506.85244  23322433.6924   23322433.8104
       141.1884
  -2799109.23048  -2169631.47944  23395489.9584   23395489.0284
      1566.0164
    571654.59649    442237.95948  20493186.2004   20493182.3964
      -786.8914
   6441529.72446   4989515.70042  24143227.4354   24143225.4974
     -4318.1724
   4634715.91249   3588018.97747  21632264.4194   21632259.6924
     -3298.8284
   -912353.76849   -708087.86747  21880053.6774   21880051.1064
       355.4224
 04  9  2 21 26 45.0010000  0  7G19G 3G 8G13G16G23G27
   -199360.39347   -147673.78843  24408953.1064   24408951.1224
      1652.2344
   -961839.63348   -745116.65444  23322040.1774   23322040.5564
       133.1884
  -2822590.18548  -2187928.31844  23391021.2944   23391020.1654
      1563.6414
    583502.57349    451470.14348  20495441.0134   20495437.3104
      -794.0164
   6506317.75945   5039999.83142  24155557.2394   24155554.3334
     -4321.2814
   4684234.29949   3626604.71347  21641687.9504   21641682.7124
     -3304.7814
   -917673.92549   -712233.45047  21879041.2084   21879038.6694
       352.7034
 04  9  2 21 27  0.0010000  0  7G19G 3G 8G13G16G23G27
   -224129.48747   -166974.30943  24404240.0054   24404237.9234
      1650.0314
   -963779.81548   -746628.45044  23321671.8024   23321671.3884
       125.3134
  -2846031.02748  -2206193.88144  23386560.7394   23386559.5714
      1561.4844
    595463.19249    460790.11148  20497716.6614   20497712.9814
      -801.0164
   6571160.13845   5090526.36042  24167894.9424   24167894.2314
     -4324.5164
   4733847.78349   3665264.55947  21651128.7314   21651123.6734
     -3310.5944
   -922947.90449   -716343.03347  21878037.4114   21878035.2904
       350.1414
 04  9  2 21 27 15.0010000  0  7G19G 3G 8G13G16G23G27
   -248860.99447   -186245.57443  24399532.3564   24399531.2554
      1647.2814
   -965596.97148   -748044.37244  23321325.9744   23321323.9744
       116.7974
  -2869434.54548  -2224430.38145  23382107.3494   23382106.0014
      1558.6884
    607533.49249    470195.54248  20500013.7474   20500010.1854
      -808.6094
   6636053.31145   5141092.44942  24180244.0994   24180242.4854
     -4327.9374
   4783553.25949   3703996.08347  21660588.0134   21660583.1464
     -3317.1254
   -928178.66149   -720418.94447  21877041.9194   21877039.8884
       347.0784
 04  9  2 21 27 30.0010000  0  7G19G 3G 8G13G16G23G27
   -273553.97747   -205486.77544  24394834.6924   24394831.9504
      1644.7194
   -967290.26648   -749363.79844  23321003.3254   23321002.0754
       108.5634
  -2892800.10248  -2242637.27944  23377661.5134   23377658.9274
      1556.2814
    619714.09049    479686.91148  20502331.8884   20502328.2674
      -815.9064
   6700997.59845   5191698.32942  24192603.1774   24192601.2634
     -4331.4374
   4833351.09049   3742799.57548  21670063.9894   21670058.9814
     -3323.0944
   -933365.78949   -724460.85947  21876054.8564   21876052.6424
       344.2034
 04  9  2 21 27 45.0010000  0  7G19G 3G 8G13G16G23G27
   -298208.29247   -224697.87744  24390142.6854   24390141.2864
      1642.4694
   -968859.80348   -750586.80744  23320705.0994   23320703.5484
       100.6564
  -2916128.17548  -2260814.97944  23373221.4424   23373220.0244
      1554.1094
    632004.77349    489264.07148  20504670.2084   20504666.6734
      -822.9064
   6765992.30445   5242343.52041  24204970.5994   24204969.2944
     -4334.3914
   4883240.80449   3781674.65948  21679557.6854   21679552.6064
     -3328.9064
   -938509.51449   -728468.94448  21875076.4274   21875074.4664
       341.6414
 04  9  2 21 28  0.0010000  0  7G19G 3G 8G13G16G23G27
   -322825.93747   -243880.37943  24385457.7864   24385456.3494
      1639.9534
   -970307.54948   -751714.89544  23320429.8414   23320428.6614
        92.5314
  -2939420.90248  -2278965.12844  23368788.9194   23368787.7634
      1551.7504
    644403.60749    498925.49148  20507029.9664   20507025.9154
      -830.1564
   6831034.96445   5293026.09841  24217347.4894   24217346.6694
     -4337.6724
   4933220.27949   3820619.68847  21689068.6614   21689063.9274
     -3334.9064
   -943612.03649   -732444.93148  21874105.3724   21874102.5364
       338.8594
 04  9  2 21 28 15.0010000  0  7G19G 3G 8G13G16G23G27
   -347406.01246   -263033.62643  24380779.5054   24380778.4504
      1637.5944
   -971632.80448   -752747.53744  23320177.6144   23320175.9664
        84.3444
  -2962677.88648  -2297087.44644  23364363.6224   23364362.2674
      1549.4064
    656911.10949    508671.60348  20509410.0914   20509406.3374
      -837.3284
   6896125.74545   5343746.14841  24229734.5754   24229732.6344
     -4340.8914
   4983289.78249   3859634.86748  21698596.4814   21698591.4034
     -3340.8444
   -948673.07349   -736388.58548  21873142.3414   21873139.6964
       336.0944
 04  9  2 21 28 30.0010000  0  7G19G 3G 8G13G16G23G27
   -371947.90847   -282157.08543  24376110.5994   24376108.1424
      1635.0944
   -972835.04548   -753684.33344  23319947.9894   23319947.2394
        76.2974
  -2985898.64348  -2315181.51344  23359944.9194   23359943.6734
      1547.0634
    669527.61049    518502.64348  20511810.8884   20511807.0604
      -844.5474
   6961264.60344   5394503.70341  24242129.8494   24242128.6614
     -4343.9224
   5033449.51349   3898720.35647  21708141.3804   21708136.5674
     -3346.8284
   -953692.30649   -740299.67348  21872187.2634   21872184.7864
       333.4694
 04  9  2 21 28 45.0010000  0  7G19G 3G 8G13G16G23G27
   -396451.91246   -301251.06543  24371447.3724   24371444.0524
      1632.4224
   -973914.81848   -754525.68744  23319742.9664   23319742.7554
        67.8444
  -3009083.52648  -2333247.64144  23355533.1064   23355531.7434
      1544.4534
    682252.72949    528418.31748  20514232.4814   20514228.3764
      -851.9374
   7026450.63744   5445297.97741  24254535.9274   24254533.1814
     -4347.2344
   5083698.67149   3937875.52847  21717704.0364   21717698.4854
     -3352.9374
   -958670.24649   -744178.57148  21871239.8494   21871237.5634
       330.4844
 04  9  2 21 29  0.0010000  0  7G19G 3G 8G13G16G23G27
   -420917.38847   -320314.99543  24366792.2244   24366788.8494
      1629.8914
   -974871.60948   -755271.20744  23319559.9274   23319560.2634
        59.7194
  -3032232.59048  -2351285.85045  23351127.9744   23351126.8174
      1542.1724
    695086.74349    538418.83748  20516674.9664   20516670.8684
      -859.1724
   7091683.56744   5496128.87941  24266948.7784   24266947.1034
     -4350.3444
   5134037.39149   3977100.49747  21727282.8024   21727277.4624
     -3358.7664
   -963606.88549   -748025.30148  21870300.3104   21870297.7904
       327.8594
 04  9  2 21 29 15.0010000  0  7G19G 3G 8G13G16G23G27
   -445342.88547   -339347.75743  24362144.2004   24362140.9384
      1627.0474
   -975703.92648   -755919.74644  23319402.2634   23319401.9154
        51.4844
  -3055344.77848  -2369295.33645  23346730.0914   23346728.1264
      1539.7504
    708030.97049    548505.25348  20519137.7084   20519134.2394
      -866.4534
   7156964.35244   5546996.89841  24279369.8724   24279369.5364
     -4353.6254
   5184466.87149   4016396.17547  21736879.0674   21736873.6734
     -3364.8754
   -968500.98449   -751838.86848  21869368.8414   21869367.0994
       325.0164
 04  9  2 21 29 30.0010000  0  7G19G 3G 8G13G16G23G27
   -469732.33846   -358352.49943  24357502.5674   24357500.0404
      1624.6884
   -976415.97448   -756474.55544  23319266.6534   23319265.7124
        43.4064
  -3078424.11948  -2387279.20945  23342338.5284   23342336.4784
      1537.4694
    721081.30549    558674.33748  20521621.3804   20521617.2004
      -873.7034
                                  24291802.0134   24291800.3374
     -4356.5784
   5234982.62649   4055759.08747  21746491.3024   21746486.3494
     -3370.6874
   -973356.77649   -755622.60047  21868445.1304   21868443.0874
       322.3284
 04  9  2 21 29 45.0010000  0  7G19G 3G 8G13G16G23G27
   -494079.71947   -377324.41643  24352869.4504   24352867.4934
      1621.9844
   -977001.87948   -756931.09644  23319155.4584   23319154.5834
        35.0474
  -3101465.12748  -2405233.21445  23337953.0834   23337951.8134
      1534.8914
    734243.45149    568930.55548  20524126.2474   20524122.2904
      -881.0314
   7287660.75943   5648838.28141  24304241.2784   24304240.9274
     -4359.6874
   5285590.09349   4095193.46447  21756122.2864   21756116.6344
     -3376.7814
   -978168.73649   -759372.17248  21867529.2474   21867526.6384
       319.5164
 04  9  2 21 30  0.0010000  0  7G19G 3G 8G13G16G23G27
   -518384.88847   -396263.42643  24348244.7864   24348241.8414
      1619.1724
   -977461.72748   -757289.37144  23319067.7084   23319066.6064
        26.6414
  -3124468.02648  -2423157.52844  23333575.7394   23333575.2634
      1532.4064
    747517.13649    579273.69048  20526651.6774   20526648.1734
      -888.4534
   7353081.129 3                  24316690.466
     -4362.891
   5336288.98649   4134699.07547  21765770.1064   21765764.8134
     -3382.8444
   -982937.23249   -763087.88348  21866621.5604   21866619.5834
       316.6254
 04  9  2 21 30 15.0010000  0  7G19G 3G 8G13G16G23G27
   -542651.29447   -415172.24343  24343626.5994   24343623.4114
      1616.3914
   -977798.97648   -757552.15644  23319002.8964   23319003.2554
        18.3284
  -3147436.46648  -2441054.99945  23329205.0914   23329203.7594
      1529.9534
    760898.83149    589700.98148  20529198.3024   20529194.7744
      -895.7814
   7418545.25413                  24329148.044
     -4365.703
   5387075.24049   4174272.76947  21775434.3254   21775428.6144
     -3388.7344
   -987666.04549   -766772.66148  21865721.9584   21865719.5714
       313.9064
 04  9  2 21 30 30.0010000  0  6G19G 3G 8G13G23G27
   -566876.22347   -434048.76843  24339015.9194   24339014.2354
      1613.5474
   -978011.04548   -757717.36344  23318963.5834   23318962.6424
         9.8914
  -3170368.23048  -2458923.89045  23324841.6144   23324840.3534
      1527.4694
    774391.07349    600214.42648  20531765.7394   20531762.0174
      -903.1724
   5437951.27649   4213916.42247  21785115.6694   21785110.7164
     -3394.7814
   -992352.84449   -770424.70948  21864829.6464   21864827.7824
       311.0004
 04  9  2 21 30 45.0010000  0  6G19G 3G 8G13G23G27
   -591066.23046   -452898.04043  24334412.9114   24334410.5714
      1611.3754
   -978104.53048   -757790.19544  23318946.0364   23318944.8024
         2.2664
  -3193270.03848  -2476769.41145  23320482.7084   23320482.3964
      1525.7034
    787987.02749    610808.67148  20534353.1144   20534349.4194
      -909.8754
   5488910.10449   4253624.57647  21794813.0134   21794807.5634
     -3400.1254
   -997004.41149   -774049.30148  21863944.5914   21863942.3064
       308.9224
 04  9  2 21 31  0.0010000  0  6G19G 3G 8G13G23G27
   -615218.46046   -471717.92243  24329817.0444   24329813.9584
      1608.7814
   -978076.83848   -757768.59544  23318950.2244   23318949.8134
        -5.9844
  -3216139.44548  -2494589.71545  23316131.3024   23316130.1654
      1523.4534
    801689.11549    621485.61548  20536960.2864   20536956.5324
      -917.0944
   5539953.95749   4293398.99347  21804526.0134   21804521.4314
     -3405.8754
  -1001618.36449   -777644.58148  21863066.8564   21863064.3724
       306.2974
 04  9  2 21 31 15.0010000  0  6G19G 3G 8G13G23G27
   -639326.70547   -490503.47643  24325229.3884   24325226.2714
      1605.9384
   -977922.03348   -757647.92244  23318979.8644   23318979.0794
       -14.3754
  -3238970.51448  -2512380.13145  23311786.5524   23311785.1264
      1521.0784
    815503.32649    632249.92948  20539589.2244   20539585.3604
      -924.4844
   5591088.50349   4333244.07047  21814256.9114   21814251.5484
     -3411.8124
  -1006189.13249   -781206.21348  21862196.9744   21862195.2474
       303.4534
 04  9  2 21 31 30.0010000  0  6G19G 3G 8G13G23G27
   -663395.01546   -509257.94742  24320649.1774   24320646.2714
      1603.2034
   -977644.09948   -757431.33144  23319033.3024   23319031.1064
       -22.6254
  -3261767.68748  -2530144.13744  23307449.0604   23307447.2004
      1518.7034
    829425.54449    643098.42448  20542238.6064   20542234.6694
      -931.7504
   5642309.41649   4373156.45947  21824003.7164   21823998.7314
     -3417.5944
  -1010720.89249   -784737.44948  21861334.8564   21861332.6064
       300.8134
 04  9  2 21 31 45.0010000  0  6G19G 3G 8G13G23G27
   -687421.67347   -527979.94243  24316077.4584   24316074.7744
      1600.2664
   -977241.64648   -757117.69944  23319109.2004   23319108.0404
       -31.1414
  -3284529.56948  -2547880.63345  23303116.6694   23303115.9624
      1516.1254
    843457.03849    654032.04448  20544908.6224   20544905.1264
      -939.2664
   5693617.69049   4413136.90447  21833767.3724   21833762.5484
     -3423.6094
  -1015212.41449   -788237.32348  21860480.1614   21860477.6654
       297.9384
 04  9  2 21 32  0.0010000  0  6G19G 3G 8G13G23G27
   -711402.59747   -546666.34643  24311513.7554   24311511.0324
      1597.0944
   -976710.73548   -756703.98144  23319210.8804   23319208.7474
       -39.7974
  -3307252.64448  -2565586.90445  23298792.9034   23298791.8134
      1513.3914
    857601.71249    665053.87448  20547600.3964   20547595.9934
      -946.8124
   5745017.03349   4453188.33247  21843548.3174   21843543.2044
     -3429.7664
  -1019660.06249   -791703.02448  21859633.6694   21859631.1104
       294.9534
 04  9  2 21 32 15.0010000  0  6G19G 3G 8G13G23G27
   -735341.81547   -565320.23943  24306957.4114   24306955.7714
      1594.3754
   -976055.41548   -756193.34444  23319335.2164   23319333.5674
       -47.9844
  -3329940.95348  -2583266.07445  23294476.0914   23294474.4934
      1511.3444
    871855.44349    676160.66248  20550312.7714   20550309.0174
      -954.0624
   5796503.05249   4493307.27247  21853345.8494   21853340.6694
     -3435.4224
  -1024068.08649   -795137.83848  21858794.8644   21858792.2864
       292.4694
 04  9  2 21 32 30.0010000  0  6G19G 3G 8G13G23G27
   -759240.69047   -583942.68743  24302409.5834   24302407.7354
      1591.9224
   -975277.24448   -755586.94444  23319483.1694   23319482.5954
       -55.9224
  -3352596.37048  -2600919.62545  23290163.9814   23290163.3494
      1509.3284
    886216.52149    687351.12248  20553045.5994   20553041.5954
      -960.9844
   5848073.91849   4533492.34947  21863159.9504   21863154.3334
     -3440.9224
  -1028438.29949   -798543.19048  21857962.9584   21857960.9664
       290.0944
 04  9  2 21 32 45.0010000  0  6G19G 3G 8G13G23G27
   -783098.01646   -602532.72443  24297869.7244   24297868.2244
      1588.7344
   -974375.06548   -754883.94044  23319654.8104   23319653.3414
       -64.5624
  -3375217.76048  -2618546.66145  23285859.3024   23285858.3644
      1506.6414
    900686.08749    698626.11048  20555799.0364   20555794.8724
      -968.5624
   5899730.34349   4573744.10147  21872989.4274   21872984.0994
     -3446.8914
  -1032769.81349   -801918.39348  21857139.1224   21857136.2714
       287.1884
 04  9  2 21 33  0.0010000  0  6G19G 3G 8G13G23G27
   -806912.70147   -621089.57043  24293338.2634   24293335.9624
      1586.2664
   -973347.89348   -754083.52144  23319850.3564   23319848.8564
       -72.5944
  -3397804.46248  -2636146.65045  23281561.9114   23281560.2244
      1504.7034
    915264.69849    709986.06648  20558573.1224   20558569.3104
      -975.4534
   5951473.00049   4614063.03247  21882835.5994   21882830.2824
     -3452.2814
  -1037061.88449   -805262.85148  21856321.9974   21856319.8134
       284.8754
 04  9  2 21 33 15.0010000  0  6G19G 3G 8G13G23G27
   -830682.15547   -639611.14144  24288814.6464   24288813.6464
      1582.7504
   -972193.53748   -753184.00644  23320069.9744   23320068.9034
       -81.6414
  -3420354.47148  -2653718.05845  23277270.8494   23277269.6224
      1501.7194
    929954.88049    721432.95848  20561368.5054   20561364.7714
      -983.5474
   6003303.86449   4654450.70247  21892698.6464   21892693.4194
     -3458.7814
  -1041312.50749   -808575.01648  21855513.2084   21855510.7744
       281.6254
 04  9  2 21 33 30.0010000  0  6G19G 3G 8G13G23G27
   -854403.57947   -658095.28544  24284300.5444   24284299.2594
      1580.2034
   -970909.38548   -752183.34744  23320313.4114   23320313.1964
       -89.5944
  -3442865.26348  -2671258.91445  23272986.4974   23272984.9314
      1499.7194
    944759.09549    732968.70348  20564185.6924   20564182.0634
      -990.3594
   6055225.19249   4694908.86947  21902579.1534   21902573.7284
     -3464.0784
  -1045519.26349   -811853.00348  21854712.3644   21854710.5404
       279.3594
 04  9  2 21 33 45.0010000  0  6G19G 3G 8G13G23G27
   -878083.23647   -676546.92444  24279795.0134   24279792.9784
      1576.8444
   -969501.91648   -751086.59444  23320582.4504   23320581.6064
       -98.2814
  -3465343.40648  -2688774.32745  23268709.5754   23268708.0834
      1497.0784
    959670.63849    744588.08448  20567023.2394   20567019.6694
      -998.0624
   6107230.20449   4735432.23747  21912475.5914   21912470.0014
     -3470.1094
  -1049688.78149   -815101.97448  21853919.5364   21853917.3924
       276.3754
 04  9  2 21 34  0.0010000  0  6G19G 3G 8G13G23G27
   -901714.13547   -694960.54144  24275297.9974   24275295.4424
      1573.5474
   -967964.14148   -749888.31944  23320874.7244   23320873.5324
      -107.0164
  -3487782.25248  -2706259.12645  23264439.5914   23264438.1104
      1494.3914
    974696.47749    756296.53048  20569882.4034   20569878.8294
     -1005.7974
   6159325.52249   4776025.98447  21922388.9814   21922383.8804
     -3476.2344
  -1053814.35349   -818316.69648  21853134.2864   21853132.3884
       273.3754
 04  9  2 21 34 15.0010000  0  6G19G 3G 8G13G23G27
   -925297.61548   -713337.23044  24270810.5054   24270808.1144
      1570.4694
   -966297.67248   -748589.74144  23321192.0994   23321190.1424
      -115.6254
  -3510183.88048  -2723714.91745  23260176.9504   23260175.1924
      1492.0784
    989834.78049    768092.60848  20572763.4894   20572759.2284
     -1013.1874
   6211509.08649   4816688.47647  21932319.0364   21932313.9544
     -3482.0004
  -1057898.03849   -821498.78048  21852357.1144   21852355.0014
       270.6724
 04  9  2 21 34 30.0010000  0  6G19G 3G 8G13G23G27
   -948833.03848   -731676.43644  24266331.5914   24266330.0324
      1567.6884
   -964501.92648   -747190.45444  23321533.9584   23321532.6884
      -123.8124
  -3532547.39148  -2741140.99545  23255920.8494   23255919.1734
      1489.8754
   1005086.24749    779976.86648  20575665.7864   20575661.7514
     -1020.2974
   6263781.15149   4857419.93247  21942265.5994   21942260.9504
     -3487.4694
  -1061939.27949   -824647.79348  21851587.9974   21851585.8214
       268.2504
 04  9  2 21 34 45.0010000  0  6G19G 3G 8G13G23G27
   -972321.88048   -749979.37044  24261862.0674   24261859.7004
      1564.1414
   -962578.64048   -745691.75844  23321899.3024   23321898.3764
      -132.6724
  -3554874.79748  -2758538.96145  23251672.0134   23251670.5364
      1487.1564
   1020449.04449    791947.88048  20578589.1224   20578584.8804
     -1028.0784
   6316139.97149   4898219.00447  21952229.3964   21952224.9784
     -3493.6874
  -1065939.81649   -827765.08148  21850826.8494   21850824.0714
       265.1254
 04  9  2 21 35  0.0010000  0  6G19G 3G 8G13G23G27
   -995759.79747   -768242.60644  24257401.5834   24257399.2164
      1561.0164
   -960523.52548   -744090.34544  23322290.0604   23322289.4074
      -141.1254
  -3577161.93748  -2775905.53745  23247431.1774   23247429.6344
      1484.7504
   1035927.30249    804008.85848  20581534.9114   20581530.9194
     -1035.5164
   6368589.24949   4939088.54747  21962209.7864   21962205.4424
     -3499.4224
  -1069895.88849   -830847.73048  21850074.3644   21850071.7784
       262.5004
 04  9  2 21 35 15.0010000  0  6G19G 3G 8G13G23G27
  -1019149.62848   -786468.41744  24252951.4504   24252949.1774
      1558.0474
   -958339.62848   -742388.58844  23322706.2084   23322705.0174
      -149.6414
  -3599412.14148  -2793243.32845  23243196.6774   23243195.4504
      1482.3594
   1051517.79449    816157.29048  20584501.2554   20584497.3724
     -1042.8124
   6421125.71549   4980026.01547  21972207.8414   21972203.3254
     -3505.0784
  -1073810.65149   -833898.19248  21849329.3024   21849326.7354
       259.8914
 04  9  2 21 35 30.0010000  0  6G19G 3G 8G13G23G27
  -1042490.52947   -804656.04544  24248509.2554   24248506.6464
      1554.4694
   -956026.24448   -740585.93644  23323146.4034   23323145.9274
      -158.5004
  -3621624.73348  -2810551.83645  23238970.1304   23238968.1574
      1479.6884
   1067221.24749    828393.75148  20587489.3804   20587485.3374
     -1050.6414
   6473749.68649   5021031.68947  21982221.5524   21982217.0914
     -3511.1724
  -1077683.60249   -836916.06848  21848591.9584   21848589.6734
       256.8754
 04  9  2 21 35 45.0010000  0  6G19G 3G 8G13G23G27
  -1065782.98547   -822805.96644  24244076.7004   24244074.2124
      1551.2664
   -953584.06948   -738682.92244  23323612.0994   23323610.4154
      -167.0164
  -3643800.65648  -2827831.75045  23234749.7244   23234748.0754
      1477.2504
   1083036.70749    840717.47948  20590499.0284   20590494.9154
     -1058.0164
   6526460.14849   5062104.75747  21992252.3494   21992247.3174
     -3516.8124
  -1081515.77249   -839902.15948  21847862.8804   21847860.5174
       254.1724
 04  9  2 21 36  0.0010000  0  6G19G 3G 8G13G23G27
  -1089026.32047   -840917.57643  24239653.2394   24239651.1184
      1547.6724
   -951012.51948   -736679.09444  23324100.9034   23324099.7434
      -175.9064
  -3665939.50648  -2845082.78145  23230536.7554   23230535.0054
      1474.3914
   1098964.86849    853129.02848  20593529.7864   20593526.1534
     -1065.8914
   6579257.52149   5103245.55547  22002299.4274   22002294.0914
     -3522.9224
  -1085306.68749   -842856.12248  21847141.0994   21847139.2204
       251.1414
 04  9  2 21 36 15.0010000  0  6G19G 3G 8G13G23G27
  -1112220.52747   -858990.91643  24235239.6534   24235235.6304
      1544.6094
   -948311.74548   -734574.56344  23324614.0754   23324613.6384
      -184.3914
  -3688041.82148  -2862305.35045  23226330.3644   23226329.1064
      1472.2344
   1115005.28649    865628.06448  20596582.4504   20596578.1494
     -1073.1254
   6632141.14349   5144453.56247  22012363.3174   22012357.7204
     -3528.5164
  -1089056.86249   -845778.33648  21846427.9814   21846425.6574
       248.6094
 04  9  2 21 36 30.0010000  0  6G19G 3G 8G13G23G27
  -1135362.55946   -877023.61343  24230834.8964   24230833.1694
      1540.9224
   -945478.94648   -732367.17744  23325153.5054   23325152.2394
      -193.2974
  -3710105.04248  -2879497.44045  23222132.8254   23222130.8254
      1469.4534
   1131160.76649    878216.73948  20599656.6224   20599652.9464
     -1080.9694
   6685113.48649   5185730.68147  22022442.8494   22022438.1614
     -3534.6254
  -1092763.62349   -848666.71448  21845722.4664   21845719.9234
       245.5474
 04  9  2 21 36 45.0010000  0  6G19G 3G 8G13G23G27
  -1158452.01446   -895015.34943  24226441.0134   24226438.3724
      1537.8284
   -942513.86548   -730056.70244  23325717.8564   23325716.3294
      -201.7664
  -3732128.77448  -2896658.76045  23217941.2864   23217939.4704
      1467.2344
   1147431.53849    890895.27148  20602753.0834   20602749.1534
     -1088.3754
   6738174.52049   5227076.92947  22032540.5674   22032534.8294
     -3540.1254
  -1096426.91749   -851521.21648  21845025.4584   21845022.6464
       243.0634
 04  9  2 21 37  0.0010000  0  6G19G 3G 8G13G23G27
  -1181493.69846   -912969.84443  24222057.3804   24222054.4234
      1534.1414
   -939421.50648   -727647.04944  23326305.7004   23326305.7864
      -210.7194
  -3754118.18248  -2913793.33645  23213756.9034   23213755.2434
      1464.5314
   1163812.51549    903659.66248  20605869.8024   20605866.4234
     -1096.0944
   6791318.98249   5268488.18947  22042653.4814   22042648.1734
     -3546.1724
  -1100051.91649   -854345.89048  21844335.6304   21844332.7904
       240.0314
 04  9  2 21 37 15.0010000  0  6G19G 3G 8G13G23G27
  -1204480.55247   -930881.60243  24217682.8804   24217680.1654
      1530.7034
   -936195.13148   -725132.97744  23326919.5914   23326918.6144
      -219.4694
  -3776066.81648  -2930896.15745  23209580.3414   23209578.3534
      1461.8914
   1180310.26249    916515.04748  20609009.5444   20609005.8604
     -1103.6564
   6844553.36549   5309969.50847  22052783.5604   22052778.3334
     -3551.9064
  -1103632.03249   -857135.57948  21843654.3104   21843651.7594
       237.2974
 04  9  2 21 37 30.0010000  0  6G19G 3G 8G13G23G27
  -1227410.72247   -948749.19444  24213319.0524   24213317.1654
      1526.9224
   -932832.86448   -722513.01244  23327559.5604   23327558.4664
      -228.5474
  -3797972.78348  -2947965.71045  23205411.7714   23205410.3374
      1459.0944
   1196926.69349    929462.92148  20612171.6614   20612167.7864
     -1111.5314
   6897879.14649   5351522.05247  22062931.1304   22062925.8374
     -3557.9224
  -1107165.61049   -859889.00848  21842982.3884   21842979.1884
       234.1724
 04  9  2 21 37 45.0010000  0  6G19G 3G 8G13G23G27
  -1250286.02848   -966574.01543  24208966.1924   24208963.3604
      1523.2814
   -929336.84048   -719788.80044  23328224.4584   23328223.5404
      -237.4694
  -3819838.37948  -2965003.79745  23201250.6464   23201249.7354
      1456.4534
   1213659.58649    942501.53548  20615355.8564   20615352.1184
     -1119.3444
   6951293.95949   5393143.95247  22073095.4504   22073090.4664
     -3563.8914
  -1110654.91449   -862607.93548  21842318.0444   21842315.4074
       231.2194
 04  9  2 21 38  0.0010000  0  6G19G 3G 8G13G23G27
  -1273109.16347   -984358.23843  24204622.7394   24204620.5994
      1519.6094
   -925709.74848   -716962.48744  23328915.2944   23328913.8294
      -246.3594
  -3841666.41048  -2982012.62545  23197096.9274   23197095.5324
      1453.7814
   1230506.09549    955628.67048  20618561.3494   20618557.8134
     -1127.0624
   7004794.78449   5434832.88147  22083276.2244   22083271.3064
     -3569.7974
  -1114102.97549   -865294.74148  21841661.8564   21841659.2084
       228.3444
 04  9  2 21 38 15.0010000  0  6G19G 3G 8G13G23G27
  -1295874.40447  -1002097.30943  24200290.5834   24200288.0174
      1516.0004
   -921946.11348   -714029.74144  23329631.9744   23329630.7714
      -255.2664
  -3863451.71948  -2998988.15645  23192951.6304   23192950.1574
      1451.2034
   1247471.59149    968848.54848  20621789.8964   20621786.1654
     -1134.7034
   7058386.65049   5476592.77347  22093474.5364   22093469.8104
     -3575.6094
  -1117504.58949   -867945.34548  21841014.6384   21841012.1654
       225.4534
 04  9  2 21 38 30.0010000  0  6G19G 3G 8G13G23G27
  -1318586.60647  -1019795.06243  24195968.8644   24195966.3494
      1511.9844
   -918051.04348   -710994.61144  23330373.2314   23330371.7314
      -264.4224
  -3885199.50348  -3015934.48245  23188813.0364   23188811.7714
      1448.1564
   1264551.07349    982157.23648  20625039.9274   20625036.5244
     -1142.8444
   7112064.23049   5518419.43347  22103689.5914   22103684.6344
     -3581.7344
  -1120864.95549   -870563.80148  21840374.9504   21840372.7044
       222.2664
 04  9  2 21 38 45.0010000  0  6G19G 3G 8G13G23G27
  -1341239.89246  -1037446.90543  24191658.0524   24191655.5134
      1509.0164
   -914018.92148   -707852.67344  23331139.7784   23331138.7864
      -272.6414
  -3906904.28748  -3032847.25845  23184682.6774   23184681.4504
      1446.2814
   1281749.96349    995558.97048  20628312.6614   20628308.8214
     -1149.7974
   7165832.85649   5560317.04647  22113921.1614   22113916.0174
     -3586.8914
  -1124178.66049   -873145.90248  21839744.5444   21839742.1654
       220.1094
 04  9  2 21 39  0.0010000  0  6G19G 3G 8G13G23G27
  -1363840.86047  -1055058.01844  24187357.3254   24187354.2004
      1504.8914
   -909856.35848   -704609.09644  23331932.2864   23331931.1344
      -281.9844
  -3928572.92548  -3049731.88045  23180559.6694   23180557.4744
      1443.2504
   1299061.42349   1009048.41147  20631607.1064   20631603.2634
     -1157.9374
   7219685.58749   5602280.18147  22124169.0054   22124164.2984
     -3593.0944
  -1127452.49649   -875696.93948  21839121.4974   21839119.0834
       216.7344
 04  9  2 21 39 15.0010000  0  6G19G 3G 8G13G23G27
  -1386385.26148  -1072625.02344  24183067.3254   24183065.3884
      1500.9064
   -905559.35048   -701260.75144  23332749.7164   23332748.8024
      -291.0474
  -3950201.70848  -3066585.45045  23176443.2554   23176441.7314
      1440.4384
   1316489.47749   1022628.71048  20634923.4114   20634919.7044
     -1165.8444
   7273626.10149   5644311.72547  22134433.4584   22134428.3844
     -3599.0624
  -1130682.67349   -878213.96148  21838506.7944   21838504.1144
       213.7344
 04  9  2 21 39 30.0010000  0  6G19G 3G 8G13G23G27
  -1408868.93148  -1090144.69844  24178788.5364   24178786.2314
      1496.9534
   -901124.04048   -697804.64644  23333593.5284   23333592.2124
      -300.1564
  -3971786.56148  -3083404.79445  23172335.7394   23172334.1734
      1437.6564
   1334037.99149   1036302.87148  20638263.0914   20638259.3804
     -1173.8124
   7327657.99549   5686414.48047  22144715.0994   22144710.6774
     -3605.0164
  -1133865.48049   -880694.06048  21837900.9584   21837898.7244
       210.7814
 04  9  2 21 39 45.0010000  0  6G19G 3G 8G13G23G27
  -1431296.57148  -1107620.73644  24174520.6614   24174519.1424
      1493.0944
   -896555.21748   -694244.51544  23334462.9664   23334461.5794
      -309.2034
  -3993332.57448  -3100193.87245  23168235.7864   23168234.8644
      1434.9224
   1351702.01349   1050067.04748  20641624.3174   20641620.6144
     -1181.6414
   7381776.10449   5728584.41947  22155013.5674   22155008.9464
     -3610.8754
  -1137005.93249   -883141.15848  21837303.2944   21837300.8334
       207.8134
 04  9  2 21 40  0.0010000  0  6G19G 3G 8G13G23G27
  -1453665.93948  -1125051.34044  24170263.3804   24170261.6924
      1489.6414
   -891850.81548   -690578.73344  23335357.8964   23335357.9034
      -317.9534
  -4014837.82048  -3116951.18845  23164143.5674   23164141.9314
      1432.5314
   1369483.60149   1063922.82848  20645008.2314   20645004.3564
     -1189.0944
   7435982.20549   5770822.91847  22165328.8884   22165323.7004
     -3616.5314
  -1140102.20549   -885553.83948  21836714.4664   21836711.7984
       205.1884
 04  9  2 21 40 15.0010000  0  6G19G 3G 8G13G23G27
  -1475978.68548  -1142437.86544  24166018.0214   24166015.3494
      1485.7974
   -887012.61548   -686808.68744  23336278.9354   23336277.5214
      -326.7664
  -4036304.19448  -3133678.20845  23160058.3104   23160057.4584
      1429.9694
   1387380.92849   1077868.79648  20648413.7634   20648409.6854
     -1196.8284
   7490274.19849   5813128.35547  22175660.4114   22175655.5604
     -3622.1094
  -1143156.27449   -887933.62448  21836133.1694   21836130.5674
       202.3594
 04  9  2 21 40 30.0010000  0  6G19G 3G 8G13G23G27
  -1498233.12448  -1159778.93344  24161783.1224   24161780.7514
      1481.8444
   -882039.17948   -682933.27344  23337225.6614   23337223.9744
      -335.8754
  -4057730.53148  -3150374.03545  23155981.0994   23155979.8254
      1427.2814
   1405395.18849   1091905.88348  20651842.1064   20651837.7824
     -1204.6254
   7544653.21149   5855501.59047  22186008.0994   22186003.0954
     -3627.9844
  -1146166.78749   -890279.46348  21835560.5524   21835557.8604
       199.4534
 04  9  2 21 40 45.0020000  0  6G19G 3G 8G13G23G27
  -1520432.04648  -1177076.75644  24157559.1664   24157556.0884
      1477.6564
   -876931.75248   -678953.44244  23338197.3934   23338195.9944
      -345.2034
  -4079119.88448  -3167041.03345  23151910.6894   23151909.4944
      1424.3134
   1423526.04549   1106033.82548  20655291.9634   20655287.9944
     -1212.7664
   7599121.05149   5897944.05847  22196372.9554   22196367.8734
     -3634.1564
  -1149135.75849   -892592.94148  21834995.1114   21834992.4514
       196.2344
 04  9  2 21 41  0.0020000  0  6G19G 3G 8G13G23G27
  -1542568.24548  -1194325.68944  24153345.4554   24153343.6864
      1473.5784
   -871686.79148   -674866.43044  23339195.2214   23339193.9714
      -354.3594
  -4100465.19648  -3183673.71245  23147848.8224   23147847.0534
      1421.5314
   1441775.14149   1120253.90348  20658764.5494   20658760.8814
     -1220.6724
   7653674.35849   5940453.10147  22206754.3384   22206749.5924
     -3639.8754
  -1152058.75549   -894870.59948  21834438.8144   21834435.9754
       193.2664
 04  9  2 21 41 15.0020000  0  6G19G 3G 8G13G23G27
  -1564644.78348  -1211528.14544  24149144.9164   24149142.9634
      1469.7194
   -866305.81748   -670673.42644  23340218.9864   23340217.8814
      -363.2194
  -4121770.22748  -3200275.00945  23143794.6584   23143793.2094
      1418.9844
   1460141.80649   1134565.57048  20662259.6504   20662256.0414
     -1228.3444
   7708314.55149   5983029.84847  22217152.2214   22217146.6074
     -3645.5784
  -1154938.02749   -897114.17348  21833891.2684   21833888.7094
       190.4384
 04  9  2 21 41 30.0020000  0  6G19G 3G 8G13G23G27
  -1586664.00648  -1228685.92344  24144954.6354   24144952.2954
      1466.0314
   -860791.56348   -666376.58244  23341268.1664   23341267.0614
      -372.1254
  -4143037.54448  -3216846.91545  23139747.1894   23139745.9984
      1416.5164
   1478623.28049   1148966.72048  20665776.6114   20665772.5414
     -1235.9374
   7763038.62249   6025671.97247  22227565.8774   22227560.5184
     -3651.0474
  -1157776.40549   -899325.88348  21833350.7684   21833348.1154
       187.8914
 04  9  2 21 41 45.0020000  0  6G19G 3G 8G13G23G27
  -1608624.74648  -1245798.13144  24140776.2214   24140773.3654
      1462.1724
   -855142.92849   -661975.01444  23342343.8464   23342342.7914
      -380.9844
  -4164266.16048  -3233388.66445  23135707.5964   23135706.7604
      1414.0004
   1497220.57049   1163458.11447  20669315.3774   20669311.9124
     -1243.5944
   7817847.44449   6068380.11447  22237995.5644   22237990.3264
     -3656.5944
  -1160573.02749   -901505.05848  21832818.6824   21832815.9554
       185.1094
 04  9  2 21 42  0.0020000  0  6G19G 3G 8G13G23G27
  -1630523.75848  -1262862.25244  24136608.2684   24136606.5454
      1457.9694
   -849356.75948   -657466.30445  23343444.5024   23343443.5494
      -390.2034
  -4185453.23948  -3249898.07745  23131675.8144   23131674.9124
      1411.1094
   1515936.85049   1178042.23948  20672877.2834   20672873.0684
     -1251.6094
   7872743.77749   6111156.47347  22248442.1584   22248436.9124
     -3662.6094
  -1163325.02749   -903649.46648  21832294.8224   21832292.1974
       182.0944
 04  9  2 21 42 15.0020000  0  6G19G 3G 8G13G23G27
  -1652362.71448  -1279879.59144  24132453.5334   24132450.3894
      1453.7974
   -843434.96148   -652851.89245  23344571.8694   23344570.9634
      -399.4694
  -4206600.83248  -3266376.69245  23127651.9944   23127650.3854
      1408.3754
   1534769.82149   1192717.27748  20676460.6744   20676456.7644
     -1259.5474
   7927725.28249   6153999.17847  22258904.8464   22258899.7524
     -3668.3124
  -1166034.38849   -905760.65648  21831779.5024   21831777.0494
       179.0634
 04  9  2 21 42 30.0020000  0  6G19G 3G 8G13G23G27
  -1674139.21848  -1296848.24544  24128309.2604   24128306.4084
      1449.6564
   -837375.52848   -648130.23044  23345724.3774   23345723.2914
      -408.5004
  -4227706.79448  -3282822.87345  23123635.2994   23123634.2364
      1405.6564
   1553721.70849   1207484.96748  20680067.4944   20680063.8694
     -1267.4064
   7982793.87949   6196909.73947  22269383.7994   22269378.6544
     -3674.0314
  -1168699.23049   -907837.14648  21831272.1194   21831269.6704
       176.1884
 04  9  2 21 42 45.0020000  0  6G19G 3G 8G13G23G27
  -1695857.47448  -1313771.50144  24124176.5104   24124173.4474
      1445.8444
   -831182.65948   -643304.58145  23346902.4714   23346902.0294
      -417.3914
  -4248775.68249  -3299240.17145  23119626.5024   23119624.5414
      1403.2974
   1572788.04749   1222341.85848  20683695.8694   20683691.7404
     -1274.9374
   8037944.99649   6239884.62247  22279878.9324   22279874.2014
     -3679.5474
  -1171324.10149   -909882.48648  21830772.7754   21830770.2874
       173.5474
 04  9  2 21 43  0.0020000  0  6G19G 3G 8G13G23G27
  -1717516.46447  -1330648.61044  24120054.9324   24120051.5924
      1441.7814
   -824855.67748   -638374.47045  23348107.1664   23348106.3344
      -426.4374
  -4269807.03948  -3315628.23145  23115624.5964   23115622.7404
      1400.6414
   1591969.63949   1237288.55448  20687345.3384   20687342.1004
     -1282.8284
   8093179.15449   6282924.19947  22290389.5104   22290384.5844
     -3685.2814
  -1173908.19549   -911896.06248  21830280.9474   21830278.3034
       170.7344
 04  9  2 21 43 15.0020000  0  6G19G 3G 8G13G23G27
  -1739114.89246  -1347478.50744  24115944.0804   24115941.3184
      1438.1254
   -818393.33648   -633338.85644  23349336.5804   23349335.7294
      -435.0944
  -4290799.84448  -3331986.22745  23111629.9084   23111627.6274
      1398.5474
   1611267.59149   1252325.91447  20691017.9474   20691013.9674
     -1290.0784
   8148497.09349   6326029.07447  22300916.1354   22300911.8344
     -3690.3754
  -1176450.62249   -913877.16048  21829796.8074   21829794.7794
       168.3914
 04  9  2 21 43 30.0020000  0  6G19G 3G 8G13G23G27
  -1760655.91147  -1364263.66144  24111845.3224   24111842.8694
      1434.3444
   -811799.12648   -628200.49744  23350591.0724   23350591.0964
      -443.8124
  -4311757.45448  -3348316.82746  23107641.1824   23107639.4364
      1396.2504
   1630678.34949   1267451.18148  20694711.7604   20694707.6354
     -1297.5624
   8203895.12149   6369196.33647  22311457.7994   22311453.1664
     -3695.5944
  -1178955.04949   -915828.66448  21829320.8694   21829318.0414
       165.9064
 04  9  2 21 43 45.0020000  0  6G19G 3G 8G13G23G27
  -1782138.66047  -1381003.42544  24107756.7054   24107754.6044
      1430.0164
   -805072.27648   -622958.77745  23351872.0804   23351870.7564
      -453.0624
  -4332679.12148  -3364619.40046  23103660.2524   23103658.1974
      1393.4064
   1650202.59349   1282664.88047  20698426.9864   20698423.3114
     -1305.5944
   8259373.64449   6412426.34847  22322015.5494   22322010.6274
     -3701.4844
  -1181420.79949   -917750.02048  21828851.1434   21828848.7874
       162.9384
 04  9  2 21 44  0.0020000  0  6G19G 3G 8G13G23G27
  -1803554.74248  -1397691.23344  24103681.9794   24103679.7324
      1425.1254
   -798204.69248   -617607.40944  23353178.7134   23353177.5844
      -462.8594
  -4353556.96049  -3380887.82946  23099687.4634   23099685.5804
      1390.0474
   1669848.32249   1297973.24147  20702165.6114   20702161.5574
     -1314.0624
   8314940.44849   6455725.14547  22332590.0884   22332584.7324
     -3707.7034
  -1183840.00649   -919635.10448  21828391.1894   21828388.6934
       159.4384
 04  9  2 21 44 15.0020000  0  6G19G 3G 8G13G23G27
  -1824907.34448  -1414329.57044  24099618.3144   24099616.4044
      1421.5784
   -791199.74048   -612148.99344  23354511.3614   23354509.6664
      -471.4374
  -4374394.57549  -3397124.93046  23095721.7834   23095720.6544
      1387.9534
   1689612.13349   1313373.60047  20705926.4944   20705922.4714
     -1321.4374
   8370591.91749   6499089.90147  22343179.6974   22343174.3034
     -3712.7504
  -1186216.19649   -921486.66348  21827938.8694   21827936.7754
       157.0944
 04  9  2 21 44 30.0020000  0  6G19G 3G 8G13G23G27
  -1846195.46848  -1430917.67344  24095567.6194   24095565.4364
      1417.6414
   -784056.70048   -606582.97244  23355870.1194   23355868.9324
      -480.2194
  -4395191.37149  -3413330.20846  23091764.2054   23091762.9514
      1385.7194
   1709494.64249   1328866.46547  20709710.0254   20709705.7484
     -1328.8124
   8426328.54249   6542521.03247  22353786.0104   22353780.8814
     -3718.0004
  -1188548.81049   -923304.28848  21827494.8384   21827492.2914
       154.6414
 04  9  2 21 44 45.0020000  0  6G19G 3G 8G13G23G27
  -1867424.81548  -1447459.97044  24091527.9244   24091525.1044
      1413.0634
   -776781.39448   -600913.88844  23357254.5334   23357253.7094
      -489.6874
  -4415953.07349  -3429508.13046  23087813.7754   23087812.3384
      1382.6724
   1729490.02649   1344447.27248  20713514.8464   20713511.3574
     -1337.0474
   8482144.17949   6586013.70147  22364407.0724   22364402.2564
     -3723.9064
  -1190843.80549   -925092.57848  21827058.0884   21827056.1314
       151.5164
 04  9  2 21 45  0.0020000  0  6G19G 3G 8G13G23G27
  -1888593.03248  -1463954.62944  24087499.1194   24087496.8384
      1408.9534
   -769371.76248   -595140.12144  23358664.7994   23358664.3894
      -498.6254
  -4436677.90949  -3445657.35046  23083869.4864   23083868.5024
      1380.2194
   1749600.29049   1360117.60547  20717341.8694   20717338.0334
     -1344.7344
   8538040.66149   6629569.38847  22375044.2834   22375038.9594
     -3729.3284
  -1193099.22349   -926850.04548  21826628.7914   21826626.2604
       148.8444
 04  9  2 21 45 15.0020000  0  6G19G 3G 8G13G23G27
  -1909695.41147  -1480398.00144  24083483.7444   24083480.9394
      1404.5784
   -761823.18148   -589258.09844  23360100.9164   23360100.0214
      -507.9224
  -4457361.47048  -3461774.39046  23079933.8304   23079932.1584
      1377.4224
   1769829.86449   1375880.89947  20721191.4164   20721187.6314
     -1352.6414
   8594022.09549   6673191.25947  22385697.0644   22385691.6744
     -3735.0004
  -1195310.67349   -928573.23748  21826208.3304   21826205.8074
       145.9384
 04  9  2 21 45 30.0020000  0  6G19G 3G 8G13G23G27
  -1930734.12847  -1496791.75444  24079479.8774   24079477.7754
      1400.4224
   -754138.08748   -583269.70944  23361563.7604   23361562.2294
      -516.9694
  -4478006.27248  -3477861.23746  23076005.2994   23076003.5764
      1374.9694
   1790176.31049   1391735.28147  20725063.1974   20725059.3654
     -1360.4374
   8650085.84649   6716877.27747  22396365.6504   22396360.6584
     -3740.3754
  -1197480.72249   -930264.18348  21825795.2294   21825792.6784
       143.2034
 04  9  2 21 45 45.0020000  0  6G19G 3G 8G13G23G27
  -1951703.88247  -1513131.78144  24075489.7214   24075487.1864
      1395.8284
   -746311.47648   -577171.02844  23363053.6824   23363052.2054
      -526.2974
  -4498607.36948  -3493914.02646  23072084.5104   23072083.1234
      1372.1564
   1810644.67249   1407684.65348  20728958.3224   20728954.6154
     -1368.4844
   8706236.70249   6760631.17747  22407050.2214   22407046.1074
     -3746.1564
  -1199604.52849   -931919.09248  21825391.1434   21825389.1004
       140.1724
 04  9  2 21 46  0.0020000  0  6G19G 3G 8G13G23G27
  -1972608.37147  -1529420.92344  24071511.4864   24071508.3144
      1391.3754
   -738347.26248   -570965.13445  23364568.5804   23364567.9044
      -535.5944
  -4519168.66748  -3509935.79746  23068171.9084   23068170.7364
      1369.3914
   1831230.87949   1423725.84747  20732875.5804   20732871.7644
     -1376.4224
   8762470.43449   6804449.64247  22417751.6664   22417746.8854
     -3751.7034
  -1201686.14849   -933541.11448  21824995.2364   21824992.6864
       137.3284
 04  9  2 21 46 15.0020000  0  6G19G 3G 8G13G23G27
  -1993443.26947  -1545655.86544  24067547.5414   24067543.4324
      1386.8754
   -730241.47648   -564648.93244  23366111.4714   23366109.7914
      -544.9694
  -4539686.21848  -3525923.48146  23064268.1584   23064266.7294
      1366.5164
   1851938.94949   1439862.00847  20736816.3304   20736812.0494
     -1384.4224
   8818790.87049   6848335.66247  22428469.1824   22428464.3424
     -3757.4534
  -1203721.67649   -935127.24648  21824607.5254   21824604.5964
       134.3284
 04  9  2 21 46 30.0020000  0  6G19G 3G 8G13G23G27
  -2014207.25248  -1561835.50744  24063595.3224   24063591.9794
      1381.7504
   -721992.86048   -558221.43244  23367680.5724   23367679.9634
      -554.8124
  -4560159.01048  -3541876.28046  23060371.7364   23060370.3504
      1363.2504
   1872770.00849   1456093.99647  20740780.1664   20740776.5964
     -1392.9694
   8875198.82349   6892289.87447  22439202.6114   22439198.5804
     -3763.5314
  -1205710.06149   -936676.61448  21824229.1824   21824226.6314
       130.8594
 04  9  2 21 46 45.0020000  0  6G19G 3G 8G13G23G27
  -2034901.29948  -1577960.68444  24059657.4004   24059653.8304
      1377.4844
   -713602.75248   -551683.65944  23369277.3144   23369276.9324
      -563.8594
  -4580588.42149  -3557795.29146  23056484.5104   23056483.0534
      1360.6884
   1893722.66549   1472420.74547  20744767.4004   20744763.2094
     -1400.6724
   8931692.83149   6936311.14747  22449953.4554   22449948.7754
     -3768.9224
  -1207652.77349   -938190.40948  21823859.3224   21823857.0414
       128.1414
 04  9  2 21 47  0.0020000  0  6G19G 3G 8G13G23G27
  -2055527.07248  -1594032.68644  24055732.8144   24055729.7134
      1373.1414
   -705072.84548   -545036.97644  23370900.2994   23370899.3854
      -572.9844
  -4600976.43749  -3573682.03146  23052604.4714   23052603.1824
      1358.1564
   1914795.11849   1488840.82347  20748777.1434   20748773.0254
     -1408.4844
   8988270.77849   6980397.82947  22460720.4864   22460715.4004
     -3774.3284
  -1209551.74449   -939670.11548  21823497.9944   21823495.3654
       125.4694
 04  9  2 21 47 15.0020000  0  6G19G 3G 8G13G23G27
  -2076083.50248  -1610050.63944  24051821.0574   24051817.7094
      1368.0314
   -696402.37548   -538280.74944  23372550.2994   23372549.4244
      -582.7034
  -4621322.28348  -3589535.92245  23048732.3304   23048731.0574
      1354.9064
   1935988.07649   1505354.82548  20752810.2754   20752806.1894
     -1416.9224
   9044933.06349   7024550.23547  22471502.6744   22471497.6464
     -3780.3124
  -1211406.12049   -941115.07748  21823145.1194   21823142.4004
       122.0634
 04  9  2 21 47 30.0020000  0  6G19G 3G 8G13G23G27
  -2096572.55448  -1626016.09444  24047921.7834   24047918.7834
      1363.6414
   -687593.44948   -531416.64144  23374226.8694   23374225.8614
      -591.8754
  -4641628.45748  -3605358.90245  23044868.6894   23044867.2684
      1352.4534
   1957299.48549   1521961.11548  20756865.6824   20756861.4674
     -1424.7344
   9101677.37749   7068766.57446  22482301.0884   22482295.1504
     -3785.6874
  -1213218.43149   -942527.27148  21822800.5494   21822798.3144
       119.4064
 04  9  2 21 47 45.0020000  0  6G19G 3G 8G13G23G27
  -2116992.56448  -1641927.73144  24044035.8224   24044033.2324
      1358.6724
   -678644.80148   -524443.65244  23375929.7834   23375927.7294
      -601.6724
  -4661893.47148  -3621149.81145  23041012.4324   23041010.7604
      1349.1724
   1978730.52149   1538660.62747  20760944.1434   20760939.8384
     -1433.1724
   9158504.73249   7113047.61047  22493114.4244   22493109.4204
     -3791.7664
  -1214987.39049   -943905.66748  21822463.8074   21822461.3774
       116.0634
 04  9  2 21 48  0.0020000  0  6G19G 3G 8G13G23G27
  -2137339.66447  -1657782.57144  24040164.1584   24040160.1114
      1354.0944
   -669552.69748   -517358.86144  23377659.7754   23377658.8694
      -610.8284
  -4682113.66248  -3636905.78645  23037164.5334   23037163.1434
      1346.6414
   2000284.70649   1555456.08748  20765045.6894   20765041.5804
     -1441.0314
   9215418.53049   7157396.00446  22503944.6584   22503940.4554
     -3797.0474
  -1216709.38849   -945247.47448  21822136.2134   21822133.6004
       113.2504
 04  9  2 21 48 15.0020000  0  6G19G 3G 8G13G23G27
  -2157613.95747  -1673580.64244  24036305.9084   24036302.5144
      1348.9224
   -660317.39748   -510162.51544  23379417.0644   23379415.9714
      -620.7664
  -4702289.44248  -3652627.14846  23033325.1504   23033323.8774
      1343.1724
   2021961.86249   1572347.36447  20769170.3464   20769166.4794
     -1449.5624
   9272418.27649   7201811.35247  22514791.4554   22514786.4364
     -3803.1724
  -1218384.96949   -946553.11048  21821817.2364   21821815.4244
       109.8284
 04  9  2 21 48 30.0020000  0  6G19G 3G 8G13G23G27
  -2177814.41148  -1689321.19744  24032461.9084   24032458.7644
      1344.2814
   -650938.14948   -502854.00344  23381202.0574   23381200.5684
      -630.0784
  -4722420.10548  -3668313.36146  23029494.0724   23029493.0494
      1340.6254
   2043762.59749   1589334.95548  20773319.1434   20773315.2444
     -1457.5314
   9329504.43749   7246294.05947  22525654.6504   22525650.0104
     -3808.5314
  -1220013.37749   -947821.99648  21821507.3694   21821504.8114
       107.0164
 04  9  2 21 48 45.0020000  0  6G19G 3G 8G13G23G27
  -2197944.04547  -1705006.56444  24028631.3934   24028628.5614
      1339.2504
   -641418.20148   -495435.85344  23383012.9714   23383012.5924
      -639.7034
  -4742509.06348  -3683967.09146  23025671.2914   23025670.0724
      1337.5944
   2065683.59749   1606416.24948  20777490.2214   20777486.6114
     -1465.7504
   9386673.38949   7290841.27746  22536533.7294   22536528.6504
     -3814.4064
  -1221597.95749   -949056.73048  21821205.4864   21821203.7094
       103.7814
 04  9  2 21 49  0.0020000  0  6G19G 3G 8G13G23G27
  -2218001.02748  -1720635.32344  24024814.0574   24024811.7794
      1334.9694
   -631755.94648   -487906.80244  23384852.2214   23384850.5374
      -648.6254
  -4762554.83749  -3699587.14846  23021856.9864   23021855.2604
      1335.2504
   2087726.53449   1623592.57048  20781685.2054   20781681.3814
     -1473.3284
   9443926.62649   7335454.15447  22547428.7834   22547423.8814
     -3819.3444
  -1223137.32449   -950256.22848  21820912.9634   21820910.6314
       101.3754
 04  9  2 21 49 15.0020000  0  6G19G 3G 8G13G23G27
  -2237987.15747  -1736208.87644  24021010.7524   24021008.7914
      1330.1414
   -621953.56748   -480268.57144  23386718.5724   23386716.5494
      -658.0944
  -4782559.65349  -3715175.30246  23018049.7524   23018048.4124
      1332.4224
   2109889.18149   1640862.15947  20785902.9474   20785898.7794
     -1481.4064
   9501261.66949   7380130.79746  22558339.3074   22558334.3734
     -3825.0004
  -1224633.76049   -951422.27448  21820628.0884   21820625.9284
        98.3914
 04  9  2 21 49 30.0020000  0  6G19G 3G 8G13G23G27
  -2257895.68147  -1751721.91944  24017222.1274   24017219.8504
      1324.6724
   -612004.53248   -472516.08444  23388610.6194   23388609.4634
      -668.1564
  -4802517.03449  -3730726.48546  23014252.3614   23014250.9674
      1328.9384
   2132178.04349   1658230.09948  20790143.3694   20790140.0884
     -1490.1254
   9558684.76749   7424876.02247  22569266.2294   22569261.8074
     -3831.1724
  -1226080.83149   -952549.85548  21820352.9324   21820350.4864
        94.8914
 04  9  2 21 49 45.0020000  0  6G19G 3G 8G13G23G27
  -2277728.02948  -1767175.63044  24013448.2054   24013446.3224
      1319.6254
   -601910.40148   -464650.51744  23390531.9004   23390530.3464
      -677.8124
  -4822428.79548  -3746242.13246  23010463.2214   23010461.7684
      1325.9694
   2154591.44849   1675695.10448  20794409.1354   20794405.3074
     -1498.3594
   9616194.04048   7469688.41946  22580209.5574   22580205.6464
     -3836.8284
  -1227480.21249   -953640.27548  21820086.5184   21820084.4904
        91.7034
 04  9  2 21 50  0.0020000  0  6G19G 3G 8G13G23G27
  -2297484.26448  -1782570.04644  24009689.6114   24009685.9514
      1314.5314
   -591671.48248   -456672.11044  23392480.1744   23392479.1784
      -687.2974
  -4842295.15049  -3761722.38546  23006682.6974   23006681.0144
      1323.0004
   2177128.97349   1693256.79448  20798697.8224   20798693.9044
     -1506.5624
   9673788.96549   7514567.54346  22591170.0024   22591165.2954
     -3842.4694
  -1228832.37249   -954693.90448  21819829.3224   21819826.6194
        88.6564
 04  9  2 21 50 15.0020000  0  6G19G 3G 8G13G23G27
  -2317167.50348  -1797907.56344  24005943.4164   24005941.0104
      1309.8594
   -581291.04748   -448583.46544  23394455.0964   23394453.7604
      -696.5944
  -4862119.55548  -3777169.94746  23002910.4794   23002908.6974
      1320.3754
   2199787.22349   1710912.57148  20803009.4394   20803005.7794
     -1514.4374
   9731465.95649   7559510.62347  22602145.9324   22602140.4904
     -3847.7034
  -1230140.74949   -955713.41648  21819580.4864   21819577.9284
        85.9064
 04  9  2 21 50 30.0020000  0  6G19G 3G 8G13G23G27
  -2336779.20648  -1813189.34944  24002211.3224   24002207.7094
      1304.8914
   -570770.86348   -440385.89244  23396457.3304   23396455.4044
      -706.2194
  -4881903.69048  -3792586.14746  22999145.9084   22999144.2714
      1317.5004
   2222564.47649   1728661.08248  20807344.1894   20807339.8894
     -1522.5944
   9789222.88449   7604516.00647  22613136.5964   22613131.5924
     -3853.2664
  -1231407.09449   -956700.16948  21819339.1824   21819336.4324
        82.8914
 04  9  2 21 50 45.0020000  0  6G19G 3G 8G13G23G27
  -2356314.67448  -1828411.72644  23998494.0804   23998490.6314
      1299.7504
   -560106.41447   -432075.93544  23398487.0254   23398485.5764
      -715.9224
  -4901643.30148  -3807967.62546  22995389.5804   22995387.3934
      1314.4384
   2245465.21149   1746505.80948  20811701.7754   20811697.4794
     -1530.8754
   9847064.03449   7649587.00646  22624143.8694   22624138.3774
     -3858.9534
  -1232627.24749   -957650.93148  21819107.2134   21819104.5964
        79.7504
 04  9  2 21 51  0.0020000  0  6G19G 3G 8G13G23G27
  -2375775.29848  -1843575.79545  23994791.2604   23994787.7794
      1294.4694
   -549299.48348   -423654.91945  23400543.1354   23400542.5374
      -725.5784
  -4921340.04348  -3823315.70646  22991641.2914   22991639.4944
      1311.2504
   2268487.58949   1764445.32048  20816082.7994   20816078.6044
     -1539.2344
   9904987.36049   7694722.03747  22635166.0804   22635160.7404
     -3864.6724
  -1233802.87949   -958566.99948  21818883.1434   21818880.3424
        76.5164
 04  9  2 21 51 15.0020000  0  6G19G 3G 8G13G23G27
  -2395158.84348  -1858679.81244  23991102.1584   23991098.3114
      1289.6254
   -538347.93548   -415121.23944  23402626.6354   23402626.2644
      -734.9064
  -4940991.97149  -3838628.86946  22987901.1504   22987899.9674
      1308.6094
   2291633.61349   1782481.17748  20820487.7134   20820483.5644
     -1547.2504
   9962994.75349   7739922.58246  22646204.6114   22646199.6394
     -3870.0164
  -1234932.00949   -959446.83148  21818668.3544   21818665.7794
        73.7344
 04  9  2 21 51 30.0020000  0  6G19G 3G 8G13G23G27
  -2414467.69447  -1873725.61044  23987427.5104   23987423.8654
      1285.0314
   -527254.52548   -406477.01545  23404738.3304   23404737.3304
      -744.0784
  -4960602.01148  -3853909.39446  22984169.2684   22984167.3224
      1306.1724
   2314900.53249   1800611.24648  20824914.5964   20824910.8654
     -1554.9694
  10021083.25148   7785186.32546  22657258.1664   22657253.0804
     -3875.0784
  -1236017.46849   -960292.64048  21818461.8224   21818459.1504
        71.1564
 04  9  2 21 51 45.0020000  0  6G19G 3G 8G13G23G27
  -2433699.31847  -1888711.26244  23983767.2054   23983764.4904
      1279.5314
   -516016.98648   -397720.49344  23406876.8934   23406874.6464
      -753.8914
  -4980167.86848  -3869155.50146  22980446.7684   22980444.9164
      1303.0004
   2338290.58749   1818837.27248  20829365.8614   20829362.3574
     -1563.3124
  10079254.78548   7830514.77946  22668327.9474   22668322.8504
     -3880.8444
  -1237057.26549   -961102.86148  21818263.9714   21818261.3964
        67.9064
 04  9  2 21 52  0.0020000  0  6G19G 3G 8G13G23G27
  -2452848.77747  -1903632.85544  23980124.2364   23980121.0214
      1274.0474
   -504630.57248   -388847.93744  23409044.1274   23409041.9124
      -763.9224
  -4999685.05848  -3884363.66446  22976732.1194   22976730.7834
      1299.6414
   2361808.59749   1837162.98748  20833841.3544   20833837.6154
     -1571.9844
  10137513.94248   7875911.50046  22679414.2364   22679409.5454
     -3886.7664
  -1238046.69149   -961873.84948  21818075.5964   21818073.3184
        64.4064
 04  9  2 21 52 15.0020000  0  6G19G 3G 8G13G23G27
  -2471923.83647  -1918496.48244  23976493.7524   23976490.9434
      1269.1094
   -493103.20048   -379865.56044  23411237.1504   23411235.4794
      -773.1724
  -5019161.46748  -3899540.06146  22973025.7684   22973024.8894
      1296.9384
   2385446.38649   1855582.02948  20838339.2444   20838335.7994
     -1579.9374
  10195852.46049   7921370.04946  22690515.8934   22690510.8654
     -3892.0474
  -1238993.74849   -962611.79548  21817895.1584   21817892.7754
        61.5784
 04  9  2 21 52 30.0020000  0  6G19G 3G 8G13G23G27
  -2490919.90947  -1933298.60544  23972879.2294   23972875.3034
      1263.8284
   -481430.54448   -370769.97844  23413458.3694   23413457.1864
      -783.0624
  -5038592.87648  -3914681.38546  22969328.3224   22969326.9594
      1293.9844
   2409208.29549   1874097.81548  20842861.1504   20842857.6974
     -1588.2814
  10254274.35048   7966893.57846  22701632.6274   22701628.3894
     -3897.5164
  -1239894.19649   -963313.44048  21817723.9164   21817721.6624
        58.4844
 04  9  2 21 52 45.0020000  0  6G19G 3G 8G13G23G27
  -2509834.93048  -1948037.50544  23969279.7754   23969276.6354
      1258.2664
   -469611.05548   -361559.97644  23415706.9244   23415706.4364
      -792.8754
  -5057977.64449  -3929786.36746  22965639.5964   22965638.0294
      1290.7194
   2433095.95149   1892711.56848  20847407.2604   20847402.9474
     -1596.7194
  10312780.96749   8012483.13446  22712766.3224   22712761.0534
     -3903.2664
  -1240746.58449   -963977.62748  21817561.9944   21817559.4634
        55.2814
 04  9  2 21 53  0.0020000  0  6G19G 3G 8G13G23G27
  -2528669.55948  -1962713.79444  23965695.4554   23965691.9824
      1252.8444
   -457645.51648   -352236.17044  23417984.2294   23417983.1044
      -802.6254
  -5077316.71449  -3944855.75246  22961959.4004   22961957.9394
      1287.6564
   2457108.46249   1911422.61848  20851976.1194   20851972.3074
     -1605.0314
  10371371.24148   8058137.86446  22723915.5334   22723910.9434
     -3908.9064
  -1241551.74749   -964605.01548  21817408.3614   21817405.7324
        52.0314
 04  9  2 21 53 15.0020000  0  6G19G 3G 8G13G23G27
  -2547420.28348  -1977324.69044  23962127.0884   23962124.7754
      1247.3914
   -445530.61548   -342795.98345  23420290.5184   23420288.9754
      -812.5004
  -5096606.77249  -3959886.93346  22958288.9714   22958286.8774
      1284.4844
   2481249.14749   1930233.54148  20856570.1274   20856566.1624
     -1613.5474
  10430048.22248   8103860.16146  22735081.6434   22735076.6354
     -3914.5624
  -1242306.52249   -965193.14748  21817265.1114   21817262.3264
        48.7194
 04  9  2 21 53 30.0020000  0  6G19G 3G 8G13G23G27
  -2566093.68448  -1991875.35244  23958573.3854   23958569.8694
      1242.5634
   -433273.03848   -333244.62545  23422622.6434   23422620.7564
      -821.7034
  -5115854.64349  -3974885.25646  22954625.9864   22954623.8654
      1281.9534
   2505511.04449   1949138.91448  20861186.9164   20861183.3184
     -1621.3124
  10488804.91348   8149644.57747  22746262.8774   22746257.7994
     -3919.5944
  -1243017.93249   -965747.48748  21817129.5804   21817127.3934
        46.1414
 04  9  2 21 53 45.0020000  0  6G19G 3G 8G13G23G27
  -2584685.58848  -2006362.49944  23955035.8074   23955032.2294
      1236.7814
   -420868.96548   -323579.10245  23424982.6894   23424981.9864
      -831.8444
  -5135056.60949  -3989847.80146  22950972.0024   22950970.4474
      1278.5944
   2529898.03449   1968141.75448  20865827.6354   20865824.0024
     -1629.9694
  10547644.96748   8195493.92446  22757459.4084   22757454.3544
     -3925.5004
  -1243681.94249   -966264.88448  21817003.2364   21817000.4944
        42.7344
 04  9  2 21 54  0.0020000  0  6G19G 3G 8G13G23G27
  -2603196.25047  -2020786.35744  23951512.6894   23951510.2954
      1231.4384
   -408319.06548   -313799.94745  23427370.8464   23427370.4164
      -841.4374
  -5154213.42248  -4004775.17146  22947326.7364   22947325.0024
      1275.7034
   2554409.48849   1987241.58348  20870492.1274   20870488.6044
     -1638.0944
  10606567.35348   8241407.45246  22768672.1974   22768667.7404
     -3930.8284
  -1244299.41249   -966746.03448  21816886.2914   21816883.2994
        39.7194
 04  9  2 21 54 15.0020000  0  6G19G 3G 8G13G23G27
  -2621626.67346  -2035147.67644  23948005.6974   23948002.5574
      1226.0164
   -395624.39048   -303907.98845  23429786.4554   23429785.6044
      -851.1724
  -5173326.06348  -4019668.10646  22943689.9634   22943688.2874
      1272.7344
   2579044.17949   2006437.44548  20875179.8694   20875176.5214
     -1646.4224
  10665570.75548   8287384.09446  22779900.1434   22779895.2754
     -3936.2034
  -1244871.52949   -967191.82348  21816776.8934   21816774.7364
        36.6414
 04  9  2 21 54 30.0020000  0  6G19G 3G 8G13G23G27
  -2639976.38847  -2049446.11444  23944514.3614   23944511.2684
      1220.1884
   -382784.82648   -293903.13245  23432230.1354   23432228.8774
      -861.2034
  -5192394.60048  -4034526.67846  22940061.3544   22940058.8464
      1269.3914
   2603802.44349   2025729.59848  20879891.1974   20879887.7134
     -1655.1094
  10724655.12848   8333423.83846  22791143.3384   22791138.8074
     -3942.0944
  -1245398.14849   -967602.16148  21816676.7834   21816673.8184
        33.2034
 04  9  2 21 54 45.0020000  0  6G19G 3G 8G13G23G27
  -2658243.49048  -2063680.19544  23941038.0804   23941035.4754
      1215.2344
   -369798.78548   -283784.12345  23434700.8934   23434699.4864
      -870.3914
  -5211417.55848  -4049349.73946  22936441.0574   22936439.3694
      1266.8594
   2628685.64549   2045119.10748  20884626.3774   20884622.9324
     -1662.8914
  10783821.83448   8379527.74146  22802403.1894   22802398.1114
     -3947.0164
  -1245877.87849   -967975.96648  21816585.2754   21816582.9164
        30.5944
 04  9  2 21 55  0.0020000  0  6G19G 3G 8G13G23G27
  -2676430.35248  -2077851.73144  23937577.7444   23937573.7604
      1209.5164
   -356668.84548   -273553.01345  23437199.9244   23437198.6894
      -880.3284
  -5230397.28548  -4064139.12846  22932829.3074   22932827.5574
      1263.5944
   2653691.20249   2064603.95948  20889384.8694   20889380.9004
     -1671.3594
  10843068.10748   8425693.65046  22813677.3304   22813672.2604
     -3952.6254
  -1246313.31749   -968315.27248  21816502.5964   21816500.0104
        27.3134
 04  9  2 21 55 15.0020000  0  6G19G 3G 8G13G23G27
  -2694533.42548  -2091957.99444  23934132.2214   23934128.3934
      1204.1884
   -343391.64548   -263207.13245  23439725.8384   23439725.1864
      -889.8444
  -5249330.55849  -4078892.29746  22929226.0334   22929224.7914
      1260.8284
   2678822.36349   2084186.68248  20894166.8144   20894162.9204
     -1679.4694
  10902396.78748   8471923.76346  22824966.9394   22824961.9904
     -3957.8594
  -1246701.23949   -968617.53648  21816428.5884   21816425.9944
        24.4064
 04  9  2 21 55 30.0020000  0  6G19G 3G 8G13G23G27
  -2712552.48548  -2105998.77344  23930703.2754   23930700.1194
      1198.7814
   -329967.37348   -252746.64645  23442281.0574   23442280.0254
      -899.5784
  -5268217.57248  -4093609.43646  22925632.4794   22925630.7174
      1257.8444
   2704078.98549   2103867.15548  20898973.2294   20898969.4714
     -1687.6724
  10961807.58248   8518217.87046  22836272.1744   22836267.5144
     -3963.1414
  -1247041.88749   -968882.97148  21816363.6504   21816361.5924
        21.4064
 04  9  2 21 55 45.0020000  0  6G19G 3G 8G13G23G27
  -2730488.17648  -2119974.59644  23927291.0964   23927286.6074
      1192.5944
   -316396.91647   -242172.26644  23444862.7134   23444861.9084
      -909.9064
  -5287059.35148  -4108291.31646  22922046.9004   22922044.8384
      1254.3594
   2729460.13049   2123644.67548  20903803.0804   20903799.1824
     -1696.5474
  11021299.48848   8564575.18046  22847593.3614   22847588.3504
     -3969.0624
  -1247336.13549   -969112.24848  21816307.5724   21816305.1544
        17.7504
 04  9  2 21 56  0.0020000  0  6G19G 3G 8G13G23G27
  -2748337.18848  -2133882.88345  23923893.7054   23923890.3034
      1187.0164
   -302677.12647   -231481.50844  23447473.0804   23447472.7444
      -919.6564
  -5305852.94548  -4122935.65446  22918470.2834   22918468.2254
      1251.2034
   2754968.86049   2143521.60648  20908657.1044   20908653.1314
     -1704.9064
  11080875.21349   8610997.79646  22858930.1114   22858925.7564
     -3974.5944
  -1247581.03449   -969303.07848  21816260.9084   21816258.6934
        14.5784
 04  9  2 21 56 15.0020000  0  6G19G 3G 8G13G23G27
  -2766099.87448  -2147723.89345  23920513.8144   23920510.2644
      1181.2814
   -288808.79147   -220675.00945  23450112.5724   23450111.3544
      -929.5784
  -5324599.08948  -4137543.01946  22914903.2684   22914901.4164
      1248.1724
   2780604.42249   2163497.36348  20913535.6584   20913531.4434
     -1713.2344
  11140533.76648   8657484.94946  22870282.3694   22870278.0574
     -3979.9534
  -1247777.45349   -969456.11848  21816224.2214   21816221.2364
        11.4694
 04  9  2 21 56 30.0020000  0  6G19G 3G 8G13G23G27
  -2783781.66048  -2161501.87945  23917149.0884   23917145.6824
      1175.8134
   -274797.60348   -209757.18645  23452779.3854   23452778.0964
      -939.0314
  -5343303.30248  -4152117.70746  22911343.5334   22911342.1744
      1245.3134
   2806361.10949   2183567.50448  20918436.8614   20918433.3224
     -1721.3754
  11200269.22348   8704032.04646  22881650.0804   22881645.9164
     -3985.2194
  -1247931.07849   -969575.81348  21816194.4084   21816192.0294
         8.5474
 04  9  2 21 56 45.0020000  0  6G19G 3G 8G13G23G27
  -2801377.80148  -2175213.11045  23913800.3464   23913797.6664
      1170.2344
   -260638.90847   -198724.43045  23455473.0184   23455472.6154
      -948.7194
  -5361961.09448  -4166656.21846  22907793.3464   22907791.3854
      1242.3914
   2832243.40849   2203735.52848  20923362.2134   20923358.4044
     -1729.6724
  11260085.84949   8750642.37146  22893033.1044   22893028.1934
     -3990.5004
  -1248037.40149   -969658.65248  21816174.2524   21816171.6704
         5.5634
 04  9  2 21 57  0.0020000  0  6G19G 3G 8G13G23G27
  -2818889.04748  -2188858.21945  23910468.8074   23910465.0684
      1164.5944
   -246333.73447   -187577.55345  23458195.3544   23458195.2214
      -958.5474
  -5380573.62448  -4181159.47746  22904251.6354   22904249.6434
      1239.4064
   2858250.36049   2224000.69148  20928311.3694   20928307.4284
     -1737.8914
  11319982.60248   8797315.15446  22904430.4794   22904426.7604
     -3995.7664
  -1248097.54049   -969705.50248  21816163.0104   21816160.2444
         2.5474
 04  9  2 21 57 15.0020000  0  6G19G 3G 8G13G23G27
  -2836317.23448  -2202438.56145  23907151.9004   23907148.1504
      1159.4694
   -231884.24247   -176318.20145  23460944.9864   23460944.4824
      -967.8124
  -5399143.32948  -4195629.35046  22900717.5574   22900715.3034
      1236.8594
   2884379.72849   2244361.24448  20933283.3224   20933279.8614
     -1745.7504
  11379957.01948   8844048.43346  22915843.1434   22915839.6074
     -4000.5474
  -1248113.67049   -969718.05448  21816160.0104   21816157.2404
        -0.0944
 04  9  2 21 57 30.0020000  0  6G19G 3G 8G13G23G27
  -2853661.74048  -2215953.72345  23903850.7604   23903847.7994
      1153.6564
   -217290.18347   -164946.21645  23463722.3854   23463721.4554
      -977.6254
  -5417669.71948  -4210065.47346  22897192.8694   22897190.2794
      1233.8444
   2910631.83449   2264817.42048  20938279.2444   20938275.1154
     -1754.1094
  11440009.10648   8890842.24246  22927270.8614   22927266.4364
     -4005.8594
  -1248085.60649   -969696.18748  21816165.3774   21816162.4124
        -3.2344
 04  9  2 21 57 45.0020000  0  6G19G 3G 8G13G23G27
  -2870921.97348  -2229403.19644  23900566.5254   23900562.8734
      1148.0784
   -202551.11948   -153461.21244  23466526.9634   23466526.1394
      -987.2664
  -5436152.28548  -4224467.44446  22893675.2684   22893673.0494
      1230.9844
   2937006.97849   2285369.47248  20943297.9794   20943294.2484
     -1762.2664
  11500138.99849   8937696.66546  22938713.6194   22938709.0214
     -4011.0004
  -1248013.03249   -969639.62648  21816179.2604   21816176.4474
        -6.1414
 04  9  2 21 58  0.0020000  0  6G19G 3G 8G13G23G27
  -2888094.87748  -2242784.65045  23897298.7754   23897295.4674
      1141.9224
   -187664.31948   -141861.10644  23469359.7134   23469358.7684
      -997.4374
  -5454588.59448  -4238833.38746  22890166.4004   22890164.4514
      1227.5314
   2963507.80349   2306019.45848  20948341.1434   20948337.2484
     -1770.9374
  11560349.20248   8984613.69546  22950171.0804   22950166.6464
     -4016.6874
  -1247893.29249   -969546.31548  21816201.7214   21816199.3694
        -9.5474
 04  9  2 21 58 15.0020000  0  6G19G 3G 8G13G23G27
  -2905179.98048  -2256097.67745  23894047.7364   23894044.8774
      1136.0944
   -172629.48748   -130145.64844  23472220.7134   23472219.5414
     -1007.1724
  -5472978.15548  -4253162.91346  22886667.4004   22886665.4904
      1224.4384
   2990134.53249   2326767.57448  20953408.0494   20953404.3504
     -1779.2664
  11620639.74848   9031593.32046  22961644.0024   22961639.2564
     -4022.0474
  -1247726.13649   -969416.05648  21816233.6504   21816230.9364
       -12.7034
 04  9  2 21 58 30.0020000  0  6G19G 3G 8G13G23G27
  -2922180.06348  -2269344.45945  23890811.8544   23890809.4474
      1130.4694
   -157449.64548   -118317.19145  23475109.4794   23475108.0064
     -1016.7814
  -5491324.18448  -4267458.48446  22883175.9944   22883174.4084
      1221.5784
   3016884.11349   2347611.39748  20958498.2444   20958494.4594
     -1787.4694
  11681007.20948   9078632.86446  22973131.5184   22973126.9554
     -4027.0784
  -1247514.64249   -969251.25248  21816273.8464   21816271.3034
       -15.5944
 04  9  2 21 58 45.0020000  0  6G19G 3G 8G13G23G27
  -2939091.62148  -2282522.23845  23887593.8854   23887591.4044
      1124.5004
   -142121.72248   -106373.34245  23478026.8854   23478025.5294
     -1026.7344
  -5509623.51248  -4281717.67846  22879694.0334   22879692.1934
      1218.4534
   3043759.80149   2368553.49648  20963612.6974   20963608.6114
     -1795.8444
  11741454.71548   9125734.78146  22984633.9864   22984629.8184
     -4032.4064
  -1247255.81549   -969049.55748  21816323.0804   21816320.1894
       -18.8444
 04  9  2 21 59  0.0020000  0  6G19G 3G 8G13G23G27
  -2955916.00548  -2295632.10744  23884392.3304   23884388.8384
      1118.7974
   -126647.41048    -94315.44945  23480971.2444   23480969.8264
     -1036.4374
  -5527878.08548  -4295942.00646  22876220.2914   22876218.6464
      1215.5314
   3070759.87149   2389592.51548  20968750.5104   20968746.8894
     -1804.1094
  11801980.22648   9172897.49746  22996152.3544   22996146.6824
     -4037.5944
  -1246951.37749   -968812.32348  21816380.9944   21816378.1504
       -21.8444
 04  9  2 21 59 15.0020000  0  6G19G 3G 8G13G23G27
  -2972654.44048  -2308674.98445  23881207.5804   23881203.4284
      1113.5474
   -111028.23648    -82144.65245  23483943.5644   23483941.9824
     -1045.6874
  -5546089.13548  -4310132.40946  22872755.1044   22872753.3464
      1213.1094
   3097882.80749   2410727.26348  20973911.5884   20973908.1234
     -1811.7664
  11862582.12248   9220119.72546  23007683.4714   23007679.7014
     -4042.0944
  -1246602.75849   -968540.67148  21816447.2134   21816444.7014
       -24.1874
 04  9  2 21 59 30.0020000  0  6G19G 3G 8G13G23G27
  -2989308.74848  -2321652.34344  23878037.9944   23878034.0884
      1107.1564
    -95266.18448    -69862.51945  23486942.7444   23486941.5144
     -1055.7504
  -5564258.82248  -4324290.59146  22869297.2524   22869295.2644
      1209.7034
   3125126.37149   2431956.01248  20979095.9324   20979092.5104
     -1820.5624
  11923257.95648   9267399.57346  23019230.8694   23019225.8654
     -4047.8124
  -1246212.24849   -968236.37648  21816521.6044   21816519.2994
       -27.6874
 04  9  2 21 59 45.0020000  0  6G19G 3G 8G13G23G27
  -3005873.66147  -2334560.00844  23874884.6824   23874882.0924
      1101.4064
    -79356.19948    -57465.11744  23489969.8614   23489968.9984
     -1065.5164
  -5582382.10348  -4338412.61346  22865848.4634   22865846.3144
      1206.8134
   3152495.69649   2453282.75248  20984304.2684   20984300.6154
     -1828.7664
  11984012.58748   9314740.81546  23030791.4944   23030786.7294
     -4052.8594
  -1245774.66549   -967895.39148  21816604.6434   21816602.4674
       -30.7034
 04  9  2 22  0  0.0020000  0  6G19G 3G 8G13G23G27
  -3022354.12148  -2347401.87045  23871749.5804   23871746.9904
      1095.7814
    -63303.51848    -44956.51644  23493025.6504   23493023.4244
     -1074.9534
  -5600464.31648  -4352502.62346  22862407.4944   22862405.9084
      1204.0164
   3179985.41649   2474703.29848  20989535.3074   20989531.7294
     -1836.6724
  12044840.53648   9362139.16646  23042367.3934   23042362.5144
     -4057.7034
  -1245295.50349   -967522.01648  21816696.4084   21816693.6584
       -33.4224
 04  9  2 22  0 15.0020000  0  6G19G 3G 8G13G23G27
  -3038748.99948  -2360177.04945  23868629.5254   23868626.4984
      1090.1094
    -47107.27448    -32336.05845  23496107.3614   23496106.0534
     -1084.5314
  -5618504.36548  -4366559.78746  22858974.7524   22858972.4284
      1201.2974
   3207596.27949   2496218.26148  20994789.1664   20994785.6154
     -1844.8124
  12105742.47948   9409595.20046  23053956.1584   23053951.3264
     -4062.6724
  -1244773.78049   -967115.46548  21816795.1744   21816792.6934
       -36.1724
 04  9  2 22  0 30.0020000  0  7G19G 3G 8G13G10G23G27
  -3055054.04848  -2372882.25045  23865527.3774   23865523.7994
      1083.9844
    -30763.50548    -19600.64345  23499217.5184   23499215.8894
     -1094.5944
  -5636498.65548  -4380581.28546  22855549.7754   22855548.2874
      1198.0784
   3235332.16649   2517830.64548  21000067.5334   21000063.5844
     -1853.3444
    -45330.99357    -32111.43152  24829251.1274   24829250.1114
      1063.2344
  12166722.07048   9457111.73546  23065560.0334   23065555.4084
     -4068.0164
  -1244205.82949   -966672.90048  21816903.2444   21816900.3854
       -39.4844
 04  9  2 22  0 45.0020000  0  7G19G 3G 8G13G10G23G27
  -3071269.31748  -2385517.48045  23862441.9324   23862437.7254
      1078.5314
    -14272.60348     -6750.58445  23502355.6434   23502354.2094
     -1103.7814
  -5654447.35748  -4394567.27546  22852134.7604   22852132.8504
      1195.5634
   3263192.96449   2539540.35748  21005369.4324   21005365.3264
     -1861.0624
    -61221.93847    -44493.95542  24826227.4794   24826226.2444
      1055.9224
  12227778.88048   9504688.44646  23077179.1584   23077174.7874
     -4072.6254
  -1243591.83249   -966194.45748  21817020.4714   21817017.7214
       -41.9534
 04  9  2 22  1  0.0020000  0  7G19G 3G 8G13G10G23G27
  -3087396.87148  -2398084.36045  23859373.0184   23859370.0414
      1072.2344
      2362.99248      6212.24145  23505521.3304   23505520.0924
     -1113.9534
  -5672353.11048  -4408519.78446  22848727.8224   22848725.6434
      1192.3134
   3291176.20549   2561345.48048  21010694.1354   21010690.3224
     -1869.6414
    -76995.70846    -56785.19242  24823225.3854   24823224.9634
      1047.6414
  12288910.19248   9552323.19946  23088812.0574   23088807.3814
     -4077.9064
  -1242934.24249   -965682.03348  21817145.4004   21817142.9284
       -45.3124
 04  9  2 22  1 15.0020000  0  7G19G 3G 8G13G10G23G27
  -3103439.30748  -2410584.92245  23856319.2214   23856315.8034
      1066.5634
     19140.37348     19285.51845  23508713.6894   23508712.1234
     -1123.2974
  -5690218.76748  -4422441.05646  22845327.8464   22845325.7754
      1189.6724
   3319278.93849   2583243.70648  21016041.8304   21016038.2324
     -1877.5944
    -92654.95547    -68987.19242  24820246.3224   24820244.6824
      1040.0004
  12350112.90648   9600013.58646  23100458.7294   23100453.8734
     -4082.6564
  -1242236.06849   -965138.00148  21817278.1974   21817275.8144
       -48.0314
 04  9  2 22  1 30.0020000  0  7G19G 3G 8G13G10G23G27
  -3119395.35348  -2423018.15745  23853282.5334   23853278.6704
      1060.5474
     36060.71448     32470.22345  23511933.2364   23511931.8814
     -1132.9844
  -5708043.05549  -4436330.08946  22841935.4944   22841933.9004
      1186.6254
   3347502.16549   2605235.83048  21021413.0104   21021408.7794
     -1885.8124
   -108198.46947    -81098.98342  24817288.6744   24817287.0844
      1031.9844
  12411387.76248   9647760.21046  23112118.4084   23112114.2994
     -4087.6254
  -1241496.19849   -964561.46748  21817418.9864   21817416.7174
       -50.9224
 04  9  2 22  1 45.0020000  0  7G19G 3G 8G13G10G23G27
  -3135262.79748  -2435382.36445  23850263.9324   23850260.6194
      1054.7974
     53125.75748     45767.65744  23515180.5254   23515179.0924
     -1142.5004
  -5725824.24549  -4450185.53846  22838552.1194   22838550.5844
      1183.9064
   3375847.73449   2627323.28548  21026806.7134   21026802.6784
     -1893.8594
   -123624.19947    -93119.01542  24814353.2994   24814351.3894
      1024.4694
  12472736.46048   9695564.34546  23123793.4944   23123788.8544
     -4092.4224
  -1240712.82849   -963951.04348  21817568.0804   21817564.9634
       -53.7194
 04  9  2 22  2  0.0020000  0  7G19G 3G 8G13G10G23G27
  -3151037.88547  -2447674.57845  23847261.3614   23847258.7994
      1048.4844
     70339.09948     59180.65945  23518456.6354   23518454.8934
     -1152.6094
  -5743558.82049  -4464004.65846  22835177.1974   22835174.9394
      1180.6414
   3404319.12549   2649508.78848  21032224.6434   21032221.1194
     -1902.4064
   -138928.36347   -105044.33042  24811440.6114   24811439.4124
      1016.0634
  12534162.30748   9743428.62446  23135482.1434   23135477.6354
     -4097.7344
  -1239882.52349   -963304.05448  21817725.9634   21817723.3504
       -57.0624
 04  9  2 22  2 15.0020000  0  7G19G 3G 8G13G10G23G27
  -3166718.02648  -2459892.84145  23844278.3934   23844274.8074
      1042.7034
     87702.93848     72710.95545  23521760.2754   23521759.5064
     -1162.1564
  -5761244.50349  -4477785.69646  22831811.7834   22831809.7914
      1177.8444
   3432918.69349   2671794.15148  21037666.9004   21037663.3654
     -1910.5624
   -154108.57847   -116873.04042  24808551.6974   24808550.9324
      1008.3134
  12595667.23048   9791354.50046  23147186.0724   23147181.7714
     -4102.5164
  -1239003.09249   -962618.76848  21817893.4634   21817890.9434
       -59.9064
 04  9  2 22  2 30.0020000  0  7G19G 3G 8G13G10G23G27
  -3182308.27048  -2472041.03645  23841311.8074   23841307.1394
      1036.2194
    105212.17848     86354.50745  23525092.2294   23525091.6044
     -1172.3444
  -5778886.49949  -4491532.68346  22828454.7364   22828452.0844
      1174.5164
   3461641.07149   2694175.22948  21043132.6354   21043129.1584
     -1919.0164
   -169169.86147   -128609.08542  24805685.8144   24805684.6044
       999.9224
  12657245.90348   9839337.85346  23158903.8304   23158899.8734
     -4107.7504
  -1238079.68849   -961899.23048  21818068.9164   21818066.4364
       -63.0944
 04  9  2 22  2 45.0020000  0  7G19G 3G 8G13G10G23G27
  -3197808.90648  -2484119.40945  23838361.7364   23838357.9124
      1030.2344
    122865.92548    100110.68245  23528452.1894   23528451.2364
     -1181.7344
  -5796485.79549  -4505246.38746  22825105.4164   22825103.5334
      1171.7814
   3490485.48749   2716651.40348  21048621.5964   21048617.9554
     -1927.0314
   -184112.75646   -140252.90443  24802842.5254   24802840.6784
       992.2344
  12718897.33548   9887377.90146  23170635.5964   23170631.4004
     -4112.6094
  -1237113.23149   -961146.13948  21818253.1504   21818250.1744
       -65.9224
 04  9  2 22  3  0.0020000  0  7G19G 3G 8G13G10G23G27
  -3213219.24447  -2496127.41445  23835428.1194   23835425.4824
      1024.2814
    140664.75348    113979.90345  23531839.3224   23531837.9164
     -1191.5164
  -5814041.75849  -4518926.34246  22821764.9864   22821762.5574
      1168.8914
   3519452.40949   2739223.02748  21054133.7994   21054130.3224
     -1935.3124
   -198936.52246   -151803.85042  24800021.1274   24800020.3614
       984.0944
  12780621.59348   9935474.69546  23182381.4004   23182377.8574
     -4117.3754
  -1236103.12249   -960359.03048  21818445.5334   21818442.6314
       -68.8914
 04  9  2 22  3 15.0020000  0  7G19G 3G 8G13G10G23G27
  -3228543.21748  -2508068.14844  23832512.9634   23832508.0574
      1018.7664
    158604.33048    127958.80045  23535252.1194   23535250.9514
     -1200.5784
  -5831558.44749  -4532575.69346  22818431.5334   22818429.2524
      1166.5474
   3548537.51349   2761886.72648  21059668.1744   21059664.5414
     -1942.8594
   -213645.24946   -163265.14742  24797221.7134   24797221.0334
       976.8444
  12842414.33248   9983624.84246  23194140.3464   23194136.3814
     -4121.7194
  -1235053.77449   -959541.34748  21818644.7444   21818642.2254
       -71.2664
 04  9  2 22  3 30.0020000  0  7G19G 3G 8G13G10G23G27
  -3243775.47048  -2519937.42045  23829614.6894   23829609.0334
      1012.8444
    176689.67648    142051.30045  23538694.2604   23538692.9794
     -1210.1254
  -5849030.95749  -4546190.59646  22815106.5644   22815104.3814
      1163.7194
   3577745.91649   2784646.53248  21065226.7134   21065223.3074
     -1950.9844
   -228233.61246   -174632.70342  24794445.3544   24794444.8574
       969.0004
  12904280.38048  10031832.12646  23205913.0804   23205908.9324
     -4126.4534
  -1233960.07249   -958689.10548  21818853.3614   21818850.3734
       -74.0474
 04  9  2 22  3 45.0020000  0  7G19G 3G 8G13G10G23G27
  -3258920.72348  -2531738.86745  23826731.1194   23826728.7254
      1006.7664
    194916.00048    156253.65845  23542162.2294   23542160.7994
     -1219.7194
  -5866464.26749  -4559774.97746  22811789.5184   22811787.2874
      1160.9534
   3607072.59849   2807498.47748  21070807.4394   21070803.7444
     -1959.0314
   -242706.49646   -185910.22942  24791691.2364   24791690.8034
       961.0164
  12966214.69848  10080092.59646  23217698.7054   23217694.9674
     -4131.2194
  -1232826.95849   -957806.15348  21819068.8384   21819066.3074
       -76.8444
 04  9  2 22  4  0.0020000  0  7G19G 3G 8G13G10G23G27
  -3273973.19348  -2543468.02145  23823868.2214   23823864.7754
      1000.4064
    213288.59049    170569.95345  23545658.1744   23545657.5374
     -1229.7034
  -5883852.86849  -4573324.51546  22808479.8544   22808478.0214
      1157.7504
   3636522.90949   2830446.78048  21076411.4084   21076407.9944
     -1967.4374
   -257058.30546   -197093.44443  24788960.4474   24788959.8694
       952.6884
  13028222.35848  10128410.23346  23229498.7444   23229494.4474
     -4136.3124
  -1231649.17349   -956888.39448  21819292.5494   21819289.7604
       -80.0004
 04  9  2 22  4 15.0020000  0  7G19G 3G 8G13G10G23G27
  -3288931.27547  -2555123.63945  23821020.8854   23821017.0614
       994.0314
    231808.57448    185001.12144  23549182.6434   23549181.5184
     -1239.5314
  -5901195.78449  -4586838.44846  22805179.9794   22805177.8344
      1154.6414
   3666098.18549   2853492.44048  21082039.5964   21082036.1784
     -1975.8754
   -271287.46746   -208181.09843  24786252.9794   24786252.0924
       944.5314
  13090304.54048  10176785.93446  23241312.3074   23241308.0184
     -4141.3124
  -1230425.42149   -955934.81248  21819525.5104   21819522.7564
       -83.1414
 04  9  2 22  4 30.0020000  0  7G19G 3G 8G13G10G23G27
  -3303795.06747  -2566705.80445  23818193.0804   23818188.8144
       988.0634
    250475.62048    199546.88145  23552735.6744   23552733.6894
     -1249.0944
  -5918493.01549  -4600316.79046  22801888.9794   22801886.0614
      1151.8914
   3695797.79449   2876634.99548  21087691.4324   21087687.4004
     -1983.8594
   -285394.19746   -219173.32443  24783568.6584   24783567.1544
       936.7034
  13152460.43148  10225219.04646  23253139.7914   23253136.2404
     -4145.8754
  -1229156.10949   -954945.73548  21819767.3614   21819764.4394
       -85.9064
 04  9  2 22  4 45.0020000  0  7G19G 3G 8G13G10G23G27
  -3318568.35948  -2578217.42545  23815381.9554   23815379.2364
       981.9064
    269285.85448    214204.22144  23556314.5334   23556313.2794
     -1258.7344
  -5935748.77449  -4613762.81546  22798604.8614   22798602.6434
      1149.0634
   3725618.04549   2899871.55148  21093365.7754   21093361.9714
     -1992.0004
   -299382.23346   -230073.04343  24780906.5644   24780905.7794
       928.6094
  13214685.94748  10273706.44346  23264981.6664   23264977.6464
     -4150.6874
  -1227845.22149   -953924.25248  21820016.4324   21820013.9594
       -88.8284
 04  9  2 22  5  0.0030000  0  7G19G 3G 8G13G10G23G27
  -3333250.03747  -2589657.63045  23812587.1084   23812584.9564
       975.6094
    288242.41448    228975.56444  23559921.5154   23559920.5154
     -1268.5944
  -5952962.32449  -4627175.94746  22795329.1474   22795327.3124
      1145.9844
   3755562.62149   2923204.98548  21099064.0624   21099060.8544
     -2000.3284
   -313250.52446   -240879.48643  24778267.7414   24778266.8194
       920.4844
  13276986.86748  10322252.59645  23276836.8744   23276832.5154
     -4155.5314
  -1226490.93049   -952868.95248  21820274.1014   21820271.7294
       -91.7974
 04  9  2 22  5 15.0030000  0  7G19G 3G 8G13G10G23G27
  -3347841.86347  -2601027.86645  23809810.9914   23809806.0624
       969.7974
    307338.62048    243855.73744  23563555.3434   23563554.1754
     -1277.8594
  -5970135.24149  -4640557.42846  22792061.1404   22792059.2924
      1143.4844
   3785623.44349   2946628.99548  21104784.5854   21104780.8274
     -2008.0314
   -327001.12546   -251594.23543  24775650.8664   24775650.1944
       912.6564
  13339350.51748  10370847.60046  23288704.0224   23288700.2964
     -4159.9694
  -1225097.36149   -951783.04848  21820539.5624   21820536.9684
       -94.2664
 04  9  2 22  5 30.0030000  0  7G19G 3G 8G13G10G23G27
  -3362342.82347  -2612327.29445  23807051.7724   23807048.2334
       963.5164
    326577.32849    258846.93445  23567216.7334   23567215.7374
     -1287.6254
  -5987267.19249  -4653906.98146  22788801.1324   22788799.2104
      1140.5474
   3815804.02249   2970146.32848  21110527.4684   21110523.9174
     -2016.3124
   -340633.06745   -262216.49843  24773056.9054   24773055.8124
       904.4844
  13401782.51048  10419495.88246  23300585.1014   23300580.1874
     -4164.7034
  -1223662.94749   -950665.31748  21820812.0854   21820810.2144
       -97.2974
 04  9  2 22  5 45.0030000  0  7G19G 3G 8G13G10G23G27
  -3376748.83747  -2623552.71845  23804309.0304   23804307.2694
       957.2814
    345962.26548    273952.09344  23570905.4524   23570903.9134
     -1297.1254
  -6004354.38549  -4667221.65246  22785549.2184   22785547.2184
      1137.8284
   3846108.26049   2993760.01748  21116294.2264   21116290.3904
     -2024.2664
   -354142.26346   -272743.09043  24770485.8514   24770485.0304
       896.6254
  13464286.45848  10468200.22346  23312479.9994   23312474.8274
     -4169.2974
  -1222183.79249   -949512.73148  21821094.2024   21821091.4954
      -100.0164
 04  9  2 22  6  0.0030000  0  7G19G 3G 8G13G10G23G27
  -3391061.61247  -2634705.48945  23801586.7654   23801582.6244
       951.3594
    365491.62148    289169.79044  23574621.2104   23574619.8274
     -1306.6724
  -6021398.72049  -4680502.93246  22782305.8584   22782303.8544
      1135.0004
   3876534.10849   3017468.47048  21122084.2024   21122080.3974
     -2032.3284
   -367530.54946   -283175.46443  24767938.7724   24767937.0584
       888.4844
  13526860.15648  10516958.91846  23324386.8274   23324382.6904
     -4173.7664
  -1220661.89149   -948326.81548  21821383.6874   21821380.8744
      -102.7504
 04  9  2 22  6 15.0030000  0  7G19G 3G 8G13G10G23G27
  -3405282.72847  -2645786.86645  23798880.3974   23798875.6674
       944.7974
    385163.44648    304498.50044  23578365.4294   23578363.2494
     -1316.3594
  -6038402.13249  -4693752.32646  22779069.8744   22779068.2924
      1132.0314
   3907079.78549   3041270.28748  21127896.5774   21127893.4994
     -2040.4694
   -380799.58146   -293514.94343  24765414.3194   24765412.4834
       880.4694
  13589501.52148  10565770.31846  23336307.0074   23336302.7454
     -4178.4374
  -1219099.05149   -947109.01348  21821680.8124   21821678.2454
      -105.7344
 04  9  2 22  6 30.0030000  0  7G19G 3G 8G13G10G23G27
  -3419408.96047  -2656794.28844  23796191.6014   23796188.1674
       938.7194
    404980.66648    319940.49744  23582135.8044   23582134.5654
     -1325.8754
  -6055361.74649  -4706967.59046  22775842.5694   22775841.0654
      1129.3444
   3937748.01049   3065167.61348  21133732.5934   21133729.0344
     -2048.4844
   -393946.22246   -303759.05943  24762911.5464   24762910.8584
       872.4064
  13652213.10548  10614636.47546  23348241.0224   23348235.9914
     -4182.9374
  -1217492.64249   -945857.25848  21821986.9524   21821984.3154
      -108.4694
 04  9  2 22  6 45.0030000  0  7G19G 3G 8G13G10G23G27
  -3433443.00147  -2667729.85845  23793520.6944   23793517.9724
       932.2814
    424940.23749    335493.42244  23585935.2494   23585932.8784
     -1335.6094
  -6072280.63649  -4720151.11646  22772623.3124   22772621.5974
      1126.2974
   3968535.84249   3089158.12048  21139591.2654   21139587.7614
     -2056.6724
   -406973.41546   -313910.08643  24760433.2024   24760431.8354
       864.2664
  13714991.88148  10663554.96046  23360186.6084   23360182.3084
     -4187.6724
  -1215845.51449   -944573.77448  21822300.3824   21822297.5934
      -111.3444
 04  9  2 22  7  0.0030000  0  7G19G 3G 8G13G10G23G27
  -3447380.94447  -2678590.57245  23790869.0304   23790865.2064
       926.1724
    445045.84948    351160.15444  23589760.3904   23589758.9724
     -1345.1094
  -6089154.97149  -4733299.92946  22769411.9134   22769410.3904
      1123.5944
   3999446.86749   3113244.63748  21145473.7654   21145470.0854
     -2064.7034
   -419877.21846   -323964.96143  24757977.6014   24757975.4954
       856.2814
  13777841.19048  10712528.40845  23372146.1874   23372142.7534
     -4192.1564
  -1214154.07549   -943255.75748  21822621.9054   21822619.6044
      -114.0784
 04  9  2 22  7 15.0030000  0  7G19G 3G 8G13G10G23G27
  -3461225.48047  -2689378.50545  23788234.1014   23788230.4134
       919.8594
    465294.45948    366938.31444  23593612.9524   23593611.5344
     -1354.6094
  -6105987.51449  -4746416.18146  22766209.2184   22766206.9834
      1120.8444
   4030478.11749   3137424.83148  21151378.4764   21151374.9014
     -2072.6094
   -432660.29846   -333925.78843  24755544.5224   24755543.3744
       848.1884
  13840757.87748  10761554.38346  23384119.1474   23384115.0774
     -4196.5944
  -1212421.24949   -941905.49048  21822951.4444   21822949.0034
      -116.8284
 04  9  2 22  7 30.0030000  0  7G19G 3G 8G13G10G23G27
  -3474978.40947  -2700095.04545  23785617.4834   23785613.7294
       913.7814
    485683.88448    382826.19244  23597493.1404   23597491.9054
     -1363.9224
  -6122780.76149  -4759501.80646  22763013.5934   22763011.6834
      1118.2034
   4061627.40549   3161696.99648  21157306.1554   21157302.5734
     -2080.5474
   -445324.80247   -343794.22943  24753134.5934   24753132.4724
       840.3444
  13903739.50348  10810630.93245  23396104.0694   23396099.9174
     -4200.9224
  -1210649.26649   -940524.72548  21823288.7964   21823286.0224
      -119.4064
 04  9  2 22  7 45.0030000  0  7G19G 3G 8G13G10G23G27
  -3488639.26747  -2710739.83645  23783017.1874   23783013.8314
       907.3914
    506214.28348    398823.91545  23601400.3514   23601399.1714
     -1373.6094
  -6139534.31349  -4772556.49746  22759825.3974   22759823.5344
      1115.3284
   4092894.77549   3186061.17448  21163255.8974   21163252.8394
     -2088.6564
   -457870.28746   -353569.85743  24750747.0624   24750745.8004
       832.1254
  13966786.12448  10859758.14545  23408101.7884   23408098.0074
     -4205.5624
  -1208837.83549   -939113.20548  21823633.4764   21823631.0304
      -122.3284
 04  9  2 22  8  0.0030000  0  7G19G 3G 8G13G10G23G27
  -3502202.70548  -2721308.73545  23780437.0464   23780432.6714
       901.1254
    526890.65248    414935.38344  23605334.9834   23605333.0194
     -1383.1254
  -6156243.25349  -4785576.44547  22756645.8584   22756643.3394
      1112.5634
   4124285.28949   3210521.31948  21169229.5304   21169225.8864
     -2096.6254
   -470291.63446   -363248.85643  24748383.8124   24748381.8194
       824.1564
  14029902.50948  10908939.71045  23420112.3434   23420108.0624
     -4209.8754
  -1206982.17149   -937667.23548  21823986.5304   21823984.3544
      -125.0164
 04  9  2 22  8 15.0030000  0  7G19G 3G 8G13G10G23G27
  -3515668.97048  -2731801.89645  23777873.8974   23777870.0154
       894.6094
    547712.48948    431160.20544  23609296.7334   23609295.2884
     -1392.8124
  -6172907.95849  -4798561.91046  22753474.6474   22753472.7574
      1109.6414
   4155798.47149   3235077.03248  21175226.0934   21175222.7374
     -2104.7974
   -482588.97946   -372831.16943  24746043.3514   24746041.7144
       815.8134
  14093087.94148  10958175.09445  23432135.7574   23432131.5194
     -4214.5004
  -1205082.65649   -936187.08648  21824348.3744   21824345.3664
      -127.9694
 04  9  2 22  8 30.0030000  0  7G19G 3G 8G13G10G23G27
  -3529040.93047  -2742221.58645  23775329.6634   23775325.5194
       888.6884
    568676.62549    447495.91545  23613286.6714   23613285.0114
     -1402.0474
  -6189531.59049  -4811515.36646  22750311.0304   22750309.0384
      1107.1254
   4187431.08149   3259725.82348  21181245.3744   21181242.3314
     -2112.4844
   -494765.22547   -382319.14243  24743725.8974   24743724.9684
       808.0164
  14156339.03348  11007461.61945  23444172.7574   23444168.5264
     -4218.6724
  -1203142.35249   -934675.14348  21824717.5624   21824714.9724
      -130.3914
 04  9  2 22  8 45.0030000  0  7G19G 3G 8G13G10G23G27
  -3542318.78047  -2752567.94045  23772802.3974   23772798.6044
       881.4064
    589782.58848    463942.12644  23617302.6874   23617301.6244
     -1412.4064
  -6206114.52749  -4824437.12946  22747155.6324   22747153.3314
      1103.5784
   4219182.68349   3284467.31548  21187287.6874   21187284.2964
     -2121.3594
   -506820.69747   -391712.98743  24741432.7414   24741430.9994
       799.0164
  14219655.03348  11056798.71745  23456220.9604   23456216.9564
     -4223.8914
  -1201161.91949   -933131.94448  21825094.2884   21825091.6324
      -134.0164
 04  9  2 22  9  0.0030000  0  7G19G 3G 8G13G10G23G27
  -3555498.97847  -2762838.19645  23770293.9444   23770290.5544
       875.1094
    611033.42049    480501.23245  23621346.7264   23621345.7534
     -1421.7664
  -6222653.62049  -4837324.71047  22744007.6474   22744005.9644
      1101.0004
   4251056.40449   3309303.98148  21193353.4214   21193349.7964
     -2129.1724
   -518752.08847   -401010.15343  24739161.4444   24739160.5654
       791.0314
  14283038.94848  11106188.76545  23468282.8354   23468278.5224
     -4228.0164
  -1199138.07249   -931554.91348  21825479.7654   21825477.1244
      -136.5004
 04  9  2 22  9 15.0030000  0  7G19G 3G 8G13G10G23G27
  -3568583.53847  -2773033.93145  23767804.9604   23767801.1364
       868.8284
    632426.97349    497171.53545  23625417.6404   23625416.0504
     -1431.2194
  -6239151.18149  -4850179.93446  22740868.7724   22740866.4684
      1098.2344
   4283050.00149   3334234.06548  21199441.6404   21199437.6124
     -2137.1254
   -530561.49547   -410212.25443  24736914.7334   24736913.8274
       783.0164
  14346488.39148  11155629.86845  23480356.7804   23480352.6554
     -4232.4064
  -1197072.96449   -929945.72648  21825872.3194   21825869.5424
      -139.2664
 04  9  2 22  9 30.0030000  0  7G19G 3G 8G13G10G23G27
  -3581570.54647  -2783153.64645  23765333.2884   23765329.5114
       862.4694
    653964.81948    513954.30645  23629516.1014   23629515.4174
     -1440.7344
  -6255605.60649  -4863001.54646  22737737.4444   22737735.3704
      1095.4534
   4315165.12249   3359258.82348  21205552.8824   21205549.1944
     -2145.1094
   -542247.02147   -419317.83143  24734690.6324   24734689.5654
       774.8284
  14410004.76048  11205123.08845  23492443.2494   23492438.9524
     -4236.6564
  -1194965.11449   -928303.23848  21826273.3904   21826270.9794
      -142.0314
 04  9  2 22  9 45.0030000  0  7G19G 3G 8G13G10G23G27
  -3594461.92947  -2793198.84745  23762880.7724   23762876.2764
       856.1884
    675644.59048    530847.63745  23633641.5074   23633640.7724
     -1450.1094
  -6272018.98749  -4875791.17546  22734614.0934   22734611.7964
      1092.8134
   4347399.24749   3384376.32548  21211686.5854   21211682.7654
     -2152.9694
   -553810.74047   -428328.52443  24732489.9604   24732489.4954
       766.7344
  14473585.51548  11254666.52345  23504542.9294   23504537.9794
     -4240.8594
  -1192816.75049   -926629.18648  21826682.6084   21826679.7964
      -144.6414
 04  9  2 22 10  0.0030000  0  7G19G 3G 8G13G10G23G27
  -3607256.31247  -2803168.47045  23760445.6634   23760441.4834
       849.4064
    697467.44348    547852.48245  23637794.6874   23637793.2414
     -1459.9844
  -6288390.46549  -4888548.15747  22731498.8514   22731496.5654
      1089.7194
   4379753.63949   3409587.53048  21217843.7184   21217840.0894
     -2161.3124
   -565251.41047   -437243.30143  24730312.9684   24730311.6904
       758.3284
  14537231.53148  11304260.78045  23516653.8744   23516649.8434
     -4245.5474
  -1190626.82849   -924922.74648  21827098.5624   21827096.2534
      -147.6874
 04  9  2 22 10 15.0030000  0  7G19G 3G 8G13G10G23G27
  -3619951.95247  -2813061.14145  23758028.9054   23758025.3514
       843.1414
    719434.81149    564969.92845  23641975.3744   23641973.5304
     -1469.2814
  -6304718.45149  -4901271.24847  22728391.4684   22728389.4914
      1087.1414
   4412229.59149   3434893.46148  21224023.4604   21224019.7224
     -2168.9534
   -576567.42947   -446060.95943  24728159.6874   24728158.7104
       750.3754
  14600944.02048  11353906.83045  23528778.0694   23528774.1444
     -4249.6094
  -1188393.93649   -923182.81748  21827523.9054   21827521.0424
      -150.2194
 04  9  2 22 10 30.0030000  0  7G19G 3G 8G13G10G23G27
  -3632546.28048  -2822874.87845  23755632.9604   23755629.4484
       836.3594
    741548.87948    582201.68945  23646182.3194   23646182.1754
     -1478.9844
  -6321000.52049  -4913958.55246  22725293.1244   22725291.1244
      1084.0944
   4444829.39749   3460295.90848  21230226.7884   21230223.5734
     -2177.3124
   -587756.22447   -454779.48943  24726030.2884   24726029.3744
       741.8754
  14664725.07448  11403606.32645  23540916.0624   23540911.8824
     -4254.2034
  -1186115.69049   -921407.55548  21827957.2964   21827954.8154
      -153.2194
 04  9  2 22 10 45.0030000  0  7G19G 3G 8G13G10G23G27
  -3645044.85348  -2832614.00145  23753254.4604   23753249.6944
       829.8594
    763803.73849    599543.14145  23650418.4134   23650416.7374
     -1488.4844
  -6337242.57249  -4926614.68646  22722202.2494   22722200.4374
      1081.3284
   4477547.06949   3485790.19648  21236453.1244   21236449.5154
     -2185.2504
   -598823.50147   -463403.29943  24723924.0694   24723923.7374
       733.6414
  14728568.60848  11453354.50845  23553064.8044   23553060.1754
     -4258.4534
  -1183797.96649   -919601.53648  21828398.1554   21828395.7534
      -156.0314
 04  9  2 22 11  0.0030000  0  7G19G 3G 8G13G10G23G27
  -3657441.00047  -2842273.30945  23750895.4444   23750891.6834
       822.8594
    786205.72549    616999.24745  23654681.3744   23654679.1984
     -1498.4844
  -6353438.18949  -4939234.63146  22719120.4994   22719118.5304
      1078.0314
   4510389.24348   3511381.49548  21242702.6084   21242699.4914
     -2193.7814
   -609762.68347   -471927.34643  24721842.6244   24721841.5974
       724.8284
  14792480.77948  11503156.16745  23565226.5224   23565222.7184
     -4263.1724
  -1181434.49649   -917759.85948  21828848.3044   21828846.0624
      -159.2664
 04  9  2 22 11 15.0030000  0  7G19G 3G 8G13G10G23G27
  -3669737.92147  -2851855.28945  23748555.1554   23748552.3784
       816.3754
    808751.48648    634567.37344  23658970.7884   23658969.1284
     -1507.8754
  -6369590.72849  -4951821.00346  22716046.6794   22716044.8744
      1075.4224
   4543352.06349   3537066.80348  21248975.0624   21248971.7024
     -2201.5474
   -620577.05847   -480354.06043  24719785.1164   24719783.7964
       716.7814
  14856457.92248  11553008.44345  23577401.2494   23577397.1634
     -4267.4224
  -1179028.63649   -915885.16248  21829305.9604   21829303.6204
      -161.8284
 04  9  2 22 11 30.0030000  0  8G19G 3G 8G13G10G28G23G27
  -3681933.18048  -2861358.07045  23746234.6794   23746230.1874
       809.8134
    831443.06149    652249.15345  23663289.4374   23663286.9134
     -1517.4224
  -6385698.14649  -4964372.22046  22712981.4834   22712979.6204
      1072.5314
   4576437.82149   3562847.91148  21255271.3824   21255267.7144
     -2209.6874
   -631264.25447   -488681.75043  24717751.6164   24717749.7414
       708.4224
    -88332.23957    -58530.68253  25084305.8744   25084305.8154
      2263.5004
  14920501.99348  11602912.89145  23589588.4524   23589583.4794
     -4271.5314
  -1176578.22149   -913975.73548  21829772.1874   21829769.8194
      -164.5944
 04  9  2 22 11 45.0030000  0  8G19G 3G 8G13G10G28G23G27
  -3694031.38848  -2870785.23645  23743932.7654   23743928.4254
       803.0164
    854275.46748    670040.62545  23667633.9294   23667632.6404
     -1527.2034
  -6401765.36249  -4976892.11246  22709924.3514   22709922.2454
      1069.3914
   4609641.48149   3588720.89648  21261589.7104   21261586.1364
     -2217.8594
   -641829.11947   -496914.11043  24715740.3434   24715739.5304
       700.0004
   -122269.27547    -84975.02843  25077846.4134   25077846.9604
      2261.0004
  14984607.82048  11652865.46045  23601787.3744   23601783.1794
     -4276.0164
  -1174088.20249   -912035.45748  21830246.3354   21830243.3004
      -167.6564
 04  9  2 22 12  0.0030000  0  8G19G 3G 8G13G10G28G23G27
  -3706031.73747  -2880136.12445  23741649.0934   23741644.8904
       796.8134
    877249.10948    687942.18544  23672005.8664   23672004.2454
     -1536.3124
  -6417791.84649  -4989380.24547  22706874.7414   22706872.5934
      1067.1094
   4642963.55149   3614686.13848  21267930.8274   21267927.5694
     -2225.3914
   -652270.82447   -505050.46043  24713753.6014   24713752.4914
       692.0634
   -156173.15347   -111393.54143  25071395.1014   25071395.3514
      2259.2194
  15048775.62048  11702866.28545  23613997.8744   23613994.2804
     -4279.9534
  -1171558.06049   -910063.90548  21830727.7494   21830724.6364
      -169.9844
 04  9  2 22 12 15.0030000  0  8G19G 3G 8G13G10G28G23G27
  -3717930.14947  -2889407.59045  23739384.8354   23739380.7844
       789.8914
    900367.91948    705956.83744  23676404.4294   23676403.5224
     -1546.0624
  -6433773.87149  -5001833.75147  22703832.9294   22703831.1874
      1064.0474
   4676407.79849   3640746.58948  21274294.8664   21274291.3434
     -2233.6414
   -662585.52847   -513087.85443  24711790.1164   24711789.5934
       683.4694
   -190039.84947   -137783.10643  25064950.4764   25064950.7224
      2256.5634
  15113009.06048  11752918.28845  23626221.5384   23626216.9334
     -4284.3754
  -1168984.03849   -908058.17048  21831217.2334   21831214.4834
      -173.0164
 04  9  2 22 12 30.0030000  0  8G19G 3G 8G13G10G28G23G27
  -3729725.77448  -2898598.97845  23737139.8584   23737136.5344
       782.7664
    923632.41248    724085.00745  23680832.0934   23680830.9334
     -1556.0784
  -6449710.67849  -5014252.02947  22700800.1164   22700798.3584
      1060.7504
   4709974.77049   3666902.67148  21280682.7184   21280679.1594
     -2242.0784
   -672772.34447   -521025.63243  24709851.6164   24709851.1364
       674.6564
   -223868.64247   -164143.09042  25058512.7574   25058513.1444
      2253.7344
  15177308.50648  11803021.74645  23638456.9834   23638451.9954
     -4289.0164
  -1166365.58849   -906017.81748  21831715.5224   21831713.0934
      -176.2194
 04  9  2 22 12 45.0030000  0  8G19G 3G 8G13G10G28G23G27
  -3741419.44947  -2907710.90445  23734914.8434   23734910.5774
       776.2194
    947041.27748    742325.69145  23685286.9684   23685285.6164
     -1565.2814
  -6465603.30349  -5026635.87246  22697776.2494   22697773.8544
      1058.0944
   4743663.33349   3693153.49348  21287093.3514   21287089.6124
     -2249.8914
   -682832.22347   -528864.45443  24707938.1944   24707936.5114
       666.4064
   -257660.42246   -190474.25842  25052082.0224   25052082.0424
      2251.6884
  15241672.61547  11853175.53845  23650704.9134   23650700.4834
     -4293.0784
  -1163703.85449   -903943.73048  21832222.0934   21832219.3434
      -178.8124
 04  9  2 22 13  0.0030000  0  8G19G 3G 8G13G10G28G23G27
  -3753009.20247  -2916741.85845  23732709.6084   23732705.7064
       769.2664
    970596.26448    760680.25445  23689768.9214   23689768.1674
     -1575.0474
  -6481450.15749  -5038984.04347  22694760.0154   22694758.7334
      1055.0164
   4777475.10749   3719500.32748  21293527.5624   21293523.8474
     -2258.1254
   -692763.32247   -536602.93643  24706048.6944   24706046.4994
       657.8914
   -291413.39046   -216775.18742  25045659.9134   25045659.5624
      2248.9844
  15306102.74748  11903380.79345  23662965.8974   23662961.7454
     -4297.4374
  -1160996.91749   -901834.42748  21832737.0934   21832734.7104
      -181.8284
 04  9  2 22 13 15.0030000  0  8G19G 3G 8G13G10G28G23G27
  -3764498.94547  -2925694.88645  23730522.4374   23730519.5424
       762.6724
    994293.06148    779145.29045  23694278.3124   23694277.4644
     -1584.4694
  -6497255.31549  -5051299.73147  22691752.4764   22691750.6984
      1052.2974
   4811405.80549   3745939.83248  21299984.1554   21299980.4254
     -2266.0314
   -702569.68747   -544244.27143  24704182.9604   24704180.5384
       649.6094
   -325131.64146   -243049.04142  25039241.9834   25039242.7184
      2246.7194
  15370594.64148  11953634.19945  23675238.3744   23675233.8584
     -4301.5004
  -1158249.07649   -899693.23248  21833260.4054   21833257.9254
      -184.5004
 04  9  2 22 13 30.0030000  0  8G19G 3G 8G13G10G28G23G27
  -3775886.78648  -2934568.51245  23728356.2104   23728352.1444
       755.9844
   1018133.17149    797722.00744  23698815.5624   23698814.1754
     -1594.0314
  -6513017.37149  -5063581.83647  22688753.8124   22688751.5344
      1049.3914
   4845456.93549   3772473.17148  21306463.7104   21306460.6244
     -2274.0784
   -712249.61647   -551787.03543  24702339.8584   24702338.3864
       641.2504
   -358813.41147   -269294.49542  25032833.3584   25032833.3274
      2244.3284
  15435149.50848  12003936.64245  23687522.3194   23687518.3704
     -4305.6724
  -1155458.90849   -897519.07648  21833791.4834   21833788.6244
      -187.3754
 04  9  2 22 13 45.0030000  0  8G19G 3G 8G13G10G28G23G27
  -3787168.51948  -2943359.43745  23726209.1944   23726205.7494
       748.8914
   1042120.51849    816413.45644  23703379.9914   23703378.4444
     -1603.7194
  -6528732.18249  -5075827.11147  22685762.7104   22685760.8044
      1046.3754
   4879632.47949   3799103.46048  21312967.3584   21312964.2024
     -2282.2034
   -721798.86047   -559227.97743  24700523.3824   24700521.3824
       632.5164
   -392454.54647   -295508.27842  25026432.3124   25026431.2884
      2241.6254
  15499771.08748  12054291.08545  23699819.9834   23699815.4524
     -4310.0004
  -1152622.32749   -895308.74548  21834330.8664   21834328.3234
      -190.3594
 04  9  2 22 14  0.0030000  0  8G19G 3G 8G13G10G28G23G27
  -3798350.53548  -2952072.66845  23724081.6014   23724076.6124
       742.3134
   1066248.37348    835214.38045  23707970.6944   23707970.4834
     -1613.0314
  -6544406.38549  -5088040.75347  22682780.5774   22682778.2104
      1043.7664
   4913925.70949   3825825.45748  21319493.0384   21319489.8004
     -2290.0004
   -731223.97747   -566572.22543  24698729.4914   24698727.6594
       624.2504
   -426061.59047   -321695.53242  25020037.2654   25020036.2264
      2239.4384
  15564452.41948  12104692.09445  23712128.4764   23712123.6164
     -4313.9374
  -1149746.03549   -893067.47648  21834878.1474   21834875.8044
      -192.9064
 04  9  2 22 14 15.0030000  0  8G19G 3G 8G13G10G28G23G27
  -3809435.85247  -2960710.56045  23721971.0384   23721967.3194
       735.5944
   1090513.36549    854122.15245  23712589.4604   23712587.7104
     -1622.4064
  -6560043.27449  -5100225.32047  22679804.9054   22679802.8474
      1041.0004
   4948333.16549   3852636.46148  21326040.6474   21326037.4524
     -2297.9064
   -740528.17047   -573822.20443  24696958.9134   24696957.4764
       616.0474
   -459637.72247   -347858.65943  25013646.9524   25013646.8394
      2237.1254
  15629190.06547  12155136.97845  23724446.9914   23724443.4724
     -4317.9224
  -1146833.46849   -890797.94148  21835432.5774   21835429.8434
      -195.6414
 04  9  2 22 14 30.0030000  0  8G19G 3G 8G13G10G28G23G27
  -3820412.85047  -2969264.03245  23719882.6404   23719878.9914
       728.1564
   1114927.02048    873145.78245  23717234.3904   23717233.4444
     -1632.5314
  -6575631.54349  -5112371.99047  22676838.2334   22676836.0624
      1037.5784
   4982866.40849   3879545.48848  21332612.1554   21332608.7104
     -2306.3914
   -749699.75147   -580968.87343  24695213.5224   24695212.6674
       606.9694
   -493171.16948   -373988.57542  25007266.3664   25007265.7724
      2234.1094
  15693995.36548  12205634.58245  23736779.6244   23736776.0344
     -4322.5944
  -1143872.97949   -888491.04648  21835995.6794   21835993.6244
      -198.9844
 04  9  2 22 14 45.0030000  0  8G19G 3G 8G13G10G28G23G27
  -3831280.42548  -2977732.25445  23717814.7654   23717811.2454
       720.6094
   1139489.95548    892285.73444  23721908.0774   23721907.6554
     -1642.7974
  -6591170.36549  -5124480.14347  22673881.8354   22673879.2724
      1034.0004
   5017526.06749   3906553.00748  21339207.3974   21339204.1014
     -2315.0944
   -758737.79947   -588011.47143  24693493.4604   24693492.8784
       597.8284
   -526661.09148   -400084.53542  25000893.0854   25000892.7264
      2231.0004
  15758868.81448  12256185.27445  23749125.1714   23749120.6674
     -4327.4534
  -1140863.82149   -886146.24048  21836568.5624   21836565.7804
      -202.4844
 04  9  2 22 15  0.0030000  0  8G19G 3G 8G13G10G28G23G27
  -3842040.15648  -2986116.43645  23715766.8744   23715763.1014
       713.7194
   1164200.22549    911540.47744  23726610.8664   23726609.2024
     -1652.2974
  -6606661.49649  -5136551.13547  22670933.5934   22670931.7024
      1031.1414
   5052310.11549   3933657.45148  21345826.6794   21345823.5034
     -2323.1094
   -767643.95347   -594951.30943  24691798.5304   24691797.0974
       589.3914
   -560109.25848   -426147.97842  24994529.1404   24994527.2844
      2228.4694
  15823808.17747  12306787.34444  23761482.5224   23761477.4684
     -4331.5784
  -1137807.95449   -883765.04648  21837149.9914   21837146.8624
      -205.2664
 04  9  2 22 15 15.0030000  0  8G19G 3G 8G13G10G28G23G27
  -3852697.05248  -2994420.49045  23713738.6084   23713735.7804
       706.9534
   1189052.47149    930905.86244  23731339.7964   23731338.4484
     -1661.5004
  -6622109.97049  -5148588.89147  22667993.8124   22667992.0194
      1028.4224
   5087213.24249   3960854.68948  21352468.4764   21352464.9254
     -2330.8754
   -776423.31248   -601792.34443  24690128.8744   24690126.8824
       581.0474
   -593520.71948   -452182.82343  24988170.9994   24988169.6014
      2226.2344
  15888808.00847  12357436.53145  23773851.4914   23773847.3434
     -4335.3124
  -1134710.67149   -881351.56648  21837739.5544   21837736.6284
      -207.9224
 04  9  2 22 15 30.0030000  0  8G19G 3G 8G13G10G28G23G27
  -3863244.92248  -3002639.57645  23711731.8904   23711728.7844
       699.2344
   1214052.41849    950386.36444  23736097.4764   23736095.9294
     -1671.7974
  -6637510.16949  -5160589.01547  22665063.0384   22665061.4294
      1024.7814
   5122241.45649   3988149.40248  21359134.3354   21359130.7454
     -2339.7034
   -785069.96347   -608529.99744  24688482.7024   24688481.9484
       571.7194
   -626889.39748   -478184.33442  24981820.6794   24981819.0654
      2222.8594
  15953873.90048  12408137.17445  23786233.3824   23786228.5934
     -4340.2504
  -1131566.08149   -878901.23048  21838337.7104   21838335.0304
      -211.4694
 04  9  2 22 15 45.0030000  0  8G19G 3G 8G13G10G28G23G27
  -3873685.46847  -3010775.02745  23709745.2964   23709741.8624
       692.7344
   1239198.16848    969980.45244  23740882.3434   23740879.7264
     -1680.9534
  -6652864.01949  -5172553.04747  22662141.6084   22662139.6204
      1022.2974
   5157392.64649   4015539.94648  21365823.0464   21365820.2374
     -2347.2814
   -793585.60948   -615165.54243  24686861.4214   24686861.0774
       563.5784
   -660217.07448   -504153.89842  24975478.3194   24975476.9294
      2220.7344
  16019003.75948  12458887.69645  23798627.2964   23798621.9254
     -4343.8594
  -1128376.02249   -876415.46448  21838944.7884   21838941.7694
      -213.9224
 04  9  2 22 16  0.0030000  0  8G19G 3G 8G13G10G28G23G27
  -3884017.59148  -3018826.01345  23707779.0154   23707774.8004
       684.8284
   1264490.48448    989688.75544  23745695.5464   23745693.5194
     -1691.3754
  -6668170.59649  -5184480.22547  22659228.9134   22659226.8124
      1018.5784
   5192667.73949   4043027.03048  21372536.0854   21372532.5424
     -2356.1414
   -801969.18748   -621698.16243  24685267.3274   24685265.7104
       554.0944
   -693502.76348   -530090.72743  24969144.4214   24969142.8704
      2217.4064
  16084198.15348  12509688.47245  23811033.2654   23811028.0114
     -4348.7194
  -1125139.80549   -873893.73148  21839560.8584   21839558.1474
      -217.6094
 04  9  2 22 16 15.0030000  0  8G19G 3G 8G13G10G28G23G27
  -3894242.51348  -3026793.45445  23705833.4834   23705828.8974
       677.9224
   1289927.83148   1009510.07044  23750535.4444   23750534.3664
     -1700.8124
  -6683431.14349  -5196371.53047  22656324.7964   22656322.8354
      1015.6884
   5228064.92649   4070609.24748  21379271.9444   21379268.3474
     -2364.0624
   -810222.07648   -628128.96043  24683696.2724   24683695.6714
       545.6724
   -726747.94248   -555996.00943  24962817.8974   24962816.1714
      2214.7664
  16149455.46048  12560538.27045  23823450.6874   23823446.9014
     -4352.7344
  -1121858.74349   -871337.03848  21840185.0384   21840182.4334
      -220.3444
 04  9  2 22 16 30.0030000  0  8G19G 3G 8G13G10G28G23G27
  -3904360.34347  -3034677.43545  23703907.7024   23703904.7494
       671.0634
   1315509.68248   1029443.96244  23755404.1714   23755403.0464
     -1710.0474
  -6698646.53149  -5208227.65347  22653429.5304   22653426.9054
      1013.0004
   5263583.79049   4098286.27748  21386030.8194   21386027.3744
     -2371.8284
   -818344.44348   -634458.06144  24682151.0694   24682149.6714
       537.3134
   -759952.85248   -581869.91243  24956499.4214   24956497.9134
      2212.4844
  16214774.83448  12611436.44546  23835881.1634   23835877.8514
     -4356.4374
  -1118533.40249   -868745.86148  21840817.6794   21840815.3664
      -223.0164
 04  9  2 22 16 45.0030000  0  8G19G 3G 8G13G10G28G23G27
  -3914374.20747  -3042480.42945  23702001.5854   23701998.8624
       663.9064
   1341232.53748   1049487.73744  23760298.5154   23760297.6514
     -1719.7034
  -6713820.19749  -5220051.26947  22650541.9604   22650539.7294
      1009.9844
   5299220.89349   4126055.45448  21392812.0624   21392808.7724
     -2379.9064
   -826339.62648   -640688.04943  24680629.8434   24680628.3234
       528.5164
   -793120.62648   -607714.85043  24950188.1164   24950186.0114
      2209.6724
  16280152.77948  12662380.28645  23848321.9764   23848317.7694
     -4360.6414
  -1115167.12149   -866122.77648  21841458.3514   21841455.7534
      -225.9224
 04  9  2 22 17  0.0030000  0  8G19G 3G 8G13G10G28G23G27
  -3924278.83847  -3050198.28045  23700116.6944   23700113.3784
       656.8444
   1367101.41249   1069645.31345  23765222.3044   23765219.6124
     -1729.2034
  -6728946.82349  -5231838.21947  22647663.4134   22647661.2884
      1007.1094
   5334981.22649   4153920.64748  21399617.3744   21399613.7144
     -2387.9064
   -834202.51548   -646814.93944  24679133.6944   24679131.9524
       520.0004
   -826246.00447   -633526.74843  24943883.6794   24943882.2534
      2207.1414
  16345594.06148  12713373.45345  23860775.0934   23860771.1204
     -4364.5164
  -1111754.88749   -863463.88548  21842107.7414   21842105.0934
      -228.8124
 04  9  2 22 17 15.0030000  0  8G19G 3G 8G13G10G28G23G27
  -3934076.25048  -3057832.60145  23698252.9994   23698248.9764
       649.9384
   1393113.92949   1089914.82145  23770171.7494   23770169.6634
     -1738.5784
  -6744028.46949  -5243590.12647  22644793.4054   22644791.3084
      1004.3594
   5370862.34649   4181879.95348  21406445.1554   21406441.2694
     -2395.7504
   -841935.16448   -652840.37243  24677661.5464   24677660.5774
       511.5634
   -859331.19447   -659307.35743  24937587.8824   24937586.7224
      2204.5784
  16411096.21148  12764414.04945  23873239.7184   23873235.9994
     -4368.4844
  -1108298.94349   -860770.93348  21842765.3434   21842762.7104
      -231.5004
 04  9  2 22 17 30.0030000  0  8G19G 3G 8G13G10G28G23G27
  -3943764.63848  -3065381.95145  23696409.8664   23696405.6444
       641.8594
   1419271.57748   1110297.39045  23775149.1554   23775147.9404
     -1749.1874
  -6759063.84849  -5255305.97347  22641931.9374   22641930.1984
      1000.3444
   5406865.66849   4209934.48448  21413296.1794   21413292.5544
     -2404.8124
   -849535.88348   -658762.97443  24676214.8194   24676213.9564
       501.8754
   -892374.63047   -685055.43043  24931299.6014   24931298.5224
      2201.0164
  16476660.48048  12815503.03945  23885715.8744   23885712.6044
     -4373.5004
  -1104797.86449   -858042.80648  21843431.7104   21843429.0154
      -235.3594
 04  9  2 22 17 45.0030000  0  8G19G 3G 8G13G10G28G23G27
  -3953341.57748  -3072844.47045  23694587.0224   23694583.3784
       634.8754
   1445576.47649   1130794.70344  23780154.8824   23780153.3824
     -1758.3914
  -6774050.69249  -5266984.02447  22639080.5544   22639078.1514
       997.7034
   5442993.44849   4238086.00948  21420171.2574   21420167.5344
     -2412.4534
   -857002.49148   -664581.10243  24674793.8974   24674792.9484
       493.4224
   -925374.02547   -710769.18743  24925020.2494   24925018.9604
      2198.7194
  16542288.78548  12866641.96645  23898204.7884   23898200.7614
     -4377.1564
  -1101249.38349   -855277.75448  21844106.8744   21844104.1554
      -237.9534
 04  9  2 22 18  0.0030000  0  8G19G 3G 8G13G10G28G23G27
  -3962811.25348  -3080223.38545  23692784.3434   23692779.9054
       628.0164
   1472024.07148   1151403.22244  23785187.9054   23785184.9954
     -1767.6254
  -6788993.21049  -5278627.52447  22636236.7334   22636234.2884
       994.9694
   5479241.21749   4266331.00948  21427069.2724   21427065.5344
     -2420.1874
   -864339.07948   -670297.91043  24673398.3194   24673396.4094
       485.1094
   -958333.34147   -736451.69043  24918747.8274   24918747.4054
      2196.2344
  16607976.47147  12917827.11745  23910704.8664   23910700.8904
     -4380.9374
  -1097657.86649   -852479.15848  21844790.0934   21844787.5894
      -240.5474
 04  9  2 22 18 15.0030000  0  8G19G 3G 8G13G10G28G23G27
  -3972172.06648  -3087517.48445  23691003.9524   23690998.7964
       620.2194
   1498615.54548   1172123.85344  23790247.2884   23790245.4484
     -1777.8284
  -6803890.40949  -5290235.70947  22633401.8194   22633399.6944
       991.2974
   5515610.11649   4294670.41448  21433989.6084   21433986.2844
     -2428.9374
   -871544.13948   -675912.21843  24672026.2654   24672025.0114
       475.5944
   -991251.30547   -762101.96443  24912483.9914   24912483.3744
      2192.9384
  16673724.59948  12969059.37545  23923216.8274   23923212.3154
     -4385.4374
  -1094022.11349   -849646.09548  21845482.1794   21845479.6284
      -244.1254
 04  9  2 22 18 30.0030000  0  8G19G 3G 8G13G10G28G23G27
  -3981419.47848  -3094723.23145  23689243.8514   23689239.6164
       612.7814
   1525355.07548   1192959.86844  23795336.0854   23795334.3944
     -1787.3444
  -6818737.94049  -5301805.19247  22630576.4834   22630574.1554
       988.3594
   5552104.38749   4323107.50748  21440934.5224   21440931.0464
     -2436.9844
   -878613.40748   -681420.69843  24670681.6084   24670680.3944
       466.8134
  -1024123.35447   -787716.46943  24906228.7264   24906228.2654
      2190.0164
  16739537.25347  13020341.92244  23935740.3274   23935736.4604
     -4389.4534
  -1090337.81549   -846775.19848  21846183.3044   21846180.5894
      -247.0474
 04  9  2 22 18 45.0030000  0  8G19G 3G 8G13G10G28G23G27
  -3990559.69748  -3101845.44846  23687504.2574   23687500.3904
       605.8914
   1552236.11948   1213906.11044  23800451.5624   23800450.0584
     -1796.6564
  -6833542.09549  -5313340.87547  22627759.3664   22627756.8784
       985.6564
   5588717.43849   4351637.15348  21447901.7884   21447898.3584
     -2444.6724
   -885553.28247   -686828.38043  24669360.5224   24669359.7534
       458.5314
  -1056955.97947   -813300.26043  24899980.1404   24899980.2534
      2187.7504
  16805407.66447  13071669.46544  23948274.2884   23948271.1044
     -4393.1564
  -1086611.42749   -843871.51648  21846892.1404   21846889.2064
      -249.6724
 04  9  2 22 19  0.0030000  0  8G19G 3G 8G13G10G28G23G27
  -3999592.18348  -3108883.70046  23685785.7884   23685780.9644
       598.5314
   1579258.94049   1234962.87244  23805594.1014   23805592.8354
     -1806.2664
  -6848302.54949  -5324842.51147  22624950.0694   22624948.0694
       982.5474
   5625449.66149   4380259.65248  21454891.8744   21454888.3274
     -2452.8914
   -892363.03548   -692134.66743  24668065.3744   24668064.2184
       449.5784
  -1089748.60147   -838852.86943  24893740.0304   24893739.9524
      2184.7504
  16871335.96247  13123042.13645  23960820.6244   23960816.2884
     -4397.0944
  -1082842.59049   -840934.75348  21847609.3584   21847606.8624
      -252.6724
 04  9  2 22 19 15.0030000  0  8G19G 3G 8G13G10G28G23G27
  -4008510.33148  -3115832.87946  23684088.5544   23684083.9954
       590.6724
   1606429.64849   1256134.85844  23810764.3664   23810763.4134
     -1816.3594
  -6863013.08549  -5336305.25747  22622151.1944   22622148.9684
       978.9844
   5662307.08649   4408979.74048  21461905.2724   21461901.9604
     -2461.4224
   -899036.37648   -697334.66644  24666795.4444   24666793.9834
       440.2194
  -1122494.85147   -864369.35743  24887508.4994   24887508.8904
      2181.6094
  16937328.08348  13174464.54445  23973378.1404   23973374.7024
     -4401.6564
  -1079025.17049   -837960.13548  21848335.9374   21848333.2924
      -256.1564
 04  9  2 22 19 30.0030000  0  8G19G 3G 8G13G10G28G23G27
  -4017314.30048  -3122693.07746  23682413.1404   23682409.2764
       583.4694
   1633747.91049   1277421.83444  23815963.0304   23815962.0504
     -1825.7974
  -6877673.98549  -5347729.30447  22619361.3044   22619358.8194
       976.1414
   5699289.48549   4437797.17648  21468942.9994   21468939.2334
     -2469.2814
   -905573.47048   -702428.45644  24665550.7804   24665550.5654
       431.6414
  -1155194.77047   -889849.72943  24881286.3584   24881285.3544
      2178.9064
  17003383.59048  13225936.31045  23985948.5624   23985944.8354
     -4405.3594
  -1075159.28749   -834947.74448  21849071.8194   21849069.0114
      -258.9374
 04  9  2 22 19 45.0030000  0  8G19G 3G 8G13G10G28G23G27
  -4026008.07548  -3129467.38346  23680758.6474   23680755.7064
       575.7194
   1661209.34348   1298820.34844  23821188.1944   23821187.1364
     -1835.6724
  -6892289.45949  -5359117.96747  22616580.1244   22616577.8434
       972.6884
   5736392.34749   4466708.49348  21476003.2804   21475999.7224
     -2477.7034
   -911978.50848   -707419.38943  24664332.8664   24664331.3824
       422.4844
  -1187852.61048   -915297.32443  24875071.8434   24875071.2224
      2175.5784
  17069498.04448  13277454.03344  23998529.7884   23998525.5814
     -4409.8444
  -1071249.31049   -831901.00748  21849815.4294   21849813.0584
      -262.3284
 04  9  2 22 20  0.0030000  0  8G19G 3G 8G13G10G28G23G27
  -4034591.90048  -3136156.02746  23679125.6554   23679121.1204
       568.5474
   1688813.27448   1320329.91744  23826441.1084   23826440.3354
     -1845.1094
  -6906860.17849  -5370471.76047  22613806.8664   22613804.9254
       969.9224
   5773615.08349   4495713.22248  21483086.3664   21483083.0304
     -2485.4844
   -918251.83348   -712307.65643  24663138.8044   24663137.7574
       413.9064
  -1220468.67447   -940712.36643  24868864.9214   24868864.0034
      2173.0164
  17135670.53047  13329016.96544  24011121.2964   24011117.5544
     -4413.4694
  -1067295.76049   -828820.31248  21850568.0154   21850565.2374
      -265.0004
 04  9  2 22 20 15.0030000  0  8G19G 3G 8G13G10G28G23G27
  -4043065.88548  -3142759.10546  23677512.4134   23677507.9834
       561.1884
   1716559.35248   1341950.23044  23831720.9524   23831720.0224
     -1854.5164
  -6921386.29449  -5381790.79147  22611043.0384   22611040.7494
       966.8284
   5810957.22149   4524810.98648  21490192.3514   21490189.0504
     -2493.5164
   -924393.65047   -717093.46943  24661969.5854   24661968.8234
       405.0784
  -1253043.21948   -966095.07843  24862666.1324   24862665.5974
      2170.2504
  17201900.50048  13380624.69644  24023724.3974   24023721.2224
     -4417.2344
  -1063298.98849   -825705.92748  21851328.6084   21851325.9294
      -267.9224
 04  9  2 22 20 30.0030000  0  8G19G 3G 8G13G10G28G23G27
  -4051427.00048  -3149274.21946  23675921.5694   23675917.8974
       553.6724
   1744450.26448   1363683.42244  23837028.5624   23837027.0344
     -1864.2504
  -6935864.90249  -5393072.80447  22608288.1084   22608285.8394
       963.6884
   5848421.62249   4554004.02448  21497321.8274   21497318.2614
     -2501.6564
   -930401.02848   -721774.50843  24660827.1794   24660825.8664
       396.0784
  -1285573.20447   -991443.06243  24856475.6794   24856475.5774
      2167.1254
  17268190.51947  13432279.20044  24036339.1474   24036336.6944
     -4421.3444
  -1059256.15749   -822555.67348  21852097.4524   21852094.7694
      -271.0004
 04  9  2 22 20 45.0030000  0  8G19G 3G 8G13G10G28G23G27
  -4059676.77448  -3155702.57346  23674351.5464   23674347.6674
       545.9064
   1772484.08148   1385527.94844  23842363.6634   23842361.5814
     -1874.0944
  -6950297.81349  -5404319.21747  22605541.6634   22605539.3194
       960.2034
   5886006.50649   4583290.93848  21504473.8124   21504470.6674
     -2510.0474
   -936275.64448   -726352.11943  24659708.9994   24659707.9794
       386.8444
  -1318060.27047  -1016757.57743  24850294.1324   24850292.7764
      2163.8594
  17334538.55148  13483978.93944  24048964.7334   24048961.5224
     -4425.5624
  -1055168.98249   -819370.85648  21852875.3664   21852873.0654
      -274.4374
 04  9  2 22 21  0.0030000  0  8G19G 3G 8G13G10G28G23G27
  -4067813.11549  -3162042.53646  23672804.0854   23672799.1084
       538.5164
   1800662.55348   1407485.21844  23847725.4134   23847723.7884
     -1883.4374
  -6964683.35049  -5415528.69547  22602803.9134   22602800.9954
       957.3754
   5923713.43449   4612672.95648  21511649.2804   21511645.7574
     -2517.9844
   -942015.44048   -730824.65443  24658616.5304   24658615.2694
       378.0634
  -1350502.45948  -1042037.17343  24844120.4994   24844119.4174
      2161.1724
  17400946.17148  13535725.08844  24061602.3584   24061598.2104
     -4429.2344
  -1051035.72749   -816150.12948  21853661.7104   21853659.2374
      -277.1724
 04  9  2 22 21 15.0030000  0  8G19G 3G 8G13G10G28G23G27
  -4075838.52648  -3168296.06746  23671276.1404   23671272.5264
       531.3134
   1828982.89148   1429553.03344  23853114.7884   23853113.5654
     -1892.6874
  -6979024.13149  -5426703.31647  22600075.2804   22600072.6324
       954.6094
   5961539.71449   4642147.98648  21518847.1014   21518844.0384
     -2525.6564
   -947623.04348   -735194.20143  24657549.8044   24657548.1164
       369.5004
  -1382902.40948  -1067283.84743  24837954.4294   24837953.3274
      2158.6564
  17467410.43448  13587515.38644  24074250.2024   24074246.5774
     -4432.7974
  -1046859.11849   -812895.62048  21854456.7494   21854453.9054
      -279.8444
 04  9  2 22 21 30.0030000  0  8G19G 3G 8G13G10G28G23G27
  -4083750.14148  -3174460.91945  23669770.3974   23669766.4524
       523.9064
   1857447.58248   1451733.31145  23858531.4604   23858530.1404
     -1902.2664
  -6993317.56749  -5437841.03247  22597354.8354   22597352.6444
       951.5004
   5999487.63649   4671717.77748  21526068.8584   21526065.4094
     -2533.7664
   -953095.86047   -739458.71643  24656507.4604   24656506.8624
       360.5944
  -1415257.49548  -1092495.55943  24831798.1084   24831796.7534
      2155.8284
  17533933.61248  13639351.58744  24086908.7884   24086905.3704
     -4436.6414
  -1042636.59149   -809605.32648  21855260.3824   21855257.6514
      -282.8124
 04  9  2 22 21 45.0030000  0  8G19G 3G 8G13G10G28G23G27
  -4091551.16748  -3180539.61346  23668285.8584   23668281.8864
       516.2814
   1886052.99548   1474023.24045  23863975.0464   23863973.9334
     -1911.7504
  -7007566.98549  -5448944.45647  22594643.2264   22594641.3474
       948.4064
   6037553.83349   4701379.75848  21533312.1944   21533309.0974
     -2541.7504
   -958437.01948   -743620.65743  24655492.0154   24655490.2614
       351.7344
  -1447570.89947  -1117674.77643  24825648.4294   24825647.4444
      2152.7974
  17600512.11548  13691230.89744  24099578.6554   24099574.5464
     -4440.3914
  -1038371.57049   -806281.93248  21856072.0384   21856069.3744
      -285.7504
 04  9  2 22 22  0.0030000  0  8G19G 3G 8G13G10G28G23G27
  -4099239.76048  -3186530.69246  23666822.9524   23666819.0034
       508.3444
   1914800.62648   1496424.02345  23869445.3974   23869444.0114
     -1921.6094
  -7021770.80649  -5460012.35847  22591940.5624   22591938.2764
       944.9694
   6075739.79649   4731135.04448  21540578.9684   21540575.6164
     -2550.0784
   -963644.84147   -747678.64843  24654499.3274   24654498.4174
       342.2974
  -1479840.72647  -1142820.05643  24819507.9444   24819506.4564
      2149.4384
  17667147.34848  13743154.42544  24112258.2334   24112254.8824
     -4444.5164
  -1034062.32849   -802924.06148  21856891.9684   21856888.9134
      -289.0944
 04  9  2 22 22 15.0030000  0  8G19G 3G 8G13G10G28G23G27
  -4106816.08848  -3192434.28646  23665381.1164   23665377.4174
       501.3914
   1943690.04848   1518935.25344  23874942.7654   23874941.6594
     -1930.5004
  -7035929.26949  -5471044.91247  22589246.0854   22589244.2924
       942.5314
   6114045.11249   4760983.34248  21547868.2494   21547865.0654
     -2557.5624
   -968719.55347   -751632.97143  24653535.5074   24653533.6794
       334.0004
  -1512067.33748  -1167931.63543  24813375.4294   24813373.9994
      2147.1884
  17733838.67148  13795121.65445  24124949.9764   24124946.1244
     -4447.7814
  -1029709.32349   -799532.11048  21857720.3974   21857717.3974
      -291.5474
 04  9  2 22 22 30.0030000  0  8G19G 3G 8G13G10G28G23G27
  -4114280.48748  -3198250.66945  23663961.0694   23663956.2844
       494.0474
   1972720.46048   1541556.32944  23880467.1944   23880465.9054
     -1939.9534
  -7050043.19449  -5482042.74847  22586560.7574   22586557.9764
       939.5314
   6152468.87949   4790923.93148  21555180.1474   21555176.6634
     -2565.4534
   -973661.77048   -755484.04743  24652594.8354   24652593.1984
       325.1564
  -1544251.20348  -1193009.93243  24807250.8744   24807249.2884
      2144.1724
  17800585.13448  13847131.85044  24137651.1874   24137647.6594
     -4451.4844
  -1025313.22449   -796106.56748  21858556.4604   21858554.5344
      -294.3754
 04  9  2 22 22 45.0030000  0  8G19G 3G 8G13G10G28G23G27
  -4121631.51948  -3203978.73245  23662561.3274   23662557.4404
       486.2504
   2001892.94948   1564288.15144  23886018.1874   23886016.6244
     -1949.6564
  -7064111.19249  -5493004.81247  22583883.2494   22583881.0154
       936.2344
   6191012.33649   4820957.79648  21562514.7654   21562511.3084
     -2573.6094
   -978469.97547   -759230.66443  24651678.7024   24651678.1714
       315.9384
  -1576390.97048  -1218053.86143  24801135.0464   24801133.8544
      2141.1884
  17867387.58848  13899185.68045  24150363.6084   24150359.2374
     -4455.4374
  -1020872.76649   -792646.46148  21859401.8664   21859398.8624
      -297.5624
 04  9  2 22 23  0.0030000  0  8G19G 3G 8G13G10G28G23G27
  -4128865.26348  -3209615.37845  23661185.1794   23661181.9014
       478.6884
   2031211.09549   1587133.44744  23891597.7654   23891595.8084
     -1959.0164
  -7078129.63749  -5503928.25347  22581216.1794   22581213.3824
       933.2194
   6229679.02349   4851087.67348  21569872.6014   21569869.1124
     -2581.5944
   -983140.50047   -762870.01743  24650790.6874   24650789.6404
       307.0944
  -1608482.82548  -1243060.44843  24795027.7414   24795026.8944
      2138.1564
  17934249.61348  13951285.91244  24163086.3434   24163082.9564
     -4459.1254
  -1016384.38049   -789149.00548  21860256.0854   21860253.3704
      -300.5004
 04  9  2 22 23 15.0030000  0  8G19G 3G 8G13G10G28G23G27
  -4135982.86948  -3215161.52846  23659831.1164   23659826.6594
       470.4534
   2060673.36949   1610091.09444  23897203.9374   23897201.3974
     -1969.1724
  -7092099.87649  -5514814.14247  22578556.9994   22578554.6124
       929.5784
   6268467.50049   4881312.45748  21577253.9764   21577250.5734
     -2590.1724
   -987674.70247   -766403.10643  24649927.0074   24649926.8514
       297.6724
  -1640527.95648  -1268030.63843  24788929.8664   24788928.5854
      2134.7664
  18001169.61348  14003431.32044  24175820.7804   24175817.6404
     -4463.4064
  -1011849.27049   -785615.14648  21861118.9374   21861116.1124
      -304.0784
 04  9  2 22 23 30.0030000  0  8G19G 3G 8G13G10G28G23G27
  -4142982.38448  -3220615.67546  23658498.5304   23658494.1244
       462.7034
   2090281.46049   1633162.33245  23902838.5774   23902836.2844
     -1978.7664
  -7106020.10349  -5525661.05347  22575907.9524   22575906.0814
       926.3444
   6307379.45549   4911633.46748  21584658.4054   21584655.1044
     -2598.2344
   -992070.61947   -769828.49043  24649091.3584   24649090.3004
       288.4224
  -1672524.45448  -1292962.90643  24782841.1084   24782839.6124
      2131.5164
  18068149.00748  14055623.02244  24188567.1554   24188563.3784
     -4467.2974
  -1007265.79449   -782043.59448  21861990.8974   21861988.0584
      -307.1874
 04  9  2 22 23 45.0030000  0  8G19G 3G 8G13G10G28G23G27
  -4149870.46248  -3225982.97346  23657187.7964   23657183.8194
       455.8284
   2120028.31648   1656341.72245  23908498.8124   23908496.1634
     -1987.3444
  -7119897.18549  -5536474.33347  22573267.2334   22573264.7104
       924.0314
   6346407.83949   4942045.19148  21592085.5624   21592082.1044
     -2605.3594
   -996335.04348   -773151.38943  24648280.4294   24648278.3084
       280.2664
  -1704479.20148  -1317862.66843  24776760.2884   24776759.1794
      2129.1884
  18135180.53548  14107855.35544  24201322.4054   24201319.0224
     -4470.1874
  -1002640.77549   -778439.67548  21862871.1634   21862868.6364
      -309.4064
 04  9  2 22 24  0.0030000  0  8G19G 3G 8G13G10G28G23G27
  -4156646.94748  -3231263.33946  23655898.8584   23655895.0774
       448.2194
   2149913.71548   1679629.02944  23914185.8664   23914183.4994
     -1996.7194
  -7133731.28149  -5547254.13247  22570635.2024   22570632.4644
       921.0314
   6385552.45049   4972547.47948  21599534.1874   21599530.7574
     -2613.3444
  -1000467.89848   -776371.81843  24647493.8274   24647491.3154
       271.3134
  -1736392.10747  -1342729.80943  24770686.7654   24770686.0934
      2126.2504
  18202263.95248  14160128.08644  24214088.0464   24214085.0304
     -4473.7504
   -997974.41849   -774803.55148  21863759.1634   21863756.5504
      -312.3284
 04  9  2 22 24 15.0030000  0  8G19G 3G 8G13G10G28G23G27
  -4163307.12848  -3236453.06246  23654631.2334   23654627.5934
       440.5944
   2179941.98948   1703027.69844  23919899.8124   23919898.5814
     -2006.1564
  -7147518.06349  -5557997.06747  22568011.4134   22568009.0774
       918.0784
   6424817.68149   5003143.75848  21607006.5304   21607003.1794
     -2621.1724
  -1004464.69548   -779486.16243  24646732.9214   24646730.3664
       262.3754
  -1768258.48047  -1367560.68643  24764623.4834   24764622.4334
      2123.4224
  18269403.43748  14212444.48744  24226864.7494   24226860.8154
     -4477.3284
   -993262.18249   -771131.66848  21864655.8584   21864653.1714
      -315.1094
 04  9  2 22 24 30.0030000  0  8G19G 3G 8G13G10G28G23G27
  -4169853.35148  -3241553.98846  23653385.1164   23653380.6554
       432.3754
   2210110.57848   1726535.66844  23925640.6164   23925639.5654
     -2016.1414
  -7161259.77649  -5568704.88647  22565396.1084   22565393.7884
       914.3594
   6464200.86249   5033831.94848  21614500.6084   21614497.0544
     -2629.7034
  -1008327.77448   -782496.35243  24645997.6164   24645995.4294
       252.7664
  -1800080.74948  -1392357.21943  24758567.7184   24758566.2614
      2119.7194
  18336596.36748  14264802.59044  24239650.6164   24239646.9094
     -4481.5784
   -988506.58549   -767426.01148  21865560.8124   21865557.5774
      -318.7504
 04  9  2 22 24 45.0030000  0  8G19G 3G 8G13G10G28G23G27
  -4176287.04948  -3246567.24146  23652161.2184   23652156.6554
       425.1564
   2240417.54348   1750151.48244  23931407.4524   23931406.7264
     -2025.0784
  -7174958.36649  -5579379.09447  22562789.6554   22562787.2064
       911.7194
   6503700.13649   5064610.61148  21622017.4214   21622013.2224
     -2637.1254
  -1012058.74848   -785403.58043  24645287.6944   24645285.6714
       244.3284
  -1831860.55848  -1417120.65843  24752519.9684   24752518.9014
      2117.1724
  18403840.68848  14317200.69944  24252446.8354   24252443.2104
     -4484.7344
   -983709.39449   -763687.92548  21866473.6714   21866470.9294
      -321.2344
 04  9  2 22 25  0.0030000  0  8G19G 3G 8G13G10G28G23G27
  -4182605.35148  -3251490.57046  23650958.9684   23650954.9644
       417.4384
   2270865.35448   1773877.05044  23937202.6404   23937201.0264
     -2034.5314
  -7188611.11249  -5590017.58547  22560191.6794   22560189.4684
       908.6564
   6543318.09749   5095481.74448  21629556.4444   21629552.8084
     -2645.0624
  -1015654.82848   -788205.72343  24644602.7574   24644601.4294
       235.3444
  -1863595.08048  -1441848.79543  24746481.3514   24746479.8624
      2114.0944
  18471138.67948  14369640.64144  24265253.7414   24265249.4174
     -4488.3124
   -978867.94849   -759915.36548  21867395.4134   21867392.2414
      -324.2194
 04  9  2 22 25 15.0030000  0  8G19G 3G 8G13G10G28G23G27
  -4188809.49948  -3256324.92946  23649778.7414   23649773.9724
       409.4064
   2301452.54047   1797711.22544  23943022.7804   23943021.3624
     -2044.2194
  -7202219.45649  -5600621.46147  22557601.9914   22557599.8394
       905.3754
   6583053.27049   5126444.20348  21637117.6874   21637114.0224
     -2653.3124
  -1019117.38747   -790903.78743  24643943.2884   24643942.6714
       226.0004
  -1895285.62648  -1466542.68044  24740450.7414   24740449.4444
      2110.8134
  18538488.77548  14422121.19444  24278069.7724   24278066.0694
     -4492.1414
   -973983.58949   -756109.35548  21868324.3124   21868321.9334
      -327.4374
 04  9  2 22 25 30.0030000  0  8G19G 3G 8G13G10G28G23G27
  -4194900.86348  -3261071.43346  23648618.8584   23648613.9094
       402.2194
   2332177.27147   1821652.57344  23948869.1634   23948867.7374
     -2053.0784
  -7215784.69149  -5611191.76247  22555020.9524   22555018.1014
       902.8594
   6622903.72149   5157496.50748  21644700.6794   21644696.7764
     -2660.7194
  -1022447.95548   -793499.02443  24643310.5694   24643309.1554
       217.5004
  -1926933.69148  -1491203.45544  24734428.6324   24734426.8944
      2108.3754
  18605889.01348  14474640.83044  24290895.4294   24290891.7534
     -4495.1564
   -969058.02049   -752271.25348  21869261.8124   21869259.0974
      -329.8124
 04  9  2 22 25 45.0030000  0  8G19G 3G 8G13G10G28G23G27
  -4200876.11748  -3265727.47145  23647482.0384   23647477.4794
       394.8914
   2363042.55247   1845703.45044  23954742.3904   23954741.5114
     -2061.8594
  -7229303.73149  -5621726.07247  22552447.9994   22552445.7104
       900.2034
   6662872.48649   5188640.99848  21652306.7184   21652303.0814
     -2668.0624
  -1025643.22847   -795988.82543  24642702.4604   24642700.7104
       208.9694
  -1958535.88748  -1515828.51544  24728414.4914   24728413.1634
      2105.7664
  18673342.37448  14527201.82344  24303731.7414   24303727.9214
     -4498.1874
   -964087.99749   -748398.50048  21870207.3584   21870204.7334
      -332.3594
 04  9  2 22 26  0.0030000  0  8G19G 3G 8G13G10G28G23G27
  -4206738.46648  -3270295.51046  23646366.4604   23646362.6634
       386.9694
   2394044.79348   1869861.04844  23960642.3514   23960640.3704
     -2071.4534
  -7242780.04149  -5632227.06647  22549883.4604   22549881.1204
       896.8594
   6702956.28749   5219875.12648  21659934.5544   21659931.1554
     -2676.2194
  -1028706.61747   -798375.86443  24642119.2654   24642117.8974
       199.7814
  -1990095.50748  -1540420.37044  24722408.6874   24722407.5734
      2102.4224
  18740844.96848  14579801.23144  24316577.5384   24316572.9954
     -4501.8754
   -959077.05249   -744493.85748  21871160.9914   21871158.0974
      -335.5314
 04  9  2 22 26 15.0030000  0  8G19G 3G 8G13G10G28G23G27
  -4212486.01548  -3274774.10446  23645272.9684   23645268.8434
       379.3594
   2425185.64848   1894126.62244  23966568.2024   23966566.9524
     -2080.6564
  -7256211.92749  -5642693.45147  22547327.3744   22547325.2884
       893.9694
   6743156.56349   5251200.01348  21667584.4214   21667580.7414
     -2683.9224
  -1031636.31748   -800658.72343  24641561.5544   24641560.3704
       190.7504
  -2021610.83448  -1564977.71843  24716412.0854   24716410.8824
      2099.5634
  18808398.43048  14632440.24544  24329431.8354   24329428.1754
     -4505.1724
   -954023.47749   -740555.99948  21872122.4834   21872120.0774
      -338.2664
 04  9  2 22 26 30.0030000  0  8G19G 3G 8G13G10G28G23G27
  -4218115.94348  -3279161.02546  23644201.1164   23644196.4294
       371.1254
   2456467.43448   1918502.06444  23972521.2574   23972520.1044
     -2090.4064
  -7269597.14549  -5653123.47047  22544780.3354   22544778.2614
       890.5474
   6783475.67349   5282617.48048  21675256.6874   21675253.3234
     -2692.1564
  -1034429.71548   -802835.38443  24641030.1554   24641028.5264
       181.3914
  -2053079.24548  -1589498.51343  24710423.3044   24710422.4444
      2096.1254
  18876004.97048  14685120.60944  24342297.0074   24342293.6284
     -4509.0944
   -948924.79749   -736582.99148  21873093.0544   21873090.1904
      -341.6254
 04  9  2 22 26 45.0030000  0  8G19G 3G 8G13G10G28G23G27
  -4223629.18748  -3283457.04246  23643152.5154   23643147.8514
       363.7814
   2487888.94848   1942986.35245  23978500.4134   23978499.2654
     -2099.2814
  -7282936.39349  -5663517.68647  22542241.8584   22542239.7184
       887.8914
   6823912.47349   5314126.67748  21682951.7654   21682948.0814
     -2699.5624
  -1037087.75948   -804906.58643  24640524.5694   24640523.1714
       172.8754
  -2084501.60848  -1613983.39543  24704443.8124   24704443.3124
      2093.4534
  18943663.26048  14737841.32444  24355172.5154   24355168.5264
     -4512.1094
   -943781.98949   -732575.60448  21874071.4134   21874068.7454
      -344.1414
 04  9  2 22 27  0.0030000  0  8G19G 3G 8G13G10G28G23G27
  -4229026.04948  -3287662.37346  23642125.6084   23642121.0424
       356.3754
   2519449.42648   1967578.93044  23984505.7264   23984504.9054
     -2108.1254
  -7296230.24449  -5673876.51547  22539712.2724   22539709.9834
       885.2034
   6864466.27049   5345727.03448  21690669.0624   21690665.2654
     -2706.9844
  -1039610.98547   -806872.71343  24640043.7184   24640043.0344
       164.2664
  -2115878.41748  -1638432.81043  24698472.8044   24698472.0544
      2090.7034
  19011372.53948  14790601.76244  24368056.4764   24368053.9294
     -4515.1724
   -938595.66349   -728534.30948  21875058.3354   21875055.6284
      -346.7194
 04  9  2 22 27 15.0030000  0  8G19G 3G 8G13G10G28G23G27
  -4234310.02748  -3291779.71246  23641119.3514   23641115.7844
       348.5314
   2551145.05148   1992276.83144  23990536.8664   23990535.8234
     -2117.5314
  -7309482.66049  -5684203.05347  22537190.1874   22537188.1594
       882.1414
   6905133.21449   5377415.55648  21698407.3354   21698403.7844
     -2714.8914
  -1042002.95148   -808736.56043  24639588.9604   24639587.7884
       155.1724
  -2147213.22348  -1662849.48843  24692510.3904   24692509.0424
      2087.6564
  19079128.77648  14843398.78844  24380950.6404   24380946.7924
     -4518.7034
   -933369.52949   -724461.97248  21876052.9214   21876050.1594
      -349.7034
 04  9  2 22 27 30.0030000  0  8G19G 3G 8G13G10G28G23G27
  -4239473.54748  -3295803.22646  23640136.9684   23640131.4874
       340.2814
   2582983.12348   2017085.70244  23996596.2334   23996594.3784
     -2127.1414
  -7322685.99849  -5694491.35447  22534677.9054   22534675.8624
       878.6094
   6945920.59349   5409197.93348  21706169.1554   21706165.5224
     -2723.0624
  -1044256.22248   -810492.35943  24639160.9604   24639159.3124
       145.6414
  -2178498.44348  -1687227.53043  24686556.8514   24686555.5624
      2084.0474
  19146939.03748  14896237.90344  24393853.6714   24393850.9294
     -4522.3594
   -928096.11549   -720352.82148  21877056.5384   21877053.5194
      -353.0784
 04  9  2 22 27 45.0030000  0  8G19G 3G 8G13G10G28G23G27
  -4244520.87548  -3299736.19746  23639176.2724   23639171.4484
       332.5164
   2614958.92648   2042001.89744  24002681.0624   24002679.3004
     -2136.4224
  -7335844.78949  -5704744.94247  22532173.7574   22532171.2614
       875.6564
   6986823.77849   5441070.53348  21713952.6324   21713949.2104
     -2730.8914
  -1046375.20348   -812143.50243  24638757.3194   24638755.9914
       136.7344
  -2209738.44147  -1711570.32343  24680611.1944   24680610.3944
      2080.9534
  19214798.58748  14949115.43244  24406767.7724   24406764.1204
     -4525.6874
   -922780.05549   -716210.42848  21878068.3584   21878065.4444
      -355.9064
 04  9  2 22 28  0.0030000  0  8G19G 3G 8G13G10G28G23G27
  -4249451.82548  -3303578.46246  23638237.3824   23638234.4014
       324.5784
   2647072.30348   2067025.31044  24008792.6324   24008790.0304
     -2145.6254
  -7348958.93249  -5714963.73947  22529678.5224   22529675.8824
       872.5634
   7027842.67949   5473033.30948  21721758.2964   21721754.3084
     -2738.6874
  -1048359.65247   -813689.80143  24638379.7494   24638377.7334
       127.5944
  -2240933.16347  -1735877.86243  24674675.2964   24674674.6244
      2077.9694
  19282707.24948  15002031.22944  24419690.2494   24419687.1754
     -4529.0624
   -917421.15649   -712034.65148  21879087.8194   21879085.1674
      -358.8754
 04  9  2 22 28 15.0030000  0  8G19G 3G 8G13G10G28G23G27
  -4254269.15448  -3307332.21046  23637321.6794   23637316.9214
       317.5314
   2679320.16548   2092153.52844  24014928.2964   24014926.8744
     -2154.1414
  -7362031.36749  -5725150.03247  22527190.6324   22527188.2294
       870.2974
   7068974.31749   5505083.91448  21729585.4134   21729581.9794
     -2745.7034
  -1050212.49847   -815133.58343  24638026.3824   24638025.4174
       119.2974
  -2272085.29647  -1760152.18643  24668747.4444   24668746.7844
      2075.6094
  19350661.73048  15054982.70144  24432621.5854   24432618.5774
     -4531.5944
   -912022.50349   -707827.90148  21880115.0774   21880112.4134
      -361.0784
 04  9  2 22 28 30.0030000  0  8G19G 3G 8G13G10G28G23G27
  -4258967.47248  -3310993.22446  23636427.0544   23636422.4134
       309.4224
   2711707.62547   2117390.49544  24021091.1404   24021090.9134
     -2163.7344
  -7375056.96949  -5735299.84147  22524712.1944   22524709.4954
       867.0314
   7110223.66749   5537226.28148  21737434.6164   21737431.3864
     -2753.7664
  -1051928.47847   -816470.69643  24637700.5934   24637698.9684
       110.0314
  -2303189.54348  -1784389.20143  24662828.9994   24662827.4294
      2072.0944
  19418667.13648  15107973.88944  24445562.5774   24445559.1794
     -4535.2504
   -906578.86049   -703586.10348  21881151.2494   21881148.5224
      -364.2504
 04  9  2 22 28 45.0030000  0  8G19G 3G 8G13G10G28G23G27
  -4263551.01048  -3314564.77846  23635554.8904   23635551.2884
       301.7194
   2744229.90647   2142732.52444  24027279.3824   24027279.3154
     -2172.7344
  -7388040.14949  -5745416.57747  22522241.5774   22522239.1164
       864.1254
   7151586.01149   5569456.66648  21745305.6794   21745302.4874
     -2761.2814
  -1053512.02147   -817704.60743  24637399.2414   24637397.4644
       101.1564
  -2334250.39348  -1808592.39443  24656918.3824   24656916.3434
      2069.2504
  19486718.50248  15161000.88944  24458512.4294   24458508.8474
     -4538.2664
   -901094.71849   -699312.72548  21882194.3194   21882191.9524
      -366.9844
 04  9  2 22 29  0.0040000  0  8G19G 3G 8G13G10G28G23G27
  -4268021.63748  -3318048.35746  23634703.9734   23634699.9964
       294.0634
   2776887.38747   2168179.89344  24033494.2774   24033494.2974
     -2181.6874
  -7400983.42249  -5755502.23347  22519778.3794   22519776.1174
       861.3134
   7193062.29949   5601775.84748  21753198.6054   21753194.9264
     -2768.8284
  -1054964.96247   -818836.75543  24637122.6294   24637120.6484
        92.3444
  -2365271.47048  -1832764.63143  24651015.2304   24651013.8754
      2066.3594
  19554818.42548  15214065.70544  24471471.0824   24471468.1054
     -4541.2664
   -895571.44149   -695008.86748  21883245.8634   21883242.8634
      -369.6874
 04  9  2 22 29 15.0040000  0  8G19G 3G 8G13G10G28G23G27
  -4272372.43548  -3321438.55945  23633875.9804   23633871.1724
       286.1884
   2809681.55547   2193733.80444  24039735.1604   24039734.1724
     -2190.8124
  -7413879.02149  -5765550.73547  22517323.9804   22517322.1054
       858.2194
   7234652.98349   5634184.16748  21761113.2854   21761109.5354
     -2776.5314
  -1056280.85947   -819862.11643  24636872.6764   24636871.3284
        83.2504
  -2396242.42348  -1856897.77444  24645121.3554   24645119.6374
      2063.2504
  19622963.67548  15267165.84344  24484438.6844   24484435.5084
     -4544.6414
   -890003.66649   -690670.33948  21884305.1914   21884302.1994
      -372.5314
 04  9  2 22 29 30.0040000  0  8G19G 3G 8G13G10G28G23G27
  -4276607.58248  -3324738.66346  23633070.6134   23633066.3524
       278.1724
   2842610.32048   2219392.59244  24046001.5744   24046000.2424
     -2200.0314
  -7426732.13349  -5775566.12247  22514878.3554   22514876.0744
       855.1724
   7276356.63149   5666680.51648  21769049.0354   21769045.1684
     -2784.3444
  -1057463.91248   -820783.96343  24636646.5664   24636645.3554
        74.1094
  -2427169.25848  -1880996.54644  24639236.5274   24639234.6024
      2060.0004
  19691154.33148  15320301.36544  24497415.7544   24497412.5314
     -4547.9374
   -884395.22149   -686300.10848  21885372.3244   21885369.3874
      -375.5784
 04  9  2 22 29 45.0040000  0  8G19G 3G 8G13G10G28G23G27
  -4280723.34048  -3327945.71546  23632287.0514   23632282.9924
       270.3594
   2875677.12748   2245158.93544  24052294.2934   24052292.9924
     -2209.0784
  -7439538.97749  -5785545.46247  22512441.6914   22512439.2734
       852.2344
   7318176.64749   5699267.52748  21777007.1604   21777003.5984
     -2791.9064
  -1058510.40548   -821599.39244  24636448.0354   24636446.0554
        65.2664
  -2458048.32148  -1905058.10744  24633360.1994   24633358.2424
      2056.9384
  19759393.76348  15373474.88444  24510401.4184   24510397.1414
     -4550.9694
   -878742.43049   -681895.32948  21886447.8874   21886444.9884
      -378.4534
 04  9  2 22 30  0.0040000  0  8G19G 3G 8G13G10G28G23G27
  -4284722.29548  -3331061.75346  23631525.8324   23631521.5984
       262.5634
   2908878.95548   2271030.49544  24058612.4574   24058610.7774
     -2218.0474
  -7452302.48949  -5795491.04947  22510012.4104   22510010.2194
       849.3594
   7360110.07649   5731942.92448  21784986.6294   21784982.9144
     -2799.4064
  -1059423.06348   -822310.52643  24636273.0434   24636272.2734
        56.2814
  -2488882.36648  -1929084.57444  24627493.3484   24627490.9884
      2053.9694
  19827678.87148  15426684.04344  24523394.7934   24523391.5744
     -4553.9694
   -873048.15349   -677458.23348  21887531.9494   21887528.4774
      -381.1254
 04  9  2 22 30 15.0040000  0  8G19G 3G 8G13G10G28G23G27
  -4288600.58048  -3334083.76846  23630788.1844   23630783.5274
       254.3444
   2942219.33548   2297009.98344  24064956.5664   24064955.3794
     -2227.5164
  -7465018.71049  -5805399.78547  22507592.5594   22507590.5824
       845.9844
   7402160.37149   5764709.38948  21792988.5824   21792985.3124
     -2807.4694
  -1060198.34848   -822914.65644  24636126.7544   24636124.9774
        46.8754
  -2519667.54648  -1953072.99544  24621634.7154   24621632.4964
      2050.4224
  19896012.97748  15479931.34444  24536398.9104   24536395.0314
     -4557.5004
   -867308.82149   -672986.02048  21888623.9574   21888621.2194
      -384.3124
 04  9  2 22 30 30.0040000  0  8G19G 3G 8G13G10G28G23G27
  -4292359.71348  -3337012.94546  23630073.1994   23630068.5824
       247.1254
   2975696.20848   2323095.89344  24071326.8944   24071325.4374
     -2235.8124
  -7477689.80349  -5815273.33447  22505181.4264   22505179.1874
       843.7344
   7444325.66249   5797565.44648  21801012.3634   21801008.6994
     -2814.4064
  -1060837.84848   -823412.94744  24636004.6134   24636003.2814
        38.5944
  -2550405.64548  -1977024.66844  24615785.0044   24615783.2114
      2048.1564
  19964394.08948  15533215.27944  24549410.5044   24549407.5624
     -4559.8284
   -861526.18149   -668480.05248  21889724.5124   21889721.4224
      -386.5004
 04  9  2 22 30 45.0040000  0  8G19G 3G 8G13G10G28G23G27
  -4296000.02448  -3339849.52846  23629380.2154   23629376.6374
       238.2664
   3009309.22148   2349287.83044  24077722.9654   24077722.3404
     -2245.9064
  -7490315.79849  -5825111.75847  22502778.9494   22502776.3404
       839.7194
   7486605.51949   5830510.77548  21809057.7464   21809054.6684
     -2822.9844
  -1061341.78247   -823805.61744  24635908.6134   24635907.1874
        28.6724
  -2581096.67848  -2000939.71344  24609944.8324   24609943.1414
      2044.0164
  20032821.64748  15586535.41744  24562432.7074   24562429.2114
     -4563.8444
   -855700.33649   -663940.42648  21890833.0664   21890829.7894
      -390.3284
 04  9  2 22 31  0.0040000  0  8G19G 3G 8G13G10G28G23G27
  -4299517.84948  -3342590.65846  23628710.6214   23628706.5984
       230.3754
   3043061.39448   2375588.24644  24084146.1524   24084144.5354
     -2254.8284
  -7502893.51449  -5834912.55347  22500384.9574   22500382.8284
       836.8284
   7529003.00049   5863547.77248  21817125.6054   21817122.5004
     -2830.4694
  -1061706.67148   -824089.90744  24635840.0514   24635838.0824
        19.6254
  -2611737.27548  -2024815.43144  24604113.4574   24604111.9734
      2040.9384
  20101298.67648  15639894.07844  24575463.8014   24575459.6724
     -4566.9064
   -849828.17449   -659364.70148  21891950.5594   21891947.6054
      -393.1254
 04  9  2 22 31 15.0040000  0  8G19G 3G 8G13G10G28G23G27
  -4302912.81448  -3345236.07346  23628065.1134   23628060.9024
       222.4694
   3076952.73348   2401997.09144  24090595.3634   24090594.0824
     -2263.7814
  -7515422.69449  -5844675.53347  22498001.1054   22497998.9614
       833.8754
   7571518.22549   5896676.51048  21825216.4804   21825213.1134
     -2838.0314
  -1061932.33447   -824265.75544  24635796.3484   24635795.0084
        10.7504
  -2642327.12847  -2048651.62844  24598292.7384   24598291.5354
      2037.8284
  20169825.05448  15693291.20044  24588503.7384   24588499.8204
     -4569.9224
   -843909.50349   -654752.75548  21893076.5824   21893073.9964
      -395.8754
 04  9  2 22 31 30.0040000  0  8G19G 3G 8G13G10G28G23G27
  -4306189.72848  -3347789.49746  23627441.2384   23627436.8284
       214.9694
   3110978.24248   2428510.47344  24097070.5664   24097068.4534
     -2272.4374
  -7527908.07549  -5854404.38347  22495625.3164   22495622.6054
       831.4694
   7614146.22849   5929893.12948  21833328.2154   21833324.6524
     -2845.1254
  -1062023.65947   -824336.90144  24635779.3554   24635777.1054
         2.1414
  -2672871.08347  -2072452.04544  24592480.3324   24592479.1334
      2035.2664
  20238395.59748  15746722.73444  24601552.5664   24601549.1604
     -4572.3754
   -837949.10349   -650108.27848  21894211.0274   21894208.0984
      -398.2814
 04  9  2 22 31 45.0040000  0  8G19G 3G 8G13G10G28G23G27
  -4309351.42348  -3350253.12846  23626838.7304   23626835.1254
       206.9224
   3145134.66348   2455125.88744  24103570.0514   24103568.0514
     -2281.4064
  -7540352.87449  -5864101.60847  22493257.1524   22493254.5314
       828.2504
   7656883.74049   5963195.08948  21841460.7774   21841457.5594
     -2852.8444
  -1061983.63047   -824305.72144  24635786.7464   24635785.1604
        -7.0474
  -2703371.93647  -2096218.89344  24586675.9104   24586674.6914
      2031.9844
  20307007.09148  15800186.20344  24614608.7854   24614605.6644
     -4575.4224
   -831950.11649   -645433.73948  21895352.4884   21895349.5314
      -401.2034
 04  9  2 22 32  0.0040000  0  8G19G 3G 8G13G10G28G23G27
  -4312396.47548  -3352625.87146  23626259.5434   23626255.8634
       198.7814
   3179423.06548   2481844.10944  24110094.4184   24110093.1844
     -2290.5784
  -7552755.79849  -5873766.21247  22490896.8944   22490894.2814
       825.1724
   7699731.96949   5996583.29648  21849614.5354   21849611.4734
     -2860.5474
  -1061810.99248   -824171.17144  24635819.1444   24635818.3944
       -16.1874
  -2733828.39248  -2119951.13144  24580880.1844   24580878.7194
      2028.6254
  20375660.40148  15853682.22744  24627672.4414   24627669.1764
     -4578.5784
   -825911.29749   -640728.15948  21896501.8014   21896498.4024
      -404.2034
 04  9  2 22 32 15.0040000  0  8G19G 3G 8G13G10G28G23G27
  -4315316.12848  -3354900.90646  23625703.9964   23625700.3484
       190.6564
   3213851.85148   2508671.74844  24116645.9494   24116645.3754
     -2299.7194
  -7565108.18349  -5883391.42547  22488546.2384   22488543.8054
       821.9844
   7742699.26149   6030064.31048  21857790.7154   21857787.5904
     -2868.2814
  -1061496.97048   -823926.47944  24635879.2854   24635878.0744
       -25.4224
  -2764231.67947  -2143641.94944  24575094.3094   24575093.1724
      2025.3444
  20444363.97348  15907217.41144  24640747.3554   24640743.7624
     -4581.6564
   -819823.97049   -635984.78948  21897659.8874   21897656.9104
      -407.2664
 04  9  2 22 32 30.0040000  0  8G19G 3G 8G13G10G28G23G27
  -4318115.47748  -3357082.17746  23625170.6524   23625167.3634
       183.0004
   3248415.63748   2535604.56544  24123223.1054   24123222.6214
     -2308.3914
  -7577415.20749  -5892981.29447  22486203.9104   22486201.5084
       819.3284
   7785780.25749   6063633.90348  21865988.7304   21865985.7304
     -2875.4844
  -1061046.79848   -823575.69144  24635965.6054   24635964.2304
       -34.2504
  -2794587.09247  -2167295.43343  24569318.0664   24569316.6254
      2022.4844
  20513112.17748  15960787.41044  24653829.2234   24653825.6484
     -4584.3754
   -813693.37749   -631207.68448  21898826.5354   21898823.3914
      -409.7814
 04  9  2 22 32 45.0040000  0  8G19G 3G 8G13G10G28G23G27
  -4320792.50548  -3359168.15746  23624662.2464   23624657.9264
       174.2344
   3283115.94048   2562643.75444  24129827.0274   24129825.4574
     -2318.0474
  -7589675.14649  -5902534.47547  22483871.4734   22483868.7854
       815.5944
   7828976.47449   6097293.28748  21874209.1524   21874205.5624
     -2883.8124
  -1060458.69448   -823117.39244  24636077.8634   24636075.4024
       -43.9534
  -2824892.62647  -2190910.09443  24563550.6294   24563549.1254
      2018.4694
  20581906.54948  16014393.35944  24666920.1214   24666917.4694
     -4588.0164
   -807517.87449   -626395.59948  21900001.6524   21899998.7074
      -413.3754
 04  9  2 22 33  0.0040000  0  8G19G 3G 8G13G10G28G23G27
  -4323346.03648  -3361157.90646  23624176.5194   23624171.4264
       166.1414
   3317953.49648   2589789.90344  24136456.2694   24136454.8634
     -2327.1254
  -7601886.96649  -5912050.16547  22481547.6054   22481544.7074
       812.5634
   7872288.82649   6131043.16848  21882451.1444   21882447.8444
     -2891.3124
  -1059731.58348   -822550.81444  24636216.4104   24636214.2154
       -53.0944
  -2855147.27848  -2214485.06043  24557793.6764   24557792.4614
      2015.2664
  20650747.68848  16068035.74744  24680020.7304   24680017.0314
     -4590.8594
   -801296.50249   -621547.77448  21901185.6374   21901182.8364
      -416.1874
 04  9  2 22 33 15.0040000  0  8G19G 3G 8G13G10G28G23G27
  -4325780.77748  -3363055.09146  23623713.4344   23623708.2624
       158.4534
   3352923.35648   2617039.14244  24143111.0274   24143109.1954
     -2335.5784
  -7614055.45149  -5921532.07647  22479231.6914   22479229.1994
       809.8914
   7915712.26149   6164879.59548  21890714.4184   21890710.7384
     -2898.5314
  -1058870.29348   -821879.66844  24636379.6914   24636377.9614
       -61.8124
  -2885355.65448  -2238024.01444  24552045.5044   24552043.4534
      2012.4694
  20719630.52748  16121710.61444  24693128.4344   24693125.8674
     -4593.4064
   -795033.96449   -616667.86348  21902377.4104   21902374.5904
      -418.7974
 04  9  2 22 33 30.0040000  0  8G19G 3G 8G13G10G28G23G27
  -4328096.54048  -3364859.57446  23623271.8164   23623267.4494
       149.9384
   3388025.37148   2644391.35644  24149790.7234   24149788.7694
     -2345.0474
  -7626180.69649  -5930980.31247  22476924.5984   22476922.1644
       806.4224
   7959246.64149   6198802.47648  21898998.4654   21898995.2504
     -2906.5314
  -1057874.73248   -821103.86844  24636569.0514   24636566.8444
       -71.3124
  -2915517.73848  -2261526.87444  24546305.8094   24546303.4454
      2008.8754
  20788554.73148  16175417.74244  24706244.7854   24706241.6254
     -4596.8444
   -788730.31249   -611755.92548  21903576.9734   21903573.7774
      -422.1564
 04  9  2 22 33 45.0040000  0  8G19G 3G 8G13G10G28G23G27
  -4330287.11748  -3366566.49646  23622855.6054   23622851.7694
       141.6884
   3423265.39548   2671851.13344  24156496.1764   24156494.0004
     -2354.1254
  -7638256.70949  -5940390.17647  22474626.4734   22474624.0434
       803.2344
   8002897.93849   6232816.47648  21907304.9024   21907301.0434
     -2914.1414
  -1056738.86548   -820218.79544  24636785.0044   24636783.2114
       -80.5474
  -2945627.35448  -2284988.87344  24540575.8794   24540574.0784
      2005.2814
  20857526.17548  16229161.70144  24719369.1524   24719365.9534
     -4599.7664
   -782379.51349   -606807.24548  21904785.2694   21904782.2624
      -425.1874
 04  9  2 22 34  0.0040000  0  8G19G 3G 8G13G10G28G23G27
  -4332355.99948  -3368178.58146  23622461.5274   23622456.9264
       133.8444
   3458639.45248   2699415.34144  24163227.8794   24163226.5084
     -2362.7034
  -7650287.09049  -5949764.47647  22472337.3634   22472334.7734
       800.5474
   8046662.23249   6266918.50848  21915633.2074   21915630.0314
     -2921.3594
  -1055466.29348   -819227.16444  24637027.1054   24637025.2934
       -89.3754
  -2975688.04748  -2308412.72044  24534855.3714   24534853.3914
      2002.5314
  20926540.90648  16282939.33444  24732501.0824   24732499.5164
     -4602.3594
   -775985.16649   -601824.62348  21906002.4964   21905999.3444
      -427.7194
 04  9  2 22 34 15.0040000  0  8G19G 3G 8G13G10G28G23G27
  -4334299.73548  -3369693.17246  23622091.7774   23622087.4734
       125.6884
   3494150.68048   2727086.43744  24169985.0824   24169983.4264
     -2371.7034
  -7662268.62249  -5959100.72748  22470057.3554   22470055.1994
       797.4064
   8090542.68549   6301111.07548  21923983.4024   21923979.9774
     -2928.9374
  -1054053.65948   -818126.38444  24637295.7154   24637294.0514
       -98.5164
  -3005696.40948  -2331795.81444  24529145.2464   24529143.5434
      1999.1094
  20995601.85948  16336753.00344  24745644.4574   24745641.1174
     -4605.2814
   -769544.14849   -596805.64748  21907228.1294   21907225.2154
      -430.6874
 04  9  2 22 34 30.0040000  0  8G19G 3G 8G13G10G28G23G27
  -4336117.16848  -3371109.33646  23621744.5664   23621741.5164
       116.9534
   3529799.82648   2754864.97944  24176769.0434   24176767.5664
     -2381.2034
  -7674200.11049  -5968397.97248  22467786.9104   22467784.1914
       793.8134
   8134540.06949   6335394.74248  21932355.7774   21932352.5744
     -2937.0164
  -1052499.96048   -816915.71144  24637591.5274   24637589.5784
      -108.2664
  -3035651.35548  -2355137.27044  24523444.1294   24523442.5864
      1995.1414
  21064709.74248  16390603.27044  24758795.5984   24758791.7504
     -4608.7814
   -763055.40749   -591749.46348  21908462.6844   21908459.8324
      -434.1414
 04  9  2 22 34 45.0040000  0  8G19G 3G 8G13G10G28G23G27
  -4337811.28248  -3372429.39946  23621422.7384   23621418.9694
       108.8754
   3565583.58848   2782748.42744  24183578.3324   24183576.6024
     -2390.0004
  -7686084.77649  -5977658.73148  22465524.8244   22465522.6524
       790.7504
   8178651.20949   6369767.04348  21940750.3164   21940746.9374
     -2944.5314
  -1050808.20548   -815597.46344  24637912.8944   24637911.2624
      -117.3914
  -3065555.88948  -2378439.44144  24517754.0044   24517752.4844
      1992.0164
  21133861.21548  16444487.48044  24771954.2694   24771950.9454
     -4611.5474
   -756521.92249   -586658.43948  21909705.9414   21909703.0744
      -437.0164
 04  9  2 22 35  0.0040000  0  8G19G 3G 8G13G10G28G23G27
  -4339379.94648  -3373651.72246  23621124.4494   23621120.9734
       100.3444
   3601503.81348   2810738.22444  24190413.8164   24190412.3094
     -2399.2344
  -7697920.69349  -5986881.51447  22463272.8944   22463270.4414
       787.4224
   8222877.79749   6404229.31548  21949165.9734   21949162.7074
     -2952.3754
  -1048976.43447   -814170.09344  24638261.7544   24638259.9264
      -126.7344
  -3095407.94348  -2401700.73544  24512073.9734   24512071.8094
      1988.3444
  21203058.00748  16498406.99444  24785121.8094   24785119.0554
     -4614.7194
   -749941.88649   -581531.12848  21910957.8164   21910955.2384
      -440.2974
 04  9  2 22 35 15.0040000  0  8G19G 3G 8G13G10G28G23G27
  -4340825.28048  -3374777.93146  23620849.5434   23620845.3324
        92.0474
   3637557.83248   2838832.23944  24197274.9654   24197273.8674
     -2408.2664
  -7709710.13649  -5996068.08148  22461029.3794   22461027.1024
       784.2664
   8267217.34449   6438779.59548  21957603.6054   21957600.0234
     -2959.8914
  -1047007.06247   -812635.50144  24638636.8484   24638635.6094
      -136.0944
  -3125209.85448  -2424922.94844  24506402.6374   24506400.4064
      1984.9384
  21272297.43448  16552359.75243  24798297.1214   24798294.2694
     -4617.5004
   -743317.53249   -576369.28248  21912218.7624   21912215.7664
      -443.2814
 04  9  2 22 35 30.0040000  0  8G19G 3G 8G13G10G28G23G27
  -4342144.92948  -3375806.21346  23620598.2154   23620594.0434
        83.9844
   3673747.67547   2867032.10744  24204161.5514   24204160.4454
     -2416.9374
  -7721450.85849  -6005216.68147  22458795.0274   22458792.3524
       781.3134
   8311671.96449   6473419.55648  21966063.1524   21966059.5944
     -2967.3754
  -1044897.77248   -810991.90044  24639038.4574   24639036.9374
      -144.9844
  -3154959.15648  -2448104.16844  24500741.8404   24500739.6844
      1981.7504
  21341581.41148  16606347.23543  24811481.7234   24811478.1604
     -4620.2814
   -736646.70149   -571171.23648  21913488.0514   21913484.7624
      -446.0624
 04  9  2 22 35 45.0040000  0  8G19G 3G 8G13G10G28G23G27
  -4343346.42848  -3376742.40546  23620370.1374   23620365.4734
        76.1724
   3710065.39947   2895331.63544  24211072.0124   24211071.7274
     -2425.4534
  -7733150.51149  -6014333.28347  22456568.3094   22456565.6294
       778.6724
   8356233.75849   6508143.02148  21974542.6764   21974539.4574
     -2974.2814
  -1042656.27147   -809245.25143  24639464.0194   24639463.4144
      -153.7814
  -3184663.51047  -2471250.37844  24495088.8714   24495087.0704
      1978.8284
  21410901.90048  16660363.14443  24824672.6054   24824669.6054
     -4622.5004
   -729937.17049   -565943.01348  21914764.7074   21914761.2074
      -448.5474
 04  9  2 22 36  0.0040000  0  8G19G 3G 8G13G10G28G23G27
  -4344424.18148  -3377582.20146  23620165.2384   23620160.5554
        67.5164
   3746516.24748   2923734.88544  24218009.1844   24218007.8444
     -2434.6564
  -7744803.70149  -6023413.67747  22454351.1214   22454348.5194
       775.1884
   8400908.00249   6542954.11048  21983044.2774   21983040.8524
     -2982.1724
  -1040277.01147   -807391.27344  24639917.4884   24639916.1914
      -163.4534
  -3214317.23348  -2494357.10744  24489446.0194   24489443.7504
      1975.0164
  21480264.16548  16714411.58243  24837873.4104   24837869.7344
     -4625.7344
   -723183.43249   -560680.35448  21916049.8794   21916046.4454
      -451.8914
 04  9  2 22 36 15.0040000  0  8G19G 3G 8G13G10G28G23G27
  -4345376.44448  -3378324.19846  23619983.6684   23619979.4844
        59.4534
   3783101.70648   2952243.04244  24224970.6294   24224969.6024
     -2443.4224
  -7756408.84149  -6032456.62648  22452142.8404   22452140.2664
       772.1724
   8445696.07449   6577853.90348  21991566.8794   21991563.4144
     -2989.5164
  -1037758.43047   -805428.73944  24640396.5354   24640395.4264
      -172.4694
  -3243918.68248  -2517423.11644  24483812.9734   24483810.9264
      1971.7034
  21549669.49948  16768493.61344  24851080.1294   24851076.5514
     -4628.3754
   -716383.85749   -555381.96848  21917343.8164   21917340.8164
      -454.7664
 04  9  2 22 36 30.0040000  0  8G19G 3G 8G13G10G28G23G27
  -4346206.39448  -3378970.89746  23619825.8094   23619821.1684
        51.1254
   3819818.07348   2980853.20644  24231957.4804   24231956.2234
     -2452.2194
  -7767969.32349  -6041464.77947  22449942.6524   22449940.1604
       769.0944
   8490594.56849   6612839.72648  22000110.6994   22000107.5984
     -2996.9694
  -1035103.79847   -803360.18844  24640901.7074   24640901.0704
      -181.6094
  -3273471.21747  -2540451.01444  24478188.5194   24478187.3794
      1968.4064
  21619114.16748  16822606.29243  24864294.9574   24864291.1134
     -4631.0944
   -709541.81349   -550050.50048  21918646.0514   21918642.4024
      -457.6564
 04  9  2 22 36 45.0040000  0  8G19G 3G 8G13G10G28G23G27
  -4346908.61448  -3379518.07946  23619692.5594   23619687.8984
        42.4224
   3856670.49048   3009569.36844  24238970.8874   24238969.0824
     -2461.3914
  -7779479.77949  -6050433.96047  22447752.4654   22447750.1644
       765.6094
   8535608.50749   6647915.52648  22008676.5664   22008673.6294
     -3004.8124
  -1032307.83447   -801181.52144  24641433.2304   24641432.4694
      -191.2344
  -3302969.48547  -2563436.62244  24472575.4414   24472574.1994
      1964.7034
  21688603.20948  16876753.52544  24877518.1684   24877514.9924
     -4634.1724
   -702652.00249   -544681.81448  21919956.9414   21919953.7194
      -461.0164
 04  9  2 22 37  0.0040000  0  8G19G 3G 8G13G10G28G23G27
  -4347488.30948  -3379969.75246  23619581.5044   23619577.7234
        34.7664
   3893653.36948   3038387.20444  24246008.4574   24246006.6914
     -2469.5474
  -7790945.45249  -6059368.22647  22445570.3244   22445567.6844
       763.1884
   8580732.32049   6683076.92748  22017263.5434   22017260.3204
     -3011.5944
  -1029375.91247   -798896.89243  24641991.5514   24641989.9264
      -199.7974
  -3332418.69747  -2586383.98644  24466971.4104   24466969.9374
      1962.0004
  21758130.99348  16930930.97944  24890748.9654   24890746.6374
     -4636.1254
   -695719.85749   -539280.12948  21921276.0274   21921272.8164
      -463.2974
 04  9  2 22 37 15.0040000  0  8G19G 3G 8G13G10G28G23G27
  -4347943.29148  -3380324.26546  23619495.1524   23619490.8874
        25.9224
   3930768.63948   3067308.21344  24253071.2854   24253070.1524
     -2479.0314
  -7802364.49749  -6068266.17547  22443397.2384   22443394.9774
       759.4534
   8625967.86249   6718325.38848  22025871.6374   22025868.4454
     -3019.6414
  -1026306.00247   -796504.73343  24642575.1294   24642574.0474
      -209.5784
  -3361816.61747  -2609291.39944  24461376.9734   24461374.8014
      1957.8284
  21827699.30248  16985139.98444  24903988.0514   24903984.9924
     -4639.4844
   -688743.34749   -533843.88648  21922603.4574   21922600.8364
      -466.7974
 04  9  2 22 37 30.0040000  0  8G19G 3G 8G13G10G28G23G27
  -4348270.52448  -3380579.23546  23619432.9184   23619428.9574
        17.9064
   3968018.89148   3096334.35644  24260159.8404   24260158.5784
     -2487.5784
  -7813733.87149  -6077125.41448  22441234.1134   22441231.4344
       756.6094
   8671317.83349   6753663.02248  22034500.9964   22034498.1844
     -3026.8444
  -1023095.18447   -794002.81743  24643187.4104   24643185.1764
      -218.4534
  -3391160.26947  -2632156.53144  24455793.0194   24455791.2584
      1954.8444
  21897310.67448  17039382.54144  24917234.3714   24917231.2694
     -4641.8594
   -681719.56449   -528370.79948  21923939.8634   21923936.9064
      -469.5004
 04  9  2 22 37 45.0040000  0  8G19G 3G 8G13G10G28G23G27
  -4348471.49048  -3380735.82146  23619394.0514   23619389.7974
         9.3444
   4005402.14348   3125464.15644  24267273.1914   24267272.1564
     -2496.5624
  -7825055.28249  -6085947.28147  22439079.6684   22439077.0984
       753.2814
   8716780.44449   6789088.42648  22043152.5984   22043149.0784
     -3034.5004
  -1019745.08547   -791392.33143  24643824.1844   24643822.7854
      -227.9224
  -3420451.37247  -2654980.71144  24450219.3244   24450217.3204
      1951.0944
  21966963.16648  17093657.14044  24930489.2154   24930486.4414
     -4644.7504
   -674650.15049   -522862.15948  21925285.3944   21925282.7234
      -472.7344
 04  9  2 22 38  0.0040000  0  8G19G 3G 8G13G10G28G23G27
  -4348546.85248  -3380794.53046  23619380.0354   23619375.6954
         1.0004
   4042917.46348   3154696.86144  24274412.6444   24274411.4104
     -2505.2344
  -7836329.43849  -6094732.32747  22436934.1844   22436931.7274
       750.1564
   8762354.80449   6824600.90148  22051825.0984   22051821.9224
     -3041.8914
  -1016256.47647   -788673.93343  24644488.0354   24644486.3914
      -236.9374
  -3449690.52547  -2677764.40044  24444655.3404   24444652.9224
      1947.6724
  22036655.77648  17147963.01743  24943750.3554   24943748.0084
     -4647.3754
   -667535.87149   -517318.55548  21926639.3714   21926636.2664
      -475.6564
 04  9  2 22 38 15.0040000  0  8G19G 3G 8G13G10G28G23G27
  -4348499.97148  -3380757.97046  23619389.9104   23619384.9414
        -7.2504
   4080561.07048   3184029.57344  24281575.4024   24281574.0864
     -2513.8594
  -7847559.74749  -6103483.21448  22434797.1444   22434794.4184
       747.1724
   8808037.08749   6860197.48048  22060518.3554   22060514.5234
     -3049.1414
  -1012632.81047   -785850.28643  24645177.4884   24645176.5164
      -246.1564
  -3478881.15547  -2700510.30944  24439100.7234   24439098.6644
      1944.5004
  22106384.51848  17202297.06043  24957019.9414   24957017.1874
     -4649.8444
   -660380.28049   -511742.75648  21928000.5824   21927997.7664
      -478.4374
 04  9  2 22 38 30.0040000  0  8G19G 3G 8G13G10G28G23G27
  -4348325.91949  -3380622.32846  23619422.5824   23619418.1484
       -15.8284
   4118337.59048   3213465.82244  24288764.1524   24288762.3124
     -2522.8284
  -7858741.44049  -6112196.21347  22432669.5434   22432667.0984
       743.8754
   8853832.07249   6895881.88548  22069232.4804   22069229.4344
     -3056.6874
  -1008869.21846   -782917.61843  24645894.6844   24645893.0744
      -255.4374
  -3508018.30847  -2723214.53444  24433555.7074   24433553.5664
      1940.6884
  22176154.02447  17256662.85443  24970296.4574   24970292.9734
     -4652.5944
   -653178.55649   -506131.01048  21929371.4104   21929368.0124
      -481.6564
 04  9  2 22 38 45.0040000  0  8G19G 3G 8G13G10G28G23G27
  -4348026.69948  -3380389.15246  23619478.6914   23619475.9224
       -23.9694
   4156244.60248   3243003.73944  24295977.7854   24295976.1054
     -2531.4224
  -7869876.82649  -6120873.11748  22430550.3164   22430548.1094
       740.8914
   8899737.24249   6931652.13848  22077968.5664   22077964.9344
     -3063.8754
  -1004967.92547   -779877.63343  24646635.8714   24646634.7894
      -264.6564
  -3537104.15347  -2745878.78044  24428020.9884   24428019.4804
      1937.3754
  22245961.85947  17311058.52443  24983579.6914   24983577.5314
     -4655.1414
   -645932.78549   -500484.96248  21930749.9574   21930747.5824
      -484.4694
 04  9  2 22 39  0.0040000  0  8G19G 3G 8G13G10G28G23G27
  -4347604.92548  -3380060.49246  23619559.1374   23619555.1254
       -32.5474
   4194279.11248   3272641.00444  24303216.0664   24303214.3244
     -2540.2344
  -7880968.66649  -6129516.10247  22428439.9734   22428437.3324
       737.7034
   8945749.73249   6967506.01848  22086724.2464   22086721.0474
     -3071.4224
  -1000931.56047   -776732.42643  24647404.3634   24647403.3714
      -273.9064
  -3566141.23247  -2768505.01244  24422495.6844   24422493.0784
      1933.9064
  22315804.90547  17365481.59243  24996870.4574   24996868.5664
     -4657.6254
   -638645.90749   -494806.86848  21932136.8714   21932133.7544
      -487.4374
 04  9  2 22 39 15.0040000  0  8G19G 3G 8G13G10G28G23G27
  -4347053.82048  -3379631.03546  23619664.3554   23619659.0664
       -40.8284
   4232447.53548   3302382.65344  24310478.5194   24310477.2664
     -2548.9224
  -7892010.15349  -6138119.83748  22426338.3554   22426336.2074
       734.5784
   8991876.02449   7003448.58048  22095501.5984   22095497.9104
     -3078.7194
   -996753.67947   -773476.90843  24648198.9414   24648198.0904
      -283.0474
  -3595122.88847  -2791088.06444  24416980.1444   24416978.1484
      1930.3594
  22385689.61547  17419937.15044  25010169.1844   25010167.7194
     -4660.1414
   -631311.09849   -489091.42548  21933532.4654   21933529.9184
      -490.3914
 04  9  2 22 39 30.0040000  0  8G19G 3G 8G13G10G28G23G27
  -4346373.71548  -3379101.05846  23619793.1214   23619789.6804
       -49.3444
   4270749.23148   3332228.13944  24317767.1054   24317765.8634
     -2557.4694
  -7903001.70149  -6146684.66848  22424246.8164   22424244.6094
       731.5314
   9038115.44449   7039479.28248  22104300.4184   22104297.0864
     -3086.0164
   -992434.74647   -770111.50743  24649021.1214   24649019.8244
      -292.2194
  -3624049.48347  -2813628.19844  24411475.8324   24411473.8404
      1927.0164
  22455615.12147  17474424.48043  25023475.6134   25023473.1024
     -4662.6564
   -623928.88549   -483339.03348  21934937.1994   21934934.3634
      -493.3754
 04  9  2 22 39 45.0040000  0  8G19G 3G 8G13G10G28G23G27
  -4345566.41548  -3378471.97746  23619947.1374   23619943.3444
       -58.2664
   4309181.95548   3362175.68744  24325080.8404   24325079.2424
     -2566.7344
  -7913945.58549  -6155212.36248  22422164.3244   22422161.6444
       727.8134
   9084465.84449   7075596.47548  22113120.8634   22113117.6054
     -3093.9064
   -987976.64047   -766637.66143  24649869.7854   24649868.2854
      -302.0314
  -3652922.91847  -2836126.94944  24405981.9264   24405978.8124
      1922.9224
  22525579.16148  17528941.86443  25036789.3094   25036787.3874
     -4665.7194
   -616501.35549   -477551.35948  21936350.8484   21936347.9374
      -496.8754
 04  9  2 22 40  0.0040000  0  8G19G 3G 8G13G10G28G23G27
  -4344630.27948  -3377742.51646  23620125.2304   23620121.0194
       -66.8914
   4347747.04348   3392226.39444  24332419.3944   24332418.1024
     -2575.5474
  -7924840.12149  -6163701.60648  22420091.3244   22420088.5124
       724.5164
   9130928.58349   7111801.21348  22121962.6054   22121958.7974
     -3101.4374
   -983377.86147   -763054.20143  24650744.9964   24650743.0394
      -311.4694
  -3681741.47748  -2858582.90944  24400497.3554   24400494.7934
      1919.2664
  22595583.10547  17583490.31843  25050110.7384   25050108.9144
     -4668.3914
   -609026.74949   -471726.98648  21937773.0744   21937770.1844
      -500.0784
 04  9  2 22 40 15.0040000  0  8G19G 3G 8G13G10G28G23G27
  -4343569.70648  -3376916.08446  23620327.4264   23620322.7584
       -75.3284
   4386439.76148   3422376.58944  24339782.4884   24339780.8054
     -2584.1254
  -7935689.73749  -6172155.83048  22418026.7074   22418023.8914
       721.3594
   9177498.97749   7148089.82148  22130824.6134   22130821.4774
     -3108.7504
   -978642.89647   -759364.61243  24651645.5354   24651644.0164
      -320.5784
  -3710509.48548  -2880999.50244  24395022.8404   24395019.7504
      1915.7974
  22665622.19348  17638066.15343  25063439.4804   25063436.3124
     -4670.8444
   -601509.70349   -465869.54048  21939203.4264   21939200.7344
      -502.9694
 04  9  2 22 40 30.0040000  0  8G19G 3G 8G13G10G28G23G27
  -4342377.41548  -3375987.00546  23620553.4804   23620549.2774
       -83.7504
   4425266.90048   3452631.47344  24347170.4804   24347168.7034
     -2592.8754
  -7946487.34249  -6180569.53348  22415972.0194   22415969.2854
       718.2034
   9224183.85549   7184467.64048  22139708.4884   22139704.8794
     -3116.0624
   -973764.68147   -755563.38543  24652574.5044   24652572.3124
      -329.8914
  -3739219.80947  -2903371.11044  24389559.3404   24389556.7584
      1912.1724
  22735703.01248  17692674.53544  25076775.6134   25076772.5474
     -4673.3444
   -593943.12149   -459973.48948  21940643.5514   21940640.5274
      -506.0164
 04  9  2 22 40 45.0040000  0  8G19G 3G 8G13G10G28G23G27
  -4341058.88648  -3374959.55746  23620804.4734   23620800.6174
       -91.9224
   4464222.70348   3482986.66043  24354584.2074   24354581.4694
     -2601.2194
  -7957238.44749  -6188947.00448  22413925.7154   22413923.3094
       715.2974
   9270977.48649   7220930.20048  22148612.9264   22148609.3364
     -3123.0624
   -968748.69847   -751654.82943  24653529.0594   24653526.5704
      -338.8284
  -3767878.02347  -2925702.12544  24384105.4884   24384103.2074
      1908.9384
  22805819.80748  17747310.92043  25090118.8554   25090115.3244
     -4675.5944
   -586332.57049   -454043.19048  21942091.7234   21942088.6254
      -508.7814
 04  9  2 22 41  0.0040000  0  8G19G 3G 8G13G10G28G23G27
  -4339613.20548  -3373833.03746  23621080.5044   23621075.2814
      -100.6254
   4503307.62748   3513442.42544  24362021.9024   24362019.9964
     -2609.8914
  -7967942.40349  -6197287.74248  22411889.0124   22411886.4104
       712.1094
   9317880.40949   7257477.91948  22157538.2694   22157534.9374
     -3130.3914
   -963594.18347   -747638.33743  24654508.9574   24654507.7304
      -348.1724
  -3796483.22547  -2947991.84244  24378662.2074   24378660.0554
      1905.2034
  22875973.03448  17801975.73543  25103468.4104   25103465.6134
     -4678.0624
   -578677.29049   -448078.02748  21943548.2624   21943545.5594
      -511.7974
 04  9  2 22 41 15.0040000  0  8G19G 3G 8G13G10G28G23G27
  -4338040.66548  -3372607.68746  23621379.4414   23621375.0664
      -108.9064
   4542521.08448   3543998.36644  24369483.9344   24369481.7304
     -2618.3754
  -7978599.47549  -6205591.94048  22409861.0594   22409858.7344
       709.0634
   9364892.07449   7294110.38048  22166484.0744   22166480.9804
     -3137.6414
   -958301.56047   -743514.18943  24655516.5744   24655515.4574
      -357.3124
  -3825035.80747  -2970240.55144  24373229.2304   24373226.6444
      1901.8284
  22946162.06747  17856668.43143  25116825.4024   25116821.6174
     -4680.3594
   -570977.61649   -442078.28148  21945013.2934   21945010.9574
      -514.6724
 04  9  2 22 41 30.0040000  0  8G19G 3G 8G13G10G28G23G27
  -4336340.68248  -3371283.00546  23621702.1844   23621697.8284
      -117.4224
   4581863.25148   3574654.61443  24376969.9264   24376968.2464
     -2626.8914
  -7989209.25849  -6213859.29048  22407841.7854   22407839.3794
       705.8754
   9412012.77149   7330827.80048  22175451.0044   22175447.5904
     -3144.8284
   -952870.41947   -739282.15744  24656550.1134   24656549.1054
      -366.5004
  -3853535.25147  -2992447.84744  24367805.5194   24367803.2854
      1898.4384
  23016386.91347  17911389.03043  25130188.4184   25130185.6914
     -4682.6874
   -563233.22949   -436043.68248  21946487.0904   21946484.0194
      -517.5944
 04  9  2 22 41 45.0040000  0  8G19G 3G 8G13G10G28G23G27
  -4334513.62648  -3369859.30747  23622050.5594   23622046.1054
      -126.2194
   4621333.28848   3605410.47844  24384480.8164   24384479.6334
     -2635.7504
  -7999772.23949  -6222090.16648  22405831.8794   22405829.3984
       702.5004
   9459241.75349   7367629.59148  22184438.2544   22184435.0004
     -3152.3444
   -947301.34547   -734942.60243  24657610.4264   24657608.6094
      -376.0784
  -3881981.91147  -3014614.02444  24362392.0124   24362390.1844
      1894.4694
  23086646.76648  17966136.87743  25143557.9104   25143556.4224
     -4685.3914
   -555444.61649   -429974.63148  21947969.5434   21947966.5624
      -520.8444
 04  9  2 22 42  0.0040000  0  8G19G 3G 8G13G10G28G23G27
  -4332559.35448  -3368336.48247  23622423.1764   23622418.3324
      -134.5944
   4660931.07548   3636265.85944  24392015.8944   24392014.6564
     -2644.1254
  -8010288.28849  -6230284.48548  22403830.7154   22403828.5864
       699.4534
   9506578.76949   7404515.58248  22193446.3794   22193443.0194
     -3159.4534
   -941594.24948   -730495.49343  24658695.7154   24658694.3204
      -385.1414
  -3910375.68148  -3036738.98544  24356989.2464   24356987.0784
      1891.0634
  23156941.46647  18020911.91643  25156935.6294   25156932.4374
     -4687.4844
   -547611.66849   -423871.03047  21949459.5594   21949456.7464
      -523.7504
 04  9  2 22 42 15.0040000  0  8G19G 3G 8G13G10G28G23G27
  -4330475.91648  -3366713.01346  23622818.5514   23622815.6564
      -143.4844
   4700658.13948   3667222.01844  24399576.4104   24399574.9844
     -2653.0944
  -8020755.41949  -6238440.67348  22401838.8794   22401836.3164
       695.8594
   9554025.52249   7441487.05948  22202474.9804   22202471.8284
     -3167.1414
   -935747.27047   -725939.42143  24659808.6604   24659807.3524
      -394.7664
  -3938714.62747  -3058821.22344  24351595.7074   24351594.3794
      1887.0164
  23227272.51348  18075715.31443  25170318.5354   25170316.3164
     -4690.2344
   -539732.55549   -417731.45047  21950959.3404   21950956.2344
      -527.1094
 04  9  2 22 42 30.0040000  0  8G19G 3G 8G13G10G28G23G27
  -4328256.50748  -3364983.58246  23623240.8634   23623237.2774
      -152.3284
   4740520.96648   3698283.98144  24407161.7074   24407160.1644
     -2661.8444
  -8031167.23849  -6246553.76948  22399857.6914   22399855.1254
       692.4224
   9601588.54149   7478549.15048  22211526.2624   22211522.7234
     -3174.5784
   -929753.81148   -721269.19443  24660949.4884   24660947.4374
      -404.3444
  -3966991.87247  -3080855.39444  24346215.5664   24346213.7504
      1883.1724
  23297646.34147  18130551.98443  25183709.9264   25183707.6254
     -4692.8444
   -531800.56549   -411550.67548  21952468.3874   21952465.6174
      -530.4064
 04  9  2 22 42 45.0040000  0  8G19G 3G 8G13G10G28G23G27
  -4325910.32548  -3363155.37546  23623687.2464   23623683.5594
      -160.5164
   4780509.97848   3729444.26843  24414770.6374   24414770.4024
     -2669.9844
  -8041533.07549  -6254631.03448  22397884.9804   22397882.8204
       689.6094
   9649258.20249   7515694.33248  22220597.7464   22220594.3524
     -3181.3444
   -923623.20748   -716492.09243  24662115.6844   24662114.0004
      -413.1874
  -3995216.86547  -3102848.83344  24340844.1914   24340842.4884
      1880.0784
  23368053.37647  18185414.53743  25197108.3014   25197105.5744
     -4694.7814
   -523825.17049   -405336.07948  21953986.1994   21953983.4064
      -533.0164
 04  9  2 22 43  0.0040000  0  8G19G 3G 8G13G10G28G23G27
  -4323437.31348  -3361228.33246  23624158.5194   23624153.6174
      -169.1414
   4820624.83648   3760702.57344  24422405.2234   24422404.1444
     -2678.5624
  -8051852.86549  -6262672.41648  22395921.4264   22395918.8874
       686.4694
   9697034.29749   7552922.45548  22229688.9884   22229685.2854
     -3188.6724
   -917355.63148   -711608.25443  24663308.5904   24663306.9144
      -422.4374
  -4023389.47747  -3124801.46544  24335483.2544   24335481.3714
      1876.3594
  23438493.11048  18240302.56943  25210513.1844   25210509.5864
     -4697.0944
   -515806.28549   -399087.58748  21955512.2154   21955509.2974
      -536.0784
 04  9  2 22 43 15.0040000  0  8G19G 3G 8G13G10G28G23G27
  -4320835.43748  -3359200.88847  23624653.5984   23624648.5664
      -177.6254
   4860867.19348   3792060.23244  24430063.1914   24430062.4654
     -2686.8754
  -8062124.85949  -6270676.55448  22393966.6844   22393964.3834
       683.3594
   9744918.45649   7590234.77848  22238800.9574   22238797.1954
     -3195.6874
   -910949.13048   -706616.18343  24664527.7854   24664525.9344
      -431.6094
  -4051507.77047  -3146711.78044  24330132.3634   24330130.9104
      1872.9224
  23508967.16547  18295217.35743  25223922.7544   25223919.9374
     -4699.3754
   -507742.05549   -392803.77148  21957046.9344   21957043.9374
      -538.9534
 04  9  2 22 43 30.0040000  0  8G19G 3G 8G13G10G28G23G27
  -4318104.66048  -3357072.98046  23625172.8554   23625168.4804
      -186.7034
   4901236.87348   3823517.12344  24437745.5904   24437743.7934
     -2695.8444
  -8072349.03049  -6278643.42148  22392021.1994   22392018.6914
       679.7504
   9792910.53849   7627631.18248  22247933.5124   22247930.4884
     -3203.3754
   -904403.66348   -701515.79643  24665772.7624   24665771.6054
      -441.3124
  -4079571.60548  -3168579.65545  24324792.5044   24324790.1174
      1868.8284
  23579475.21247  18350158.63043  25237340.6294   25237337.9104
     -4701.9844
   -499632.53649   -386484.65148  21958589.8324   21958587.3714
      -542.4064
 04  9  2 22 43 45.0040000  0  8G19G 3G 8G13G10G28G23G27
  -4315242.30748  -3354842.55546  23625717.7234   23625713.1564
      -195.1254
   4941735.97848   3855074.87344  24445451.5354   24445450.0194
     -2704.1874
  -8082522.73849  -6286570.97748  22390085.2074   22390082.4374
       676.5784
   9841012.79249   7665113.45848  22257087.0354   22257083.6174
     -3210.3754
   -897716.86048   -696305.30243  24667044.7304   24667043.8444
      -450.4374
  -4107578.45548  -3190403.12644  24319462.6914   24319460.5164
      1865.2504
  23650019.51147  18405128.15843  25250764.3094   25250762.2074
     -4704.2034
   -491475.18649   -380128.27648  21960142.1524   21960139.3594
      -545.3444
 04  9  2 22 44  0.0040000  0  8G19G 3G 8G13G10G28G23G27
  -4312245.70948  -3352507.51746  23626288.2464   23626282.7504
      -203.9064
   4982366.86448   3886735.29943  24453182.6374   24453182.1294
     -2712.8754
  -8092643.16849  -6294457.01648  22388159.3484   22388156.8204
       673.2814
   9889227.64949   7702683.46048  22266261.8164   22266258.7154
     -3217.7664
   -890886.11048   -690982.63243  24668344.6374   24668344.0984
      -459.9064
  -4135525.51548  -3212179.99945  24314143.9804   24314141.9614
      1861.5004
  23720602.38646  18460127.73043  25264196.1764   25264193.8244
     -4706.4534
   -483267.41849   -373732.60648  21961704.5044   21961701.1024
      -548.5784
 04  9  2 22 44 15.0040000  0  8G19G 3G 8G13G10G28G23G27
  -4309125.70248  -3350076.32346  23626881.3634   23626876.6644
      -212.8124
   5023118.43948   3918489.78343  24460938.4414   24460936.9574
     -2721.3754
  -8102721.55049  -6302310.28248  22386241.3554   22386238.5164
       669.8134
   9937544.00449   7740332.56748  22275456.5194   22275453.4694
     -3225.0314
   -883922.30348   -685556.27843  24669670.8634   24669668.8324
      -469.3444
  -4163423.72448  -3233918.81344  24308835.5984   24308833.2384
      1857.5474
  23791212.56147  18515148.57043  25277633.1214   25277630.5704
     -4708.8444
   -475020.17549   -367306.17448  21963273.7234   21963270.7074
      -551.7814
 04  9  2 22 44 30.0040000  0  8G19G 3G 8G13G10G28G23G27
  -4305874.25048  -3347542.71046  23627500.1764   23627495.1174
      -221.3284
   5063998.30648   3950344.21643  24468717.9964   24468716.1764
     -2729.8444
  -8112749.82549  -6310124.50248  22384332.9344   22384330.4494
       666.7344
   9985969.55149   7778066.74248  22284671.4104   22284667.6724
     -3232.2344
   -876817.67748   -680020.20944  24671022.2464   24671021.1484
      -478.4694
  -4191265.05048  -3255613.31044  24303537.4804   24303535.1914
      1853.9844
  23861857.64447  18570196.60843  25291076.6374   25291074.1724
     -4710.9534
   -466725.44849   -360842.73448  21964852.1524   21964849.0434
      -554.7194
 04  9  2 22 44 45.0040000  0  8G19G 3G 8G13G10G28G23G27
  -4302489.40049  -3344905.15346  23628144.5514   23628139.9694
      -230.0784
   5105007.97648   3982299.80444  24476522.3094   24476519.8244
     -2738.2814
  -8122726.08849  -6317898.20548  22382434.3874   22382431.8124
       663.4384
  10034505.83949   7815887.22348  22293907.5594   22293904.1994
     -3239.4064
   -869570.35948   -674372.92443  24672402.1524   24672400.2814
      -487.8594
  -4219047.62848  -3277262.03044  24298250.5744   24298248.4304
      1850.3134
  23932539.12547  18625273.02743  25304526.3014   25304524.7624
     -4713.3284
   -458381.44949   -354340.92048  21966440.1374   21966436.8984
      -557.9224
 04  9  2 22 45  0.0040000  0  8G19G 3G 8G13G10G28G23G27
  -4298975.22249  -3342166.81746  23628813.2854   23628808.9414
      -238.7194
   5146143.07948   4014353.08943  24484349.6994   24484347.4144
     -2746.6874
  -8132654.65649  -6325634.74748  22380544.9184   22380542.3914
       660.2504
  10083148.47149   7853790.55748  22303164.1444   22303160.5234
     -3246.4844
   -862184.66348   -668617.85043  24673807.1844   24673805.9804
      -497.1254
  -4246775.56148  -3298868.15845  24292974.0354   24292971.4064
      1846.5314
  24003252.48846  18680374.25643  25317982.3094   25317980.8484
     -4715.4374
   -449992.43549   -347804.02348  21968036.0904   21968033.6254
      -560.8914
 04  9  2 22 45 15.0040000  0  8G19G 3G 8G13G10G28G23G27
  -4295331.23348  -3339327.32246  23629506.4654   23629502.2464
      -247.6564
   5187403.76648   4046504.25643  24492200.9104   24492199.0044
     -2755.1874
  -8142534.96549  -6333333.67048  22378665.1374   22378662.3524
       656.6884
  10131897.77649   7891777.01848  22312440.8874   22312437.1604
     -3253.8754
   -854660.08948   -662754.53443  24675239.2624   24675237.7194
      -506.6094
  -4274448.21448  -3320431.21544  24287708.1764   24287705.5124
      1842.6254
  24073998.04847  18735500.57143  25331445.0514   25331443.3874
     -4717.8914
   -441557.79949   -341231.56748  21969641.1444   21969638.4104
      -564.2194
 04  9  2 22 45 30.0040000  0  8G19G 3G 8G13G10G28G23G27
  -4291556.31248  -3336385.81446  23630224.8324   23630220.8054
      -255.6564
   5228790.74548   4078753.85843  24500076.6994   24500074.4494
     -2762.8754
  -8152366.32149  -6340994.44848  22376794.3244   22376791.5354
       654.2664
  10180754.35349   7929847.07048  22321737.7074   22321734.1414
     -3260.2034
   -846995.77348   -656782.31743  24676697.0044   24676696.0274
      -515.1564
  -4302064.73348  -3341950.52544  24282452.3554   24282450.2274
      1839.7034
  24144776.26347  18790652.36443  25344914.1764   25344912.0354
     -4719.1564
   -433076.79949   -334622.99248  21971254.9414   21971251.9654
      -566.4694
 04  9  2 22 45 45.0040000  0  8G19G 3G 8G13G10G28G23G27
  -4287648.85049  -3333341.00946  23630968.2464   23630963.5474
      -265.2664
   5270305.24848   4111102.83144  24507977.6294   24507975.0164
     -2772.1874
  -8162147.03049  -6348615.77048  22374932.9184   22374930.2934
       650.0314
  10229719.51949   7968001.72948  22331055.6524   22331052.3284
     -3268.2974
   -839190.17348   -650700.02243  24678182.8634   24678181.1214
      -525.4534
  -4329623.40848  -3363424.77744  24277208.1604   24277206.0664
      1834.9844
  24215588.52247  18845830.65943  25358389.2694   25358387.5474
     -4722.2344
   -424547.72049   -327976.94248  21972878.0194   21972875.3244
      -570.5004
 04  9  2 22 46  0.0040000  0  8G19G 3G 8G13G10G28G23G27
  -4283605.70948  -3330190.50346  23631737.8874   23631733.0904
      -274.0164
   5311950.01848   4143553.29944  24515901.2074   24515900.6174
     -2780.5784
  -8171873.84349  -6356195.08848  22373082.1764   22373079.5944
       646.6564
  10278796.27649   8006243.35548  22340394.5354   22340391.6564
     -3275.4694
   -831240.17348   -644505.19843  24679695.8714   24679693.4884
      -534.7194
  -4357121.09848  -3384851.49344  24271976.4184   24271973.3634
      1831.1564
  24286437.54848  18901037.62843  25371872.6684   25371869.4924
     -4724.4534
   -415967.58749   -321291.12248  21974510.9654   21974507.9694
      -573.7034
 04  9  2 22 46 15.0040000  0  7G19G 3G 8G13G10G28G27
  -4279429.78949  -3326936.53046  23632532.3324   23632528.5624
      -282.8594
   5353721.80048   4176102.73343  24523850.5124   24523848.8364
     -2789.0004
  -8181549.87449  -6363734.84448  22371240.8094   22371237.7854
       643.4384
  10327981.28549   8044569.33048  22349754.1054   22349750.5704
     -3282.6094
   -823148.89747   -638200.31543  24681235.2464   24681233.6604
      -544.0624
  -4384560.83948  -3406233.07945  24266754.0664   24266751.5984
      1827.3754
   -407339.52149   -314567.95748  21976152.4654   21976150.0984
      -576.7344
 04  9  2 22 46 30.0040000  0  7G19G 3G 8G13G10G28G27
  -4275123.43848  -3323580.90646  23633351.8164   23633348.1444
      -291.6414
   5395617.96548   4208749.07644  24531822.7624   24531821.7934
     -2797.4694
  -8191177.58449  -6371236.95348  22369408.6214   22369406.2114
       639.9694
  10377272.01149   8082977.66947  22359133.9884   22359130.4104
     -3289.7974
   -814918.87446   -631787.30343  24682801.5904   24682799.2274
      -553.5474
  -4411944.86748  -3427571.23345  24261542.9264   24261540.5904
      1823.4844
   -398665.72249   -307809.14348  21977803.3554   21977800.5124
      -580.0004
 04  9  2 22 46 45.0040000  0  7G19G 3G 8G13G10G28G27
  -4270685.18148  -3320122.50047  23634196.3164   23634192.2894
      -300.4064
   5437639.75848   4241493.28443  24539819.7074   24539818.3124
     -2805.7504
  -8200755.35349  -6378700.13848  22367586.3094   22367583.4494
       636.7664
  10426669.52449   8121469.22948  22368533.8164   22368530.7074
     -3296.8444
   -806548.65546   -625265.05243  24684393.8094   24684392.4144
      -562.8754
  -4439271.69648  -3448864.82345  24256342.9734   24256340.0984
      1819.7344
   -389944.86749   -301013.66848  21979462.8324   21979460.2424
      -583.1094
 04  9  2 22 47  0.0040000  0  7G19G 3G 8G13G10G28G27
  -4266113.89448  -3316560.45046  23635066.3324   23635061.4654
      -309.0164
   5479787.73748   4274335.87243  24547839.8324   24547838.8524
     -2813.8754
  -8210282.51749  -6386123.88248  22365773.0514   22365770.4144
       633.6564
  10476174.61449   8160044.61148  22377954.3874   22377951.0354
     -3303.7814
   -798037.32746   -618632.83643  24686013.7694   24686012.2974
      -571.9374
  -4466540.27448  -3470113.01245  24251154.1604   24251151.3324
      1816.1564
   -381175.99849   -294180.77548  21981131.3554   21981128.9024
      -586.0314
 04  9  2 22 47 15.0040000  0  7G19G 3G 8G13G10G28G27
  -4261411.21848  -3312896.00746  23635961.0124   23635956.1764
      -317.9534
   5522059.84248   4307275.19343  24555884.0194   24555882.8124
     -2822.2814
  -8219760.51249  -6393509.32548  22363969.5044   22363967.2544
       630.2344
  10525785.32649   8198702.30248  22387395.1524   22387391.7774
     -3310.9694
   -789386.62546   -611892.02643  24687660.2694   24687658.8714
      -581.4374
  -4493752.24748  -3491317.10245  24245975.6994   24245972.8524
      1812.2814
   -372360.73449   -287311.72948  21982809.0514   21982806.2034
      -589.2504
 04  9  2 22 47 30.0040000  0  7G19G 3G 8G13G10G28G27
  -4256573.10548  -3309126.02646  23636881.5744   23636878.0044
      -326.7974
   5564459.78348   4340314.10843  24563952.0824   24563951.1804
     -2830.6094
  -8229185.45149  -6400853.42048  22362175.9344   22362173.3554
       626.8754
  10575505.40849   8237445.21348  22396856.4654   22396852.9924
     -3317.9534
   -780592.78246   -605039.68143  24689333.5274   24689332.0124
      -590.6564
  -4520903.70448  -3512474.04445  24240808.6524   24240805.9374
      1808.4384
   -363495.28149   -280403.56848  21984495.8874   21984492.8634
      -592.3124
 04  9  2 22 47 45.0040000  0  7G19G 3G 8G13G10G28G27
  -4251603.24748  -3305253.39146  23637827.6054   23637823.5704
      -335.2974
   5606983.50948   4373449.46643  24572044.6914   24572043.5474
     -2838.5944
  -8238561.35649  -6408159.31548  22360391.6444   22360389.4064
       623.8594
  10625330.86949   8276270.22747  22406337.7154   22406334.3984
     -3324.7974
   -771659.57646   -598078.71643  24691032.4734   24691031.8874
      -599.9844
  -4547998.34548  -3533586.70245  24235652.6524   24235649.8944
      1804.7974
   -354583.39649   -273459.24248  21986191.7774   21986188.8524
      -595.2504
 04  9  2 22 48  0.0040000  0  7G19G 3G 8G13G10G28G27
  -4246503.62948  -3301279.65246  23638798.1054   23638792.6134
      -344.1414
   5649628.67748   4406679.45443  24580159.8714   24580157.8524
     -2846.9224
  -8247890.06349  -6415428.42648  22358616.8094   22358614.3204
       620.5164
  10675259.35949   8315175.54447  22415838.9344   22415835.2074
     -3331.8284
   -762589.29146   -591010.93243  24692759.0594   24692757.0124
      -608.9064
  -4575038.08848  -3554656.59745  24230507.2774   24230505.1764
      1800.9694
   -345627.25649   -266480.42848  21987895.9804   21987893.0354
      -598.3914
 04  9  2 22 48 15.0040000  0  7G19G 3G 8G13G10G28G27
  -4241270.15148  -3297201.62046  23639793.4884   23639788.3714
      -353.4694
   5692399.05948   4440007.00843  24588298.5904   24588296.9734
     -2855.6414
  -8257167.42649  -6422657.52848  22356851.1294   22356848.9024
       616.6414
  10725294.63749   8354164.07147  22425359.9574   22425356.7114
     -3339.3444
   -753377.65646   -583833.06044  24694512.4574   24694510.4104
      -618.9534
  -4602018.78948  -3575680.46645  24225373.0514   24225370.0434
      1796.6414
   -336622.48749   -259463.72448  21989609.7384   21989606.6254
      -602.0944
 04  9  2 22 48 30.0040000  0  7G19G 3G 8G13G10G28G27
  -4235898.54448  -3293015.93346  23640816.2074   23640811.5664
      -362.7344
   5735298.62048   4473435.28443  24596461.8944   24596460.8014
     -2864.2974
  -8266389.11049  -6429843.25548  22355096.3014   22355093.5194
       612.8914
  10775440.90949   8393239.06347  22434903.0194   22434899.5234
     -3346.8444
   -744020.64146   -576541.87444  24696293.8014   24696291.3484
      -628.5944
  -4628936.20648  -3596655.03745  24220250.2854   24220248.2774
      1792.3134
   -327565.05649   -252405.97348  21991333.0044   21991330.4344
      -605.6564
 04  9  2 22 48 45.0040000  0  7G19G 3G 8G13G10G28G27
  -4230393.12348  -3288725.97346  23641863.7934   23641859.7774
      -371.1564
   5778322.64648   4506960.44843  24604649.3244   24604647.6094
     -2872.0474
  -8275559.80849  -6436989.23948  22353350.9734   22353348.3364
       610.0944
  10825693.22349   8432396.69847  22444465.9884   22444462.2544
     -3353.3594
   -734522.77347   -569140.91643  24698100.2384   24698098.6484
      -637.4844
  -4655794.75448  -3617583.72945  24215139.4804   24215136.8914
      1788.9384
   -318459.37849   -245310.63248  21993066.2774   21993062.7974
      -608.3284
 04  9  2 22 49  0.0040000  0  7G19G 3G 8G13G10G28G27
  -4224758.48148  -3284335.34346  23642935.8944   23642931.2034
      -379.8594
   5821466.11647   4540578.72543  24612858.8404   24612857.8244
     -2880.0624
  -8284684.25249  -6444099.18748  22351614.8874   22351612.0314
       606.9064
  10876046.96949   8471633.37447  22454047.7544   22454044.7894
     -3360.1414
   -724888.62447   -561633.79443  24699932.8244   24699931.8324
      -646.6564
  -4682598.88648  -3638470.02345  24210039.1374   24210036.3054
      1785.2194
   -309310.02249   -238181.25648  21994807.1604   21994804.0004
      -611.2504
 04  9  2 22 49 15.0040000  0  7G19G 3G 8G13G10G28G27
  -4218990.51348  -3279840.81046  23644033.3244   23644028.6914
      -388.7034
   5864732.78847   4574292.99143  24621091.5514   24621091.5354
     -2888.4224
  -8293758.29249  -6451169.86348  22349888.4734   22349885.8794
       603.5474
  10926505.83149   8510951.96248  22463649.5514   22463646.3284
     -3367.1874
   -715114.48248   -554017.57643  24701794.1994   24701792.2194
      -656.0784
  -4709344.71248  -3659310.87145  24204949.5044   24204947.0434
      1781.3754
   -300113.25149   -231014.93748  21996557.1444   21996554.0394
      -614.5004
 04  9  2 22 49 30.0040000  0  7G19G 3G 8G13G10G28G27
  -4213089.97748  -3275242.97746  23645156.9654   23645152.2814
      -397.7664
   5908121.46348   4608102.36743  24629349.4184   24629348.0434
     -2896.6094
  -8302782.54649  -6458201.73448  22348170.8874   22348167.8594
       600.0004
  10977068.63449   8550351.53147  22473271.3874   22473268.3244
     -3374.2504
   -705201.15848   -546292.90043  24703680.2234   24703678.0474
      -665.4694
  -4736032.93448  -3680106.83545  24199870.4884   24199868.1134
      1777.3134
   -290869.72549   -223812.18348  21998316.2854   21998313.0394
      -617.7504
 04  9  2 22 49 45.0040000  0  7G19G 3G 8G13G10G28G27
  -4207053.53748  -3270539.24846  23646305.0744   23646300.6174
      -406.9224
   5951635.11148   4642009.09043  24637629.8484   24637628.2814
     -2905.0164
  -8311753.89449  -6465192.39048  22346464.0354   22346460.7504
       596.2664
  11027738.48649   8589834.52347  22482913.2694   22482910.1604
     -3381.5784
   -695145.41148   -538457.23443  24705592.9414   24705591.4534
      -674.9694
  -4762660.04748  -3700855.20345  24194803.5594   24194801.2034
      1773.1414
   -281576.18749   -216570.47648  22000084.5594   22000081.3404
      -621.2814
 04  9  2 22 50  0.0040000  0  7G19G 3G 8G13G10G28G27
  -4200882.58648  -3265730.70046  23647479.2154   23647474.1024
      -416.0474
   5995272.13648   4676011.96643  24645933.2544   24645931.8754
     -2913.4694
  -8320673.78749  -6472142.94848  22344765.9964   22344763.5004
       592.7664
  11078513.73249   8629399.64448  22492576.0984   22492572.8594
     -3388.7344
   -684948.66248   -530511.72044  24707533.3324   24707532.3364
      -684.6414
  -4789227.47848  -3721557.05444  24189747.3634   24189745.3404
      1769.0314
   -272233.89049   -209290.75048  22001862.3404   22001859.4734
      -624.6724
 04  9  2 22 50 15.0040000  0  7G19G 3G 8G13G10G28G27
  -4194580.89948  -3260820.28446  23648677.8944   23648674.2974
      -424.6564
   6039028.25248   4710107.61243  24654260.2234   24654258.6804
     -2921.1874
  -8329546.08449  -6479056.42248  22343077.7694   22343075.3484
       589.7974
  11129390.14149   8669043.57947  22502257.5744   22502253.9574
     -3395.3284
   -674615.01248   -522459.51244  24709500.5434   24709498.4184
      -693.5944
  -4815739.19448  -3742215.48644  24184702.6524   24184700.2974
      1765.3284
   -262846.94049   -201976.24348  22003648.7154   22003645.6954
      -627.5004
 04  9  2 22 50 30.0040000  0  7G19G 3G 8G13G10G28G27
  -4188145.48448  -3255805.65446  23649903.1054   23649898.9774
      -433.6414
   6082906.26748   4744298.27543  24662609.6214   24662608.8204
     -2929.4224
  -8338367.84249  -6485930.50648  22341399.2074   22341396.7694
       586.2814
  11180370.61749   8708768.61147  22511958.5354   22511954.9654
     -3402.2504
   -664141.45948   -514298.29044  24711492.9104   24711491.2154
      -702.9844
  -4842192.04848  -3762828.04045  24179668.7384   24179666.3164
      1761.3594
   -253412.22349   -194624.50448  22005444.0274   22005440.8094
      -630.7194
 04  9  2 22 50 45.0040000  0  7G19G 3G 8G13G10G28G27
  -4181574.61248  -3250685.48746  23651153.3554   23651148.3324
      -442.4224
   6126907.47348   4778584.92843  24670982.6374   24670981.3404
     -2937.2504
  -8347137.30949  -6492763.83748  22339730.3794   22339727.7194
       583.0474
  11231456.45749   8748575.74947  22521680.1294   22521677.0004
     -3409.0314
   -653526.59048   -506026.94344  24713513.2464   24713511.6564
      -712.1724
  -4868584.42448  -3783393.48345  24174646.6134   24174643.9454
      1757.6414
   -243928.28649   -187234.42048  22007248.8324   22007245.6954
      -633.7814
 04  9  2 22 51  0.0040000  0  7G19G 3G 8G13G10G28G27
  -4174868.25648  -3245459.74246  23652429.7384   23652424.7934
      -451.2814
   6171031.47448   4812967.22943  24679379.1684   24679378.1644
     -2945.4694
  -8355854.68449  -6499556.60648  22338071.4734   22338068.6844
       579.7664
  11282647.39349   8788464.78147  22531421.0904   22531417.7304
     -3415.8594
   -642770.43048   -497645.54344  24715560.1844   24715558.0624
      -721.3594
  -4894916.30348  -3803911.80445  24169635.7694   24169633.5164
      1753.7814
   -234394.97949   -179805.86748  22009062.7304   22009059.9414
      -636.8594
 04  9  2 22 51 15.0040000  0  7G19G 3G 8G13G10G28G27
  -4168032.11848  -3240132.87646  23653730.8094   23653726.2624
      -460.1094
   6215272.15248   4847440.50843  24687797.3094   24687796.8364
     -2953.3594
  -8364525.75749  -6506313.26948  22336421.4964   22336418.0394
       576.4694
  11333937.38349   8828430.99547  22541181.4414   22541178.3834
     -3422.7194
   -631878.79548   -489158.54743  24717632.4104   24717631.0194
      -730.7504
  -4921193.27348  -3824387.31445  24164635.2854   24164632.7424
      1749.8914
   -224818.19849   -172343.43448  22010885.0124   22010882.4534
      -639.9844
 04  9  2 22 51 30.0040000  0  7G19G 3G 8G13G10G28G27
  -4161059.93248  -3234699.99546  23655057.3484   23655052.6994
      -469.2504
   6259635.61748   4882009.45143  24696240.5904   24696239.0124
     -2961.5624
  -8373144.11349  -6513028.87948  22334781.3874   22334778.4884
       572.8284
  11385332.55249   8868479.16747  22550961.3714   22550958.4454
     -3429.7344
   -620845.44148   -480561.12844  24719732.9574   24719730.5194
      -740.1724
  -4947409.12748  -3844815.22545  24159646.6844   24159644.0664
      1745.6884
   -215191.57849   -164842.17348  22012716.9734   22012714.3634
      -643.3914
 04  9  2 22 51 45.0040000  0  7G19G 3G 8G13G10G28G27
  -4153952.75348  -3229161.91546  23656410.1444   23656405.0394
      -478.2504
   6304120.41348   4916672.90143  24704705.6214   24704703.8484
     -2969.5624
  -8381711.03049  -6519704.37548  22333151.3014   22333148.7734
       569.4534
  11436831.45649   8908608.16647  22560761.6844   22560758.1684
     -3436.6254
   -609671.64248   -471854.26244  24721858.6134   24721857.1484
      -749.4534
  -4973564.94249  -3865196.32145  24154669.4884   24154667.2194
      1741.7664
   -205516.27949   -157302.97548  22014558.2234   22014555.5234
      -646.5164
 04  9  2 22 52  0.0040000  0  7G19G 3G 8G13G10G28G27
  -4146714.20248  -3223521.47446  23657786.9654   23657781.7464
      -487.0784
   6348722.52748   4951427.77243  24713192.6844   24713191.3364
     -2977.3594
  -8390229.87649  -6526342.42948  22331529.9964   22331527.5314
       566.2034
  11488430.11949   8948814.90147  22570580.4264   22570577.0194
     -3443.2814
   -598361.20048   -463040.92443  24724010.8324   24724008.7344
      -758.6724
  -4999664.28149  -3885533.42745  24149703.0044   24149700.7734
      1738.0164
   -195796.06149   -149728.77948  22016407.9574   22016405.2234
      -649.6414
 04  9  2 22 52 15.0040000  0  7G19G 3G 8G13G10G28G27
  -4139347.43548  -3217781.13546  23659189.0744   23659184.0594
      -495.4844
   6393438.49148   4986271.37243  24721701.7694   24721701.2894
     -2984.9374
  -8398703.77449  -6532945.46148  22329917.4574   22329915.0354
       563.3134
  11540125.23149   8989096.79447  22580417.7934   22580414.6094
     -3449.6564
   -586917.33248   -454123.62043  24726188.7234   24726186.8014
      -767.5314
  -5025710.21048  -3905828.90545  24144746.5124   24144744.3404
      1734.5164
   -186033.96549   -142121.94548  22018265.7234   22018262.9224
      -652.3444
 04  9  2 22 52 30.0040000  0  7G19G 3G 8G13G10G28G27
  -4131846.47248  -3211936.21046  23660616.3554   23660612.0514
      -504.6094
   6438273.76848   5021207.95143  24730233.6374   24730232.2774
     -2993.0784
  -8407126.98549  -6539508.99348  22328314.6294   22328311.9774
       559.7664
  11591922.31549   9029458.13547  22590274.2854   22590271.4144
     -3456.6094
   -575334.40448   -445097.96943  24728392.7074   24728390.7504
      -776.9374
  -5051696.87048  -3926078.20945  24139801.1844   24139798.9344
      1730.3914
   -176224.29249   -134478.03948  22020132.2544   22020129.3484
      -655.6724
 04  9  2 22 52 45.0040000  0  7G19G 3G 8G13G10G28G27
  -4124214.65748  -3205989.32546  23662068.5984   23662063.3444
      -512.9694
   6483224.68948   5056234.62343  24738788.3874   24738785.8554
     -3000.4224
  -8415503.06549  -6546035.81248  22326721.1914   22326718.2154
       557.0314
  11643817.69749   9069896.09347  22600149.9104   22600146.8284
     -3462.7814
   -563615.81848   -435966.58744  24730622.5904   24730621.3284
      -785.5624
  -5077627.66149  -3946283.97345  24134866.9494   24134864.7344
      1727.0314
   -166370.43349   -126799.70548  22022007.6994   22022004.7194
      -658.2344
 04  9  2 22 53  0.0040000  0  7G19G 3G 8G13G10G28G27
  -4116452.50648  -3199940.88146  23663545.6604   23663541.0744
      -521.8914
   6528290.44448   5091350.79443  24747363.6294   24747362.0274
     -3008.3284
  -8423832.55049  -6552526.29648  22325135.4344   22325133.0904
       553.6414
  11695810.68349   9110410.09647  22610043.7384   22610039.9694
     -3469.5784
   -551762.18048   -426729.98743  24732878.4494   24732876.9224
      -794.8124
  -5103502.98348  -3966446.52145  24129942.4884   24129940.5784
      1723.0634
   -156472.78649   -119087.24848  22023890.7934   22023887.9184
      -661.4224
 04  9  2 22 53 15.0050000  0  7G19G 3G 8G13G10G28G27
  -4108556.68348  -3193788.29846  23665048.5714   23665043.7634
      -530.8444
   6573476.48348   5126560.67043  24755961.9854   24755960.8104
     -3016.2344
  -8432112.83949  -6558978.47648  22323560.3604   22323557.1424
       550.2344
  11747907.13449   9151004.71847  22619957.1964   22619953.7204
     -3476.2974
   -539770.03848   -417385.47644  24735160.0874   24735158.4784
      -804.0624
  -5129321.81649  -3986565.04745  24125029.7204   24125027.0444
      1719.0944
   -146527.98049   -111338.05347  22025783.5244   22025780.7514
      -664.5164
 04  9  2 22 53 30.0050000  0  7G19G 3G 8G13G10G28G27
  -4100528.98048  -3187532.91846  23666575.8534   23666571.4354
      -539.4844
   6618775.68848   5161858.74443  24764581.8064   24764580.4114
     -3023.6874
  -8440343.96049  -6565392.31048  22321994.1344   22321991.0834
       547.2814
  11800099.08749   9191673.75547  22629889.1344   22629885.6924
     -3482.6874
   -527641.93248   -407935.00143  24737468.5174   24737466.5954
      -812.9534
  -5155081.44449  -4006637.42745  24120127.7984   24120125.2634
      1715.5474
   -136538.25849   -103553.85248  22027684.1814   22027681.6924
      -667.4374
 04  9  2 22 53 45.0050000  0  7G19G 3G 8G13G10G28G27
  -4092365.93848  -3181172.09447  23668129.2904   23668125.1814
      -548.5474
   6664193.61948   5197249.34643  24773225.2434   24773223.4354
     -3031.6094
  -8448523.52949  -6571766.00148  22320437.2984   22320434.4664
       543.7344
  11852392.74549   9232422.05147  22639840.3294   22639837.2984
     -3489.4224
   -515374.17448   -398375.68243  24739802.8214   24739801.1104
      -822.3124
  -5180780.62849  -4026662.72245  24115237.8374   24115235.4274
      1711.4534
   -126499.83049    -95731.69447  22029594.5564   22029591.8214
      -670.6874
 04  9  2 22 54  0.0050000  0  7G19G 3G 8G13G10G28G27
  -4084070.65548  -3174708.23447  23669707.9314   23669703.5754
      -557.7034
   6709726.81448   5232729.73943  24781890.2904   24781888.6264
     -3039.6094
  -8456654.71349  -6578101.97648  22318890.0404   22318887.4974
       540.2194
  11904784.65449   9273246.90047  22649810.1494   22649806.9114
     -3496.3594
   -502970.08348   -388710.17943  24742162.8374   24742161.5674
      -831.7344
  -5206422.42349  -4046643.29945  24110358.1034   24110355.7904
      1707.2814
   -116416.09649    -87874.24147  22031513.3134   22031510.3214
      -674.0784
 04  9  2 22 54 15.0050000  0  7G19G 3G 8G13G10G28G27
  -4075641.91248  -3168140.35547  23671311.9934   23671307.1184
      -566.1724
   6755376.14848   5268300.68343  24790576.1264   24790575.9464
     -3046.9224
  -8464736.10749  -6584399.15548  22317352.2204   22317349.3214
       537.2974
  11957275.81149   9314149.08547  22659798.8134   22659795.5524
     -3502.5624
   -490428.53648   -378937.53843  24744549.2514   24744547.8764
      -840.5944
  -5232005.55849  -4066578.16345  24105489.4384   24105486.8884
      1703.7194
   -106285.58349    -79980.32348  22033441.2354   22033438.8804
      -676.7974
 04  9  2 22 54 30.0050000  0  7G19G 3G 8G13G10G28G27
  -4067079.84548  -3161468.60946  23672940.7284   23672936.7904
      -575.5944
   6801141.14948   5303961.71543  24799285.3294   24799284.0364
     -3055.1414
  -8472767.90349  -6590657.68948  22315823.5404   22315821.0954
       533.5164
  12009865.72149   9355128.22047  22669806.4544   22669803.4504
     -3509.5784
   -477749.86148   -369058.02143  24746962.2594   24746960.5874
      -850.0944
  -5257530.30249  -4086467.53245  24100632.4784   24100629.7434
      1699.4224
    -96108.63849    -72050.23848  22035377.6184   22035374.9504
      -680.3124
 04  9  2 22 54 45.0050000  0  7G19G 3G 8G13G10G28G27
  -4058380.01148  -3154689.50846  23674596.6264   23674592.5204
      -584.3754
   6847025.94348   5339716.05543  24808016.9464   24808016.1104
     -3062.7034
  -8480745.94949  -6596874.34148  22314305.3604   22314302.4154
       530.3444
  12062558.59949   9396187.59347  22679833.7124   22679830.1884
     -3516.0474
   -464929.68848   -359068.30143  24749401.6034   24749400.3254
      -859.1414
  -5282992.07849  -4106307.84045  24095787.4234   24095784.2864
      1695.6094
    -85880.87249    -64080.54747  22037324.2744   22037320.7164
      -683.2814
 04  9  2 22 55  0.0050000  0  7G19G 3G 8G13G10G28G27
  -4049547.92848  -3147807.35446  23676277.0094   23676272.7634
      -593.5784
   6893024.72347   5375559.26042  24816769.7124   24816769.0954
     -3070.8284
  -8488675.55849  -6603053.25048  22312796.1184   22312793.6384
       526.6254
  12115348.57249   9437322.63647  22689879.1494   22689875.8024
     -3522.9534
   -451973.68648   -348972.73643  24751867.6424   24751865.2354
      -868.7344
  -5308396.43749  -4126103.40745  24090952.9314   24090950.5244
      1691.2974
    -75607.76349    -56075.52748  22039278.8534   22039275.9424
      -686.8284
 04  9  2 22 55 15.0050000  0  7G19G 3G 8G13G10G28G27
  -4040580.35048  -3140819.61246  23677983.7674   23677978.9314
      -602.0474
   6939140.35647   5411493.52143  24825544.6814   24825544.4074
     -3077.9844
  -8496553.44149  -6609191.85048  22311297.3134   22311294.3684
       523.7664
  12168238.68149   9478535.68447  22699944.1494   22699940.7784
     -3529.0784
   -438878.76548   -338768.86943  24754359.5404   24754357.3924
      -877.3284
  -5333740.03149  -4145851.61345  24086130.1814   24086127.7984
      1687.8284
    -65286.13449    -48032.69648  22041242.9624   22041240.2824
      -689.4844
 04  9  2 22 55 30.0050000  0  7G19G 3G 8G13G10G28G27
  -4031482.58948  -3133730.43846  23679714.7434   23679710.2864
      -611.2194
   6985367.25548   5447514.45943  24834341.7434   24834341.1264
     -3085.8594
  -8504385.12249  -6615294.45348  22309807.0404   22309804.4034
       520.1564
  12221223.21349   9519822.31947  22710026.4074   22710023.3174
     -3535.8284
   -425650.23948   -328460.95443  24756876.8374   24756874.6884
      -886.7194
  -5359028.13549  -4165556.58545  24081318.0404   24081315.7434
      1683.6414
    -54921.31649    -39956.20848  22043215.5404   22043212.2514
      -692.8284
 04  9  2 22 55 45.0050000  0  7G19G 3G 8G13G10G28G27
  -4022250.47348  -3126536.58046  23681471.0874   23681466.8374
      -619.7974
   7031709.04248   5483624.92843  24843160.9854   24843159.4034
     -3093.1094
  -8512166.36049  -6621357.74448  22308326.2984   22308323.8414
       517.2034
  12274305.91649   9561185.45347  22720127.9934   22720124.4074
     -3541.9374
   -412284.32948   -318045.93943  24759419.8064   24759418.7554
      -895.4064
  -5384256.73149  -4185215.19745  24076516.4934   24076514.4424
      1680.0004
    -44509.18349    -31842.85747  22045196.7514   22045194.4584
      -695.6414
 04  9  2 22 56  0.0050000  0  7G19G 3G 8G13G10G28G27
  -4012885.72449  -3119239.36446  23683253.4784   23683248.1344
      -628.5314
   7078163.62548   5519823.28943  24852000.8924   24851999.9194
     -3100.3124
  -8519898.94649  -6627383.12548  22306854.6494   22306851.8764
       514.1254
  12327484.86149   9602623.57447  22730247.2044   22730244.2474
     -3548.2344
   -398782.77548   -307525.23543  24761989.7674   24761987.5444
      -904.2974
  -5409427.49449  -4204828.74145  24071726.8994   24071724.2354
      1676.4064
    -34051.51249    -23694.02848  22047187.0174   22047184.1264
      -698.4534
 04  9  2 22 56 15.0050000  0  7G19G 3G 8G13G10G28G27
  -4003386.11848  -3111837.07146  23685061.5014   23685056.2164
      -637.6564
   7124732.97948   5556111.10543  24860863.2044   24860861.6424
     -3108.3594
  -8527580.68949  -6633368.89048  22305392.9384   22305390.1734
       510.5164
  12380762.14449   9644138.33247  22740385.8684   22740382.8604
     -3554.9374
   -385143.45148   -296897.19844  24764585.4384   24764583.5094
      -913.7664
  -5434538.08449  -4224395.38445  24066948.5564   24066945.8724
      1672.1414
    -23546.02749    -15507.92648  22049185.6814   22049183.2864
      -701.7974
 04  9  2 22 56 30.0050000  0  7G19G 3G 8G13G10G28G27
  -3993753.09848  -3104330.81146  23686894.2984   23686889.7354
      -646.5944
   7171415.28148   5592486.91843  24869746.8374   24869744.6614
     -3115.9844
  -8535213.05149  -6639316.16448  22303940.6574   22303937.9624
       507.1254
  12434136.03149   9685728.35147  22750542.5564   22750539.4784
     -3561.4694
   -371367.97348   -286163.05944  24767206.2044   24767204.8454
      -922.8914
  -5459589.97949  -4243916.30945  24062181.2824   24062178.6384
      1668.0784
    -12994.25249     -7285.76648  22051193.8534   22051191.1734
      -704.9844
 04  9  2 22 56 45.0050000  0  7G19G 3G 8G13G10G28G27
  -3983986.50748  -3096720.47346  23688752.7744   23688748.6384
      -655.1254
   7218210.31148   5628950.57343  24878651.2984   24878649.9974
     -3123.0004
  -8542795.84949  -6645224.83548  22302497.6184   22302494.6774
       504.2814
  12487606.17649   9727393.38647  22760717.4704   22760714.6854
     -3567.5164
   -357456.38248   -275322.85944  24769853.6814   24769851.6854
      -931.6094
  -5484583.09249  -4263391.42045  24057425.1104   24057422.7084
      1664.6414
     -2396.02248       972.60148  22053210.6654   22053207.6494
      -707.6564
 04  9  2 22 57  0.0050000  0  7G19G 3G 8G13G10G28G27
  -3974085.39148  -3089005.30746  23690637.1654   23690632.6814
      -665.0164
   7265118.74148   5665502.57043  24887578.2354   24887576.6884
     -3131.5314
  -8550328.15349  -6651094.14948  22301064.3604   22301061.5134
       500.0164
  12541173.35849   9769134.03347  22770911.0794   22770907.4814
     -3574.9374
   -343407.86948   -264375.97444  24772526.6814   24772525.6964
      -941.5784
  -5509516.27549  -4282819.83945  24052680.7904   24052678.5014
      1659.6884
      8249.65649      9267.92648  22055236.4854   22055233.5634
      -711.7664
 04  9  2 22 57 15.0050000  0  7G19G 3G 8G13G10G28G27
  -3964047.46148  -3081183.53046  23692547.0564   23692542.6454
      -673.5944
   7312142.38547   5702144.38043  24896525.3844   24896524.6494
     -3138.6254
  -8557807.69549  -6656922.35348  22299641.0324   22299638.3334
       497.0004
  12594839.49749   9810951.79447  22781123.3684   22781120.2824
     -3580.8444
   -329220.30548   -253320.71844  24775226.7744   24775225.0364
      -950.2814
  -5534387.31249  -4302199.83545  24047947.8684   24047945.0444
      1656.1724
     18944.85149     17601.85348  22057271.8064   22057269.0404
      -714.5004
 04  9  2 22 57 30.0050000  0  7G19G 3G 8G13G10G28G27
  -3953876.61749  -3073258.18946  23694482.3994   23694478.7474
      -682.4224
   7359277.01847   5738872.64443  24905494.1964   24905493.4194
     -3145.9064
  -8565238.17249  -6662712.32548  22298227.0094   22298224.2084
       493.7504
  12648600.50249   9852843.46547  22791353.7284   22791350.0674
     -3587.1874
   -314897.69848   -242160.25843  24777952.2434   24777949.8494
      -959.2814
  -5559200.02649  -4321534.38445  24043226.2824   24043223.7704
      1652.2664
     29685.90049     25971.50348  22059315.6574   22059313.0444
      -717.5624
 04  9  2 22 57 45.0050000  0  7G19G 3G 8G13G10G28G27
  -3943570.63148  -3065227.54246  23696443.4704   23696439.9664
      -691.6414
   7406524.60847   5775688.91643  24914485.4624   24914484.6924
     -3153.6874
  -8572617.56349  -6668462.49948  22296822.5794   22296819.7044
       490.1564
  12702458.39249   9894810.64247  22801602.5094   22801599.0014
     -3593.8754
   -300437.85948   -230892.85044  24780703.4544   24780701.7984
      -968.5784
  -5583952.18049  -4340821.73645  24038515.9154   24038513.0404
      1647.9844
     40474.82749     34378.46148  22061368.9074   22061366.0794
      -721.0004
 04  9  2 22 58  0.0050000  0  7G19G 3G 8G13G10G28G27
  -3933129.57148  -3057091.63846  23698430.4154   23698425.9504
      -700.5004
   7453884.79948   5812592.97442  24923497.5484   24923496.7744
     -3160.9534
  -8579945.82949  -6674172.81548  22295428.0874   22295425.2314
       486.9534
  12756412.73249   9936852.96847  22811870.0324   22811866.3884
     -3600.0944
   -285841.13348   -219518.79444  24783481.3844   24783479.7244
      -977.5004
  -5608643.69249  -4360061.83145  24033817.7124   24033814.5404
      1644.1884
     51311.70948     42822.79248  22063430.6814   22063427.7124
      -723.9374
 04  9  2 22 58 15.0050000  0  7G19G 3G 8G13G10G28G27
  -3922550.76448  -3048848.39846  23700443.0174   23700439.6884
      -710.2664
   7501359.81747   5849586.46343  24932532.1184   24932531.1494
     -3169.2504
  -8587220.34949  -6679841.27448  22294044.1424   22294041.3724
       482.7504
  12810465.79549   9978972.23147  22822155.7124   22822152.6384
     -3607.2344
   -271104.96648   -208036.05044  24786285.3994   24786283.8214
      -987.4844
  -5633272.02749  -4379252.71245  24029131.0634   24029127.9974
      1639.3134
     62199.08548     51306.44648  22065502.8064   22065500.0134
      -728.0004
 04  9  2 22 58 30.0050000  0  7G19G 3G 8G13G10G28G27
  -3911834.61948  -3040498.14046  23702482.7124   23702478.2704
      -718.6874
   7548948.93147   5886668.89243  24941588.1574   24941587.0834
     -3176.2194
  -8594441.55549  -6685468.17548  22292669.4314   22292666.9584
       479.8444
  12864616.97249  10021167.92747  22832460.2204   22832457.2354
     -3613.0784
   -256229.96348   -196445.13644  24789116.6034   24789114.8844
      -996.1414
  -5657837.57848  -4398394.66045  24024455.9784   24024453.0834
      1635.8444
     73136.45348     59829.08148  22067583.9074   22067580.9854
      -730.5944
 04  9  2 22 58 45.0050000  0  7G19G 3G 8G13G10G28G27
  -3900984.42848  -3032043.45146  23704547.7674   23704542.5754
      -727.8444
   7596648.49647   5923837.34742  24950664.9464   24950664.5604
     -3183.6724
  -8601612.78749  -6691056.14448  22291304.9934   22291302.4894
       476.3914
  12918862.79649  10063437.38447  22842783.1264   22842779.8374
     -3619.5314
   -241219.43948   -184748.63444  24791973.2204   24791970.8724
     -1005.2344
  -5682343.56749  -4417490.19945  24019792.6264   24019790.2944
      1631.7664
     84120.71949     68388.26348  22069674.4234   22069671.6574
      -733.7814
 04  9  2 22 59  0.0050000  0  7G19G 3G 8G13G10G28G27
  -3890003.86748  -3023487.15246  23706638.0174   23706632.4704
      -736.2814
   7644454.51547   5961088.81042  24959762.3454   24959761.2864
     -3190.5004
  -8608737.65849  -6696607.98148  22289949.1424   22289946.8994
       473.5164
  12973199.15649  10105777.39047  22853123.0954   22853119.8844
     -3625.3594
   -226077.20348   -172949.47944  24794854.2514   24794852.7824
     -1013.7504
  -5706793.51949  -4436542.08745  24015139.9464   24015136.8294
      1628.2344
     95148.15749     76981.06448  22071772.5404   22071769.8724
      -736.5624
